<?xml version="1.0" encoding="UTF-8" standalone="no" ?>
<gpx xmlns="http://www.topografix.com/GPX/1/1" xmlns:xsi="http://www.w3.org/2001/XMLSchema-instance" xsi:schemaLocation="http://www.topografix.com/GPX/1/1 http://www.topografix.com/GPX/1/1/gpx.xsd" version="1.1" creator="VisuGPX - https://www.visugpx.com">
  <metadata>
    <name>Le Tour de Cabrone</name>
    <desc><![CDATA[Les copains randonneurs du 04
La bergerie troglodyte de Cabrone, L 'aiguier du Pin, les Aiguiers d'Auribeau, la Cabane du Garde, Les Dégoutaux au départ des Grands Clements parking prés du cimetière]]></desc>
  </metadata>
  <trk>
    <name><![CDATA[Le Tour de Cabrone_1]]></name>
    <trkseg>
      <trkpt lat="43.93879" lon="5.42979">
        <ele>380</ele>
        <time>2019-02-18T08:43:30+01:00</time>
      </trkpt>
      <trkpt lat="43.93877" lon="5.42985">
        <ele>380</ele>
        <time>2019-02-18T08:44:00+01:00</time>
      </trkpt>
      <trkpt lat="43.93877" lon="5.4299">
        <ele>380</ele>
        <time>2019-02-18T08:44:23+01:00</time>
      </trkpt>
      <trkpt lat="43.93877" lon="5.42988">
        <ele>380</ele>
        <time>2019-02-18T08:44:38+01:00</time>
      </trkpt>
      <trkpt lat="43.93878" lon="5.42989">
        <ele>380</ele>
        <time>2019-02-18T08:44:50+01:00</time>
      </trkpt>
      <trkpt lat="43.93879" lon="5.42991">
        <ele>380</ele>
        <time>2019-02-18T08:45:09+01:00</time>
      </trkpt>
      <trkpt lat="43.93877" lon="5.42987">
        <ele>380</ele>
        <time>2019-02-18T08:45:24+01:00</time>
      </trkpt>
      <trkpt lat="43.93876" lon="5.42988">
        <ele>380</ele>
        <time>2019-02-18T08:45:40+01:00</time>
      </trkpt>
      <trkpt lat="43.93877" lon="5.42988">
        <ele>380</ele>
        <time>2019-02-18T08:46:00+01:00</time>
      </trkpt>
      <trkpt lat="43.93879" lon="5.42987">
        <ele>380</ele>
        <time>2019-02-18T08:46:18+01:00</time>
      </trkpt>
      <trkpt lat="43.93881" lon="5.42985">
        <ele>380</ele>
        <time>2019-02-18T08:46:34+01:00</time>
      </trkpt>
      <trkpt lat="43.93878" lon="5.42984">
        <ele>380</ele>
        <time>2019-02-18T08:46:52+01:00</time>
      </trkpt>
      <trkpt lat="43.93882" lon="5.42986">
        <ele>381</ele>
        <time>2019-02-18T08:47:05+01:00</time>
      </trkpt>
      <trkpt lat="43.93887" lon="5.42979">
        <ele>381</ele>
        <time>2019-02-18T08:47:21+01:00</time>
      </trkpt>
      <trkpt lat="43.93884" lon="5.4298">
        <ele>381</ele>
        <time>2019-02-18T08:47:33+01:00</time>
      </trkpt>
      <trkpt lat="43.93882" lon="5.42983">
        <ele>381</ele>
        <time>2019-02-18T08:47:46+01:00</time>
      </trkpt>
      <trkpt lat="43.93884" lon="5.42985">
        <ele>381</ele>
        <time>2019-02-18T08:47:59+01:00</time>
      </trkpt>
      <trkpt lat="43.93885" lon="5.42985">
        <ele>381</ele>
        <time>2019-02-18T08:48:11+01:00</time>
      </trkpt>
      <trkpt lat="43.93885" lon="5.42984">
        <ele>381</ele>
        <time>2019-02-18T08:48:34+01:00</time>
      </trkpt>
      <trkpt lat="43.93885" lon="5.42984">
        <ele>381</ele>
        <time>2019-02-18T08:48:56+01:00</time>
      </trkpt>
      <trkpt lat="43.93891" lon="5.42987">
        <ele>382</ele>
        <time>2019-02-18T08:49:20+01:00</time>
      </trkpt>
      <trkpt lat="43.93905" lon="5.42988">
        <ele>384</ele>
        <time>2019-02-18T08:49:35+01:00</time>
      </trkpt>
      <trkpt lat="43.93915" lon="5.42992">
        <ele>386</ele>
        <time>2019-02-18T08:49:49+01:00</time>
      </trkpt>
      <trkpt lat="43.93924" lon="5.42998">
        <ele>388</ele>
        <time>2019-02-18T08:50:01+01:00</time>
      </trkpt>
      <trkpt lat="43.93928" lon="5.43003">
        <ele>389</ele>
        <time>2019-02-18T08:50:10+01:00</time>
      </trkpt>
      <trkpt lat="43.93936" lon="5.43018">
        <ele>391</ele>
        <time>2019-02-18T08:50:28+01:00</time>
      </trkpt>
      <trkpt lat="43.93944" lon="5.43027">
        <ele>393</ele>
        <time>2019-02-18T08:50:43+01:00</time>
      </trkpt>
      <trkpt lat="43.93953" lon="5.43043">
        <ele>394</ele>
        <time>2019-02-18T08:51:00+01:00</time>
      </trkpt>
      <trkpt lat="43.93965" lon="5.43056">
        <ele>397</ele>
        <time>2019-02-18T08:51:18+01:00</time>
      </trkpt>
      <trkpt lat="43.93978" lon="5.43067">
        <ele>399</ele>
        <time>2019-02-18T08:51:36+01:00</time>
      </trkpt>
      <trkpt lat="43.9399" lon="5.43082">
        <ele>400</ele>
        <time>2019-02-18T08:51:52+01:00</time>
      </trkpt>
      <trkpt lat="43.9399" lon="5.43083">
        <ele>400</ele>
        <time>2019-02-18T08:51:53+01:00</time>
      </trkpt>
      <trkpt lat="43.93999" lon="5.43093">
        <ele>401</ele>
        <time>2019-02-18T08:52:06+01:00</time>
      </trkpt>
      <trkpt lat="43.94009" lon="5.4311">
        <ele>403</ele>
        <time>2019-02-18T08:52:23+01:00</time>
      </trkpt>
      <trkpt lat="43.94011" lon="5.43114">
        <ele>404</ele>
        <time>2019-02-18T08:52:27+01:00</time>
      </trkpt>
      <trkpt lat="43.9402" lon="5.43132">
        <ele>405</ele>
        <time>2019-02-18T08:52:44+01:00</time>
      </trkpt>
      <trkpt lat="43.9403" lon="5.4315">
        <ele>407</ele>
        <time>2019-02-18T08:53:00+01:00</time>
      </trkpt>
      <trkpt lat="43.9404" lon="5.43162">
        <ele>408</ele>
        <time>2019-02-18T08:53:16+01:00</time>
      </trkpt>
      <trkpt lat="43.94052" lon="5.4317">
        <ele>409</ele>
        <time>2019-02-18T08:53:30+01:00</time>
      </trkpt>
      <trkpt lat="43.94054" lon="5.43174">
        <ele>410</ele>
        <time>2019-02-18T08:53:35+01:00</time>
      </trkpt>
      <trkpt lat="43.94065" lon="5.43189">
        <ele>411</ele>
        <time>2019-02-18T08:53:51+01:00</time>
      </trkpt>
      <trkpt lat="43.94074" lon="5.43206">
        <ele>413</ele>
        <time>2019-02-18T08:54:07+01:00</time>
      </trkpt>
      <trkpt lat="43.94085" lon="5.4322">
        <ele>414</ele>
        <time>2019-02-18T08:54:23+01:00</time>
      </trkpt>
      <trkpt lat="43.94096" lon="5.43232">
        <ele>416</ele>
        <time>2019-02-18T08:54:39+01:00</time>
      </trkpt>
      <trkpt lat="43.94109" lon="5.43246">
        <ele>419</ele>
        <time>2019-02-18T08:54:58+01:00</time>
      </trkpt>
      <trkpt lat="43.94122" lon="5.43258">
        <ele>422</ele>
        <time>2019-02-18T08:55:15+01:00</time>
      </trkpt>
      <trkpt lat="43.94132" lon="5.43273">
        <ele>424</ele>
        <time>2019-02-18T08:55:32+01:00</time>
      </trkpt>
      <trkpt lat="43.94142" lon="5.43288">
        <ele>425</ele>
        <time>2019-02-18T08:55:48+01:00</time>
      </trkpt>
      <trkpt lat="43.94152" lon="5.43298">
        <ele>427</ele>
        <time>2019-02-18T08:56:03+01:00</time>
      </trkpt>
      <trkpt lat="43.94162" lon="5.43309">
        <ele>428</ele>
        <time>2019-02-18T08:56:17+01:00</time>
      </trkpt>
      <trkpt lat="43.94164" lon="5.4331">
        <ele>428</ele>
        <time>2019-02-18T08:56:19+01:00</time>
      </trkpt>
      <trkpt lat="43.94176" lon="5.4332">
        <ele>431</ele>
        <time>2019-02-18T08:56:36+01:00</time>
      </trkpt>
      <trkpt lat="43.94189" lon="5.43333">
        <ele>434</ele>
        <time>2019-02-18T08:56:52+01:00</time>
      </trkpt>
      <trkpt lat="43.94198" lon="5.43344">
        <ele>435</ele>
        <time>2019-02-18T08:57:04+01:00</time>
      </trkpt>
      <trkpt lat="43.94209" lon="5.43358">
        <ele>438</ele>
        <time>2019-02-18T08:57:20+01:00</time>
      </trkpt>
      <trkpt lat="43.9422" lon="5.4337">
        <ele>440</ele>
        <time>2019-02-18T08:57:35+01:00</time>
      </trkpt>
      <trkpt lat="43.94233" lon="5.43383">
        <ele>443</ele>
        <time>2019-02-18T08:57:51+01:00</time>
      </trkpt>
      <trkpt lat="43.94246" lon="5.43394">
        <ele>445</ele>
        <time>2019-02-18T08:58:07+01:00</time>
      </trkpt>
      <trkpt lat="43.94259" lon="5.4341">
        <ele>447</ele>
        <time>2019-02-18T08:58:24+01:00</time>
      </trkpt>
      <trkpt lat="43.94272" lon="5.43425">
        <ele>450</ele>
        <time>2019-02-18T08:58:41+01:00</time>
      </trkpt>
      <trkpt lat="43.94283" lon="5.4344">
        <ele>452</ele>
        <time>2019-02-18T08:58:56+01:00</time>
      </trkpt>
      <trkpt lat="43.94286" lon="5.43446">
        <ele>453</ele>
        <time>2019-02-18T08:59:09+01:00</time>
      </trkpt>
      <trkpt lat="43.94287" lon="5.43445">
        <ele>453</ele>
        <time>2019-02-18T08:59:28+01:00</time>
      </trkpt>
      <trkpt lat="43.94296" lon="5.43462">
        <ele>456</ele>
        <time>2019-02-18T08:59:45+01:00</time>
      </trkpt>
      <trkpt lat="43.94305" lon="5.43472">
        <ele>458</ele>
        <time>2019-02-18T08:59:59+01:00</time>
      </trkpt>
      <trkpt lat="43.94312" lon="5.43475">
        <ele>459</ele>
        <time>2019-02-18T09:00:07+01:00</time>
      </trkpt>
      <trkpt lat="43.94327" lon="5.43484">
        <ele>462</ele>
        <time>2019-02-18T09:00:24+01:00</time>
      </trkpt>
      <trkpt lat="43.94342" lon="5.4349">
        <ele>463</ele>
        <time>2019-02-18T09:00:39+01:00</time>
      </trkpt>
      <trkpt lat="43.94352" lon="5.43499">
        <ele>463</ele>
        <time>2019-02-18T09:00:53+01:00</time>
      </trkpt>
      <trkpt lat="43.94354" lon="5.435">
        <ele>463</ele>
        <time>2019-02-18T09:01:05+01:00</time>
      </trkpt>
      <trkpt lat="43.94355" lon="5.43502">
        <ele>463</ele>
        <time>2019-02-18T09:01:22+01:00</time>
      </trkpt>
      <trkpt lat="43.94359" lon="5.43506">
        <ele>462</ele>
        <time>2019-02-18T09:01:37+01:00</time>
      </trkpt>
      <trkpt lat="43.94363" lon="5.4351">
        <ele>462</ele>
        <time>2019-02-18T09:01:46+01:00</time>
      </trkpt>
      <trkpt lat="43.94364" lon="5.43512">
        <ele>461</ele>
        <time>2019-02-18T09:01:48+01:00</time>
      </trkpt>
      <trkpt lat="43.94368" lon="5.43516">
        <ele>460</ele>
        <time>2019-02-18T09:01:54+01:00</time>
      </trkpt>
      <trkpt lat="43.94377" lon="5.43522">
        <ele>458</ele>
        <time>2019-02-18T09:02:09+01:00</time>
      </trkpt>
      <trkpt lat="43.94386" lon="5.43526">
        <ele>456</ele>
        <time>2019-02-18T09:02:24+01:00</time>
      </trkpt>
      <trkpt lat="43.94391" lon="5.43534">
        <ele>454</ele>
        <time>2019-02-18T09:02:38+01:00</time>
      </trkpt>
      <trkpt lat="43.94398" lon="5.4354">
        <ele>452</ele>
        <time>2019-02-18T09:02:53+01:00</time>
      </trkpt>
      <trkpt lat="43.94405" lon="5.43549">
        <ele>450</ele>
        <time>2019-02-18T09:03:07+01:00</time>
      </trkpt>
      <trkpt lat="43.94416" lon="5.43559">
        <ele>445</ele>
        <time>2019-02-18T09:03:23+01:00</time>
      </trkpt>
      <trkpt lat="43.94418" lon="5.43562">
        <ele>445</ele>
        <time>2019-02-18T09:03:38+01:00</time>
      </trkpt>
      <trkpt lat="43.94418" lon="5.43562">
        <ele>445</ele>
        <time>2019-02-18T09:03:57+01:00</time>
      </trkpt>
      <trkpt lat="43.94419" lon="5.43561">
        <ele>445</ele>
        <time>2019-02-18T09:04:28+01:00</time>
      </trkpt>
      <trkpt lat="43.9442" lon="5.43562">
        <ele>445</ele>
        <time>2019-02-18T09:04:53+01:00</time>
      </trkpt>
      <trkpt lat="43.9443" lon="5.43572">
        <ele>445</ele>
        <time>2019-02-18T09:05:07+01:00</time>
      </trkpt>
      <trkpt lat="43.94443" lon="5.43583">
        <ele>446</ele>
        <time>2019-02-18T09:05:24+01:00</time>
      </trkpt>
      <trkpt lat="43.94445" lon="5.43604">
        <ele>444</ele>
        <time>2019-02-18T09:05:41+01:00</time>
      </trkpt>
      <trkpt lat="43.94448" lon="5.43621">
        <ele>443</ele>
        <time>2019-02-18T09:05:53+01:00</time>
      </trkpt>
      <trkpt lat="43.94457" lon="5.43644">
        <ele>443</ele>
        <time>2019-02-18T09:06:11+01:00</time>
      </trkpt>
      <trkpt lat="43.94462" lon="5.43652">
        <ele>444</ele>
        <time>2019-02-18T09:06:18+01:00</time>
      </trkpt>
      <trkpt lat="43.94475" lon="5.4367">
        <ele>445</ele>
        <time>2019-02-18T09:06:36+01:00</time>
      </trkpt>
      <trkpt lat="43.94489" lon="5.43686">
        <ele>444</ele>
        <time>2019-02-18T09:06:51+01:00</time>
      </trkpt>
      <trkpt lat="43.94504" lon="5.43698">
        <ele>443</ele>
        <time>2019-02-18T09:07:08+01:00</time>
      </trkpt>
      <trkpt lat="43.94522" lon="5.43712">
        <ele>440</ele>
        <time>2019-02-18T09:07:27+01:00</time>
      </trkpt>
      <trkpt lat="43.94538" lon="5.43724">
        <ele>437</ele>
        <time>2019-02-18T09:07:44+01:00</time>
      </trkpt>
      <trkpt lat="43.94555" lon="5.43738">
        <ele>433</ele>
        <time>2019-02-18T09:08:01+01:00</time>
      </trkpt>
      <trkpt lat="43.94562" lon="5.4374">
        <ele>433</ele>
        <time>2019-02-18T09:08:08+01:00</time>
      </trkpt>
      <trkpt lat="43.94585" lon="5.43749">
        <ele>433</ele>
        <time>2019-02-18T09:08:29+01:00</time>
      </trkpt>
      <trkpt lat="43.9459" lon="5.43751">
        <ele>433</ele>
        <time>2019-02-18T09:08:33+01:00</time>
      </trkpt>
      <trkpt lat="43.94611" lon="5.43759">
        <ele>434</ele>
        <time>2019-02-18T09:08:52+01:00</time>
      </trkpt>
      <trkpt lat="43.94626" lon="5.43767">
        <ele>434</ele>
        <time>2019-02-18T09:09:07+01:00</time>
      </trkpt>
      <trkpt lat="43.94636" lon="5.43781">
        <ele>431</ele>
        <time>2019-02-18T09:09:21+01:00</time>
      </trkpt>
      <trkpt lat="43.94639" lon="5.43787">
        <ele>431</ele>
        <time>2019-02-18T09:09:27+01:00</time>
      </trkpt>
      <trkpt lat="43.94643" lon="5.43791">
        <ele>431</ele>
        <time>2019-02-18T09:09:32+01:00</time>
      </trkpt>
      <trkpt lat="43.94654" lon="5.43805">
        <ele>429</ele>
        <time>2019-02-18T09:09:48+01:00</time>
      </trkpt>
      <trkpt lat="43.94658" lon="5.43826">
        <ele>428</ele>
        <time>2019-02-18T09:10:02+01:00</time>
      </trkpt>
      <trkpt lat="43.94662" lon="5.43835">
        <ele>428</ele>
        <time>2019-02-18T09:10:13+01:00</time>
      </trkpt>
      <trkpt lat="43.94664" lon="5.43836">
        <ele>428</ele>
        <time>2019-02-18T09:10:16+01:00</time>
      </trkpt>
      <trkpt lat="43.94667" lon="5.43836">
        <ele>428</ele>
        <time>2019-02-18T09:10:19+01:00</time>
      </trkpt>
      <trkpt lat="43.94668" lon="5.43837">
        <ele>428</ele>
        <time>2019-02-18T09:10:22+01:00</time>
      </trkpt>
      <trkpt lat="43.94672" lon="5.43837">
        <ele>428</ele>
        <time>2019-02-18T09:10:25+01:00</time>
      </trkpt>
      <trkpt lat="43.94681" lon="5.43838">
        <ele>429</ele>
        <time>2019-02-18T09:10:34+01:00</time>
      </trkpt>
      <trkpt lat="43.94698" lon="5.43842">
        <ele>430</ele>
        <time>2019-02-18T09:10:51+01:00</time>
      </trkpt>
      <trkpt lat="43.94714" lon="5.43841">
        <ele>430</ele>
        <time>2019-02-18T09:11:06+01:00</time>
      </trkpt>
      <trkpt lat="43.94731" lon="5.43835">
        <ele>431</ele>
        <time>2019-02-18T09:11:23+01:00</time>
      </trkpt>
      <trkpt lat="43.94747" lon="5.43826">
        <ele>435</ele>
        <time>2019-02-18T09:11:37+01:00</time>
      </trkpt>
      <trkpt lat="43.94764" lon="5.43816">
        <ele>438</ele>
        <time>2019-02-18T09:11:54+01:00</time>
      </trkpt>
      <trkpt lat="43.94777" lon="5.43807">
        <ele>440</ele>
        <time>2019-02-18T09:12:08+01:00</time>
      </trkpt>
      <trkpt lat="43.94792" lon="5.438">
        <ele>440</ele>
        <time>2019-02-18T09:12:22+01:00</time>
      </trkpt>
      <trkpt lat="43.94808" lon="5.43789">
        <ele>440</ele>
        <time>2019-02-18T09:12:37+01:00</time>
      </trkpt>
      <trkpt lat="43.9482" lon="5.43775">
        <ele>441</ele>
        <time>2019-02-18T09:12:53+01:00</time>
      </trkpt>
      <trkpt lat="43.94827" lon="5.43769">
        <ele>442</ele>
        <time>2019-02-18T09:13:06+01:00</time>
      </trkpt>
      <trkpt lat="43.94835" lon="5.43771">
        <ele>441</ele>
        <time>2019-02-18T09:13:19+01:00</time>
      </trkpt>
      <trkpt lat="43.94834" lon="5.43772">
        <ele>441</ele>
        <time>2019-02-18T09:13:34+01:00</time>
      </trkpt>
      <trkpt lat="43.94835" lon="5.43772">
        <ele>441</ele>
        <time>2019-02-18T09:13:49+01:00</time>
      </trkpt>
      <trkpt lat="43.94839" lon="5.43775">
        <ele>441</ele>
        <time>2019-02-18T09:13:54+01:00</time>
      </trkpt>
      <trkpt lat="43.94858" lon="5.43781">
        <ele>440</ele>
        <time>2019-02-18T09:14:12+01:00</time>
      </trkpt>
      <trkpt lat="43.94861" lon="5.43795">
        <ele>441</ele>
        <time>2019-02-18T09:14:30+01:00</time>
      </trkpt>
      <trkpt lat="43.94862" lon="5.43799">
        <ele>442</ele>
        <time>2019-02-18T09:14:46+01:00</time>
      </trkpt>
      <trkpt lat="43.94861" lon="5.43805">
        <ele>442</ele>
        <time>2019-02-18T09:15:06+01:00</time>
      </trkpt>
      <trkpt lat="43.94871" lon="5.43792">
        <ele>442</ele>
        <time>2019-02-18T09:15:23+01:00</time>
      </trkpt>
      <trkpt lat="43.94869" lon="5.43797">
        <ele>442</ele>
        <time>2019-02-18T09:15:42+01:00</time>
      </trkpt>
      <trkpt lat="43.94865" lon="5.43811">
        <ele>445</ele>
        <time>2019-02-18T09:15:59+01:00</time>
      </trkpt>
      <trkpt lat="43.94865" lon="5.43812">
        <ele>446</ele>
        <time>2019-02-18T09:16:00+01:00</time>
      </trkpt>
      <trkpt lat="43.94876" lon="5.43815">
        <ele>450</ele>
        <time>2019-02-18T09:16:14+01:00</time>
      </trkpt>
      <trkpt lat="43.94886" lon="5.43817">
        <ele>454</ele>
        <time>2019-02-18T09:16:31+01:00</time>
      </trkpt>
      <trkpt lat="43.94911" lon="5.43802">
        <ele>452</ele>
        <time>2019-02-18T09:16:46+01:00</time>
      </trkpt>
      <trkpt lat="43.94917" lon="5.43801">
        <ele>453</ele>
        <time>2019-02-18T09:17:00+01:00</time>
      </trkpt>
      <trkpt lat="43.94923" lon="5.43801">
        <ele>454</ele>
        <time>2019-02-18T09:17:16+01:00</time>
      </trkpt>
      <trkpt lat="43.94913" lon="5.43801">
        <ele>452</ele>
        <time>2019-02-18T09:17:31+01:00</time>
      </trkpt>
      <trkpt lat="43.94907" lon="5.438">
        <ele>450</ele>
        <time>2019-02-18T09:17:49+01:00</time>
      </trkpt>
      <trkpt lat="43.94893" lon="5.43825">
        <ele>460</ele>
        <time>2019-02-18T09:18:08+01:00</time>
      </trkpt>
      <trkpt lat="43.94885" lon="5.43824">
        <ele>457</ele>
        <time>2019-02-18T09:18:29+01:00</time>
      </trkpt>
      <trkpt lat="43.94885" lon="5.43805">
        <ele>446</ele>
        <time>2019-02-18T09:18:47+01:00</time>
      </trkpt>
      <trkpt lat="43.94886" lon="5.43794">
        <ele>444</ele>
        <time>2019-02-18T09:19:05+01:00</time>
      </trkpt>
      <trkpt lat="43.94884" lon="5.43793">
        <ele>444</ele>
        <time>2019-02-18T09:19:10+01:00</time>
      </trkpt>
      <trkpt lat="43.94884" lon="5.43809">
        <ele>448</ele>
        <time>2019-02-18T09:19:25+01:00</time>
      </trkpt>
      <trkpt lat="43.94885" lon="5.43807">
        <ele>447</ele>
        <time>2019-02-18T09:19:41+01:00</time>
      </trkpt>
      <trkpt lat="43.94881" lon="5.43795">
        <ele>444</ele>
        <time>2019-02-18T09:19:55+01:00</time>
      </trkpt>
      <trkpt lat="43.94868" lon="5.4378">
        <ele>441</ele>
        <time>2019-02-18T09:20:13+01:00</time>
      </trkpt>
      <trkpt lat="43.94864" lon="5.43785">
        <ele>441</ele>
        <time>2019-02-18T09:20:29+01:00</time>
      </trkpt>
      <trkpt lat="43.94869" lon="5.43791">
        <ele>442</ele>
        <time>2019-02-18T09:20:42+01:00</time>
      </trkpt>
      <trkpt lat="43.94874" lon="5.4379">
        <ele>442</ele>
        <time>2019-02-18T09:20:57+01:00</time>
      </trkpt>
      <trkpt lat="43.94877" lon="5.43784">
        <ele>441</ele>
        <time>2019-02-18T09:21:18+01:00</time>
      </trkpt>
      <trkpt lat="43.94879" lon="5.43776">
        <ele>441</ele>
        <time>2019-02-18T09:21:43+01:00</time>
      </trkpt>
      <trkpt lat="43.94866" lon="5.43785">
        <ele>441</ele>
        <time>2019-02-18T09:22:00+01:00</time>
      </trkpt>
      <trkpt lat="43.94861" lon="5.43783">
        <ele>440</ele>
        <time>2019-02-18T09:22:16+01:00</time>
      </trkpt>
      <trkpt lat="43.94854" lon="5.43779">
        <ele>440</ele>
        <time>2019-02-18T09:22:29+01:00</time>
      </trkpt>
      <trkpt lat="43.94838" lon="5.43775">
        <ele>440</ele>
        <time>2019-02-18T09:22:46+01:00</time>
      </trkpt>
      <trkpt lat="43.94836" lon="5.43775">
        <ele>441</ele>
        <time>2019-02-18T09:22:48+01:00</time>
      </trkpt>
      <trkpt lat="43.94832" lon="5.43773">
        <ele>441</ele>
        <time>2019-02-18T09:22:52+01:00</time>
      </trkpt>
      <trkpt lat="43.94822" lon="5.43773">
        <ele>441</ele>
        <time>2019-02-18T09:23:04+01:00</time>
      </trkpt>
      <trkpt lat="43.94813" lon="5.43782">
        <ele>440</ele>
        <time>2019-02-18T09:23:17+01:00</time>
      </trkpt>
      <trkpt lat="43.94803" lon="5.43793">
        <ele>440</ele>
        <time>2019-02-18T09:23:32+01:00</time>
      </trkpt>
      <trkpt lat="43.94798" lon="5.43796">
        <ele>440</ele>
        <time>2019-02-18T09:23:45+01:00</time>
      </trkpt>
      <trkpt lat="43.94795" lon="5.43795">
        <ele>440</ele>
        <time>2019-02-18T09:24:00+01:00</time>
      </trkpt>
      <trkpt lat="43.94794" lon="5.43796">
        <ele>440</ele>
        <time>2019-02-18T09:24:01+01:00</time>
      </trkpt>
      <trkpt lat="43.94786" lon="5.43802">
        <ele>440</ele>
        <time>2019-02-18T09:24:10+01:00</time>
      </trkpt>
      <trkpt lat="43.94777" lon="5.43809">
        <ele>440</ele>
        <time>2019-02-18T09:24:19+01:00</time>
      </trkpt>
      <trkpt lat="43.94763" lon="5.43817">
        <ele>438</ele>
        <time>2019-02-18T09:24:37+01:00</time>
      </trkpt>
      <trkpt lat="43.94748" lon="5.43826">
        <ele>435</ele>
        <time>2019-02-18T09:24:51+01:00</time>
      </trkpt>
      <trkpt lat="43.94731" lon="5.43835">
        <ele>431</ele>
        <time>2019-02-18T09:25:07+01:00</time>
      </trkpt>
      <trkpt lat="43.94719" lon="5.4384">
        <ele>430</ele>
        <time>2019-02-18T09:25:16+01:00</time>
      </trkpt>
      <trkpt lat="43.94715" lon="5.43839">
        <ele>430</ele>
        <time>2019-02-18T09:25:20+01:00</time>
      </trkpt>
      <trkpt lat="43.94706" lon="5.43841">
        <ele>430</ele>
        <time>2019-02-18T09:25:31+01:00</time>
      </trkpt>
      <trkpt lat="43.94689" lon="5.43838">
        <ele>430</ele>
        <time>2019-02-18T09:25:42+01:00</time>
      </trkpt>
      <trkpt lat="43.94676" lon="5.43832">
        <ele>429</ele>
        <time>2019-02-18T09:25:51+01:00</time>
      </trkpt>
      <trkpt lat="43.94673" lon="5.43833">
        <ele>428</ele>
        <time>2019-02-18T09:25:53+01:00</time>
      </trkpt>
      <trkpt lat="43.94673" lon="5.43838">
        <ele>428</ele>
        <time>2019-02-18T09:25:55+01:00</time>
      </trkpt>
      <trkpt lat="43.94672" lon="5.43849">
        <ele>428</ele>
        <time>2019-02-18T09:26:06+01:00</time>
      </trkpt>
      <trkpt lat="43.94673" lon="5.43855">
        <ele>428</ele>
        <time>2019-02-18T09:26:16+01:00</time>
      </trkpt>
      <trkpt lat="43.94672" lon="5.43858">
        <ele>428</ele>
        <time>2019-02-18T09:26:20+01:00</time>
      </trkpt>
      <trkpt lat="43.9467" lon="5.43875">
        <ele>427</ele>
        <time>2019-02-18T09:26:31+01:00</time>
      </trkpt>
      <trkpt lat="43.94668" lon="5.43879">
        <ele>426</ele>
        <time>2019-02-18T09:26:35+01:00</time>
      </trkpt>
      <trkpt lat="43.94666" lon="5.43879">
        <ele>426</ele>
        <time>2019-02-18T09:26:37+01:00</time>
      </trkpt>
      <trkpt lat="43.94665" lon="5.43879">
        <ele>426</ele>
        <time>2019-02-18T09:26:38+01:00</time>
      </trkpt>
      <trkpt lat="43.94662" lon="5.43884">
        <ele>426</ele>
        <time>2019-02-18T09:26:45+01:00</time>
      </trkpt>
      <trkpt lat="43.9466" lon="5.43892">
        <ele>425</ele>
        <time>2019-02-18T09:26:56+01:00</time>
      </trkpt>
      <trkpt lat="43.9466" lon="5.43894">
        <ele>425</ele>
        <time>2019-02-18T09:26:57+01:00</time>
      </trkpt>
      <trkpt lat="43.94659" lon="5.43902">
        <ele>425</ele>
        <time>2019-02-18T09:27:03+01:00</time>
      </trkpt>
      <trkpt lat="43.9466" lon="5.43911">
        <ele>425</ele>
        <time>2019-02-18T09:27:10+01:00</time>
      </trkpt>
      <trkpt lat="43.9466" lon="5.43926">
        <ele>425</ele>
        <time>2019-02-18T09:27:21+01:00</time>
      </trkpt>
      <trkpt lat="43.94657" lon="5.43931">
        <ele>425</ele>
        <time>2019-02-18T09:27:34+01:00</time>
      </trkpt>
      <trkpt lat="43.94656" lon="5.43938">
        <ele>425</ele>
        <time>2019-02-18T09:27:46+01:00</time>
      </trkpt>
      <trkpt lat="43.94659" lon="5.43951">
        <ele>426</ele>
        <time>2019-02-18T09:28:03+01:00</time>
      </trkpt>
      <trkpt lat="43.94661" lon="5.43967">
        <ele>426</ele>
        <time>2019-02-18T09:28:19+01:00</time>
      </trkpt>
      <trkpt lat="43.94657" lon="5.43982">
        <ele>427</ele>
        <time>2019-02-18T09:28:37+01:00</time>
      </trkpt>
      <trkpt lat="43.94656" lon="5.43987">
        <ele>427</ele>
        <time>2019-02-18T09:28:48+01:00</time>
      </trkpt>
      <trkpt lat="43.9465" lon="5.43996">
        <ele>428</ele>
        <time>2019-02-18T09:29:02+01:00</time>
      </trkpt>
      <trkpt lat="43.94643" lon="5.44003">
        <ele>427</ele>
        <time>2019-02-18T09:29:11+01:00</time>
      </trkpt>
      <trkpt lat="43.94641" lon="5.44012">
        <ele>428</ele>
        <time>2019-02-18T09:29:16+01:00</time>
      </trkpt>
      <trkpt lat="43.94647" lon="5.44023">
        <ele>429</ele>
        <time>2019-02-18T09:29:27+01:00</time>
      </trkpt>
      <trkpt lat="43.9465" lon="5.4403">
        <ele>430</ele>
        <time>2019-02-18T09:29:36+01:00</time>
      </trkpt>
      <trkpt lat="43.94655" lon="5.44037">
        <ele>430</ele>
        <time>2019-02-18T09:29:46+01:00</time>
      </trkpt>
      <trkpt lat="43.94657" lon="5.44041">
        <ele>430</ele>
        <time>2019-02-18T09:29:49+01:00</time>
      </trkpt>
      <trkpt lat="43.94664" lon="5.44057">
        <ele>431</ele>
        <time>2019-02-18T09:30:04+01:00</time>
      </trkpt>
      <trkpt lat="43.94668" lon="5.44085">
        <ele>433</ele>
        <time>2019-02-18T09:30:21+01:00</time>
      </trkpt>
      <trkpt lat="43.94675" lon="5.44105">
        <ele>436</ele>
        <time>2019-02-18T09:30:38+01:00</time>
      </trkpt>
      <trkpt lat="43.94685" lon="5.44126">
        <ele>438</ele>
        <time>2019-02-18T09:30:56+01:00</time>
      </trkpt>
      <trkpt lat="43.94692" lon="5.44131">
        <ele>439</ele>
        <time>2019-02-18T09:31:14+01:00</time>
      </trkpt>
      <trkpt lat="43.94697" lon="5.44141">
        <ele>439</ele>
        <time>2019-02-18T09:31:27+01:00</time>
      </trkpt>
      <trkpt lat="43.94701" lon="5.44148">
        <ele>440</ele>
        <time>2019-02-18T09:31:35+01:00</time>
      </trkpt>
      <trkpt lat="43.94707" lon="5.44151">
        <ele>441</ele>
        <time>2019-02-18T09:31:39+01:00</time>
      </trkpt>
      <trkpt lat="43.9471" lon="5.44152">
        <ele>441</ele>
        <time>2019-02-18T09:31:41+01:00</time>
      </trkpt>
      <trkpt lat="43.94715" lon="5.44151">
        <ele>441</ele>
        <time>2019-02-18T09:31:47+01:00</time>
      </trkpt>
      <trkpt lat="43.94721" lon="5.4415">
        <ele>442</ele>
        <time>2019-02-18T09:31:52+01:00</time>
      </trkpt>
      <trkpt lat="43.94722" lon="5.44149">
        <ele>442</ele>
        <time>2019-02-18T09:31:53+01:00</time>
      </trkpt>
      <trkpt lat="43.94737" lon="5.44135">
        <ele>444</ele>
        <time>2019-02-18T09:32:12+01:00</time>
      </trkpt>
      <trkpt lat="43.94747" lon="5.44121">
        <ele>446</ele>
        <time>2019-02-18T09:32:27+01:00</time>
      </trkpt>
      <trkpt lat="43.94755" lon="5.44104">
        <ele>448</ele>
        <time>2019-02-18T09:32:43+01:00</time>
      </trkpt>
      <trkpt lat="43.94758" lon="5.44086">
        <ele>449</ele>
        <time>2019-02-18T09:32:59+01:00</time>
      </trkpt>
      <trkpt lat="43.94763" lon="5.4406">
        <ele>449</ele>
        <time>2019-02-18T09:33:19+01:00</time>
      </trkpt>
      <trkpt lat="43.94774" lon="5.44045">
        <ele>450</ele>
        <time>2019-02-18T09:33:35+01:00</time>
      </trkpt>
      <trkpt lat="43.94788" lon="5.44046">
        <ele>453</ele>
        <time>2019-02-18T09:33:52+01:00</time>
      </trkpt>
      <trkpt lat="43.948" lon="5.44047">
        <ele>456</ele>
        <time>2019-02-18T09:34:06+01:00</time>
      </trkpt>
      <trkpt lat="43.94811" lon="5.44058">
        <ele>460</ele>
        <time>2019-02-18T09:34:23+01:00</time>
      </trkpt>
      <trkpt lat="43.94824" lon="5.44074">
        <ele>463</ele>
        <time>2019-02-18T09:34:40+01:00</time>
      </trkpt>
      <trkpt lat="43.94831" lon="5.44094">
        <ele>464</ele>
        <time>2019-02-18T09:34:55+01:00</time>
      </trkpt>
      <trkpt lat="43.94831" lon="5.44096">
        <ele>464</ele>
        <time>2019-02-18T09:34:56+01:00</time>
      </trkpt>
      <trkpt lat="43.94828" lon="5.44109">
        <ele>464</ele>
        <time>2019-02-18T09:35:06+01:00</time>
      </trkpt>
      <trkpt lat="43.94829" lon="5.44127">
        <ele>464</ele>
        <time>2019-02-18T09:35:21+01:00</time>
      </trkpt>
      <trkpt lat="43.94838" lon="5.44142">
        <ele>465</ele>
        <time>2019-02-18T09:35:38+01:00</time>
      </trkpt>
      <trkpt lat="43.94851" lon="5.44153">
        <ele>467</ele>
        <time>2019-02-18T09:35:56+01:00</time>
      </trkpt>
      <trkpt lat="43.94863" lon="5.44165">
        <ele>471</ele>
        <time>2019-02-18T09:36:11+01:00</time>
      </trkpt>
      <trkpt lat="43.94877" lon="5.44172">
        <ele>476</ele>
        <time>2019-02-18T09:36:27+01:00</time>
      </trkpt>
      <trkpt lat="43.94891" lon="5.44174">
        <ele>481</ele>
        <time>2019-02-18T09:36:43+01:00</time>
      </trkpt>
      <trkpt lat="43.94892" lon="5.44173">
        <ele>481</ele>
        <time>2019-02-18T09:36:44+01:00</time>
      </trkpt>
      <trkpt lat="43.94894" lon="5.44173">
        <ele>481</ele>
        <time>2019-02-18T09:36:45+01:00</time>
      </trkpt>
      <trkpt lat="43.94896" lon="5.44171">
        <ele>482</ele>
        <time>2019-02-18T09:36:51+01:00</time>
      </trkpt>
      <trkpt lat="43.94897" lon="5.4417">
        <ele>482</ele>
        <time>2019-02-18T09:36:52+01:00</time>
      </trkpt>
      <trkpt lat="43.949" lon="5.44169">
        <ele>483</ele>
        <time>2019-02-18T09:36:55+01:00</time>
      </trkpt>
      <trkpt lat="43.94901" lon="5.44168">
        <ele>483</ele>
        <time>2019-02-18T09:36:56+01:00</time>
      </trkpt>
      <trkpt lat="43.94907" lon="5.44165">
        <ele>484</ele>
        <time>2019-02-18T09:37:04+01:00</time>
      </trkpt>
      <trkpt lat="43.94908" lon="5.44164">
        <ele>485</ele>
        <time>2019-02-18T09:37:05+01:00</time>
      </trkpt>
      <trkpt lat="43.94913" lon="5.44161">
        <ele>485</ele>
        <time>2019-02-18T09:37:16+01:00</time>
      </trkpt>
      <trkpt lat="43.94915" lon="5.44158">
        <ele>485</ele>
        <time>2019-02-18T09:37:35+01:00</time>
      </trkpt>
      <trkpt lat="43.94918" lon="5.44155">
        <ele>485</ele>
        <time>2019-02-18T09:37:40+01:00</time>
      </trkpt>
      <trkpt lat="43.94918" lon="5.44153">
        <ele>485</ele>
        <time>2019-02-18T09:37:41+01:00</time>
      </trkpt>
      <trkpt lat="43.94918" lon="5.44151">
        <ele>485</ele>
        <time>2019-02-18T09:37:42+01:00</time>
      </trkpt>
      <trkpt lat="43.94919" lon="5.44149">
        <ele>485</ele>
        <time>2019-02-18T09:37:43+01:00</time>
      </trkpt>
      <trkpt lat="43.9492" lon="5.44144">
        <ele>484</ele>
        <time>2019-02-18T09:37:51+01:00</time>
      </trkpt>
      <trkpt lat="43.94921" lon="5.44141">
        <ele>484</ele>
        <time>2019-02-18T09:38:02+01:00</time>
      </trkpt>
      <trkpt lat="43.94922" lon="5.44134">
        <ele>484</ele>
        <time>2019-02-18T09:38:13+01:00</time>
      </trkpt>
      <trkpt lat="43.9492" lon="5.44135">
        <ele>484</ele>
        <time>2019-02-18T09:38:31+01:00</time>
      </trkpt>
      <trkpt lat="43.9492" lon="5.44135">
        <ele>484</ele>
        <time>2019-02-18T09:39:02+01:00</time>
      </trkpt>
      <trkpt lat="43.94922" lon="5.44132">
        <ele>484</ele>
        <time>2019-02-18T09:39:17+01:00</time>
      </trkpt>
      <trkpt lat="43.94921" lon="5.44135">
        <ele>484</ele>
        <time>2019-02-18T09:39:38+01:00</time>
      </trkpt>
      <trkpt lat="43.94924" lon="5.44136">
        <ele>484</ele>
        <time>2019-02-18T09:40:03+01:00</time>
      </trkpt>
      <trkpt lat="43.94922" lon="5.44138">
        <ele>484</ele>
        <time>2019-02-18T09:40:26+01:00</time>
      </trkpt>
      <trkpt lat="43.94922" lon="5.44138">
        <ele>484</ele>
        <time>2019-02-18T09:40:51+01:00</time>
      </trkpt>
      <trkpt lat="43.94922" lon="5.44135">
        <ele>484</ele>
        <time>2019-02-18T09:41:16+01:00</time>
      </trkpt>
      <trkpt lat="43.94931" lon="5.44121">
        <ele>485</ele>
        <time>2019-02-18T09:41:32+01:00</time>
      </trkpt>
      <trkpt lat="43.94934" lon="5.44105">
        <ele>486</ele>
        <time>2019-02-18T09:41:45+01:00</time>
      </trkpt>
      <trkpt lat="43.94931" lon="5.44084">
        <ele>488</ele>
        <time>2019-02-18T09:42:01+01:00</time>
      </trkpt>
      <trkpt lat="43.9493" lon="5.44073">
        <ele>489</ele>
        <time>2019-02-18T09:42:09+01:00</time>
      </trkpt>
      <trkpt lat="43.94938" lon="5.44062">
        <ele>492</ele>
        <time>2019-02-18T09:42:24+01:00</time>
      </trkpt>
      <trkpt lat="43.9495" lon="5.44068">
        <ele>493</ele>
        <time>2019-02-18T09:42:39+01:00</time>
      </trkpt>
      <trkpt lat="43.94952" lon="5.44068">
        <ele>494</ele>
        <time>2019-02-18T09:42:42+01:00</time>
      </trkpt>
      <trkpt lat="43.9496" lon="5.44058">
        <ele>497</ele>
        <time>2019-02-18T09:42:56+01:00</time>
      </trkpt>
      <trkpt lat="43.94958" lon="5.44036">
        <ele>500</ele>
        <time>2019-02-18T09:43:13+01:00</time>
      </trkpt>
      <trkpt lat="43.94953" lon="5.44012">
        <ele>503</ele>
        <time>2019-02-18T09:43:31+01:00</time>
      </trkpt>
      <trkpt lat="43.94948" lon="5.43989">
        <ele>505</ele>
        <time>2019-02-18T09:43:48+01:00</time>
      </trkpt>
      <trkpt lat="43.94945" lon="5.43973">
        <ele>507</ele>
        <time>2019-02-18T09:44:00+01:00</time>
      </trkpt>
      <trkpt lat="43.94941" lon="5.4395">
        <ele>508</ele>
        <time>2019-02-18T09:44:15+01:00</time>
      </trkpt>
      <trkpt lat="43.94939" lon="5.43934">
        <ele>508</ele>
        <time>2019-02-18T09:44:28+01:00</time>
      </trkpt>
      <trkpt lat="43.94939" lon="5.43932">
        <ele>508</ele>
        <time>2019-02-18T09:44:29+01:00</time>
      </trkpt>
      <trkpt lat="43.9494" lon="5.43931">
        <ele>508</ele>
        <time>2019-02-18T09:44:30+01:00</time>
      </trkpt>
      <trkpt lat="43.94948" lon="5.4392">
        <ele>510</ele>
        <time>2019-02-18T09:44:44+01:00</time>
      </trkpt>
      <trkpt lat="43.9495" lon="5.43919">
        <ele>510</ele>
        <time>2019-02-18T09:44:59+01:00</time>
      </trkpt>
      <trkpt lat="43.94958" lon="5.43922">
        <ele>512</ele>
        <time>2019-02-18T09:45:13+01:00</time>
      </trkpt>
      <trkpt lat="43.94959" lon="5.43922">
        <ele>512</ele>
        <time>2019-02-18T09:45:27+01:00</time>
      </trkpt>
      <trkpt lat="43.94966" lon="5.4393">
        <ele>513</ele>
        <time>2019-02-18T09:45:44+01:00</time>
      </trkpt>
      <trkpt lat="43.94975" lon="5.43944">
        <ele>516</ele>
        <time>2019-02-18T09:46:01+01:00</time>
      </trkpt>
      <trkpt lat="43.94981" lon="5.4395">
        <ele>517</ele>
        <time>2019-02-18T09:46:09+01:00</time>
      </trkpt>
      <trkpt lat="43.94991" lon="5.43956">
        <ele>519</ele>
        <time>2019-02-18T09:46:24+01:00</time>
      </trkpt>
      <trkpt lat="43.94992" lon="5.43957">
        <ele>519</ele>
        <time>2019-02-18T09:46:25+01:00</time>
      </trkpt>
      <trkpt lat="43.95002" lon="5.43966">
        <ele>521</ele>
        <time>2019-02-18T09:46:37+01:00</time>
      </trkpt>
      <trkpt lat="43.95014" lon="5.43978">
        <ele>523</ele>
        <time>2019-02-18T09:46:54+01:00</time>
      </trkpt>
      <trkpt lat="43.95027" lon="5.43987">
        <ele>526</ele>
        <time>2019-02-18T09:47:12+01:00</time>
      </trkpt>
      <trkpt lat="43.9504" lon="5.43993">
        <ele>529</ele>
        <time>2019-02-18T09:47:27+01:00</time>
      </trkpt>
      <trkpt lat="43.95056" lon="5.44004">
        <ele>532</ele>
        <time>2019-02-18T09:47:45+01:00</time>
      </trkpt>
      <trkpt lat="43.9507" lon="5.44009">
        <ele>536</ele>
        <time>2019-02-18T09:48:02+01:00</time>
      </trkpt>
      <trkpt lat="43.95083" lon="5.44013">
        <ele>539</ele>
        <time>2019-02-18T09:48:18+01:00</time>
      </trkpt>
      <trkpt lat="43.95096" lon="5.44014">
        <ele>543</ele>
        <time>2019-02-18T09:48:34+01:00</time>
      </trkpt>
      <trkpt lat="43.9511" lon="5.44017">
        <ele>546</ele>
        <time>2019-02-18T09:48:52+01:00</time>
      </trkpt>
      <trkpt lat="43.95113" lon="5.44022">
        <ele>547</ele>
        <time>2019-02-18T09:49:14+01:00</time>
      </trkpt>
      <trkpt lat="43.95124" lon="5.4403">
        <ele>548</ele>
        <time>2019-02-18T09:49:30+01:00</time>
      </trkpt>
      <trkpt lat="43.95135" lon="5.44036">
        <ele>550</ele>
        <time>2019-02-18T09:49:46+01:00</time>
      </trkpt>
      <trkpt lat="43.95145" lon="5.44039">
        <ele>553</ele>
        <time>2019-02-18T09:50:01+01:00</time>
      </trkpt>
      <trkpt lat="43.95154" lon="5.44041">
        <ele>556</ele>
        <time>2019-02-18T09:50:15+01:00</time>
      </trkpt>
      <trkpt lat="43.95163" lon="5.44046">
        <ele>558</ele>
        <time>2019-02-18T09:50:28+01:00</time>
      </trkpt>
      <trkpt lat="43.95173" lon="5.44053">
        <ele>560</ele>
        <time>2019-02-18T09:50:44+01:00</time>
      </trkpt>
      <trkpt lat="43.95185" lon="5.44062">
        <ele>562</ele>
        <time>2019-02-18T09:51:00+01:00</time>
      </trkpt>
      <trkpt lat="43.95196" lon="5.44071">
        <ele>564</ele>
        <time>2019-02-18T09:51:16+01:00</time>
      </trkpt>
      <trkpt lat="43.95211" lon="5.44079">
        <ele>567</ele>
        <time>2019-02-18T09:51:34+01:00</time>
      </trkpt>
      <trkpt lat="43.95222" lon="5.44086">
        <ele>570</ele>
        <time>2019-02-18T09:51:50+01:00</time>
      </trkpt>
      <trkpt lat="43.95236" lon="5.4409">
        <ele>575</ele>
        <time>2019-02-18T09:52:07+01:00</time>
      </trkpt>
      <trkpt lat="43.95249" lon="5.44094">
        <ele>579</ele>
        <time>2019-02-18T09:52:22+01:00</time>
      </trkpt>
      <trkpt lat="43.95252" lon="5.44097">
        <ele>579</ele>
        <time>2019-02-18T09:52:38+01:00</time>
      </trkpt>
      <trkpt lat="43.95251" lon="5.44097">
        <ele>579</ele>
        <time>2019-02-18T09:53:05+01:00</time>
      </trkpt>
      <trkpt lat="43.9525" lon="5.44096">
        <ele>579</ele>
        <time>2019-02-18T09:53:32+01:00</time>
      </trkpt>
      <trkpt lat="43.95253" lon="5.44096">
        <ele>580</ele>
        <time>2019-02-18T09:54:08+01:00</time>
      </trkpt>
      <trkpt lat="43.95257" lon="5.44099">
        <ele>581</ele>
        <time>2019-02-18T09:54:22+01:00</time>
      </trkpt>
      <trkpt lat="43.95263" lon="5.44099">
        <ele>582</ele>
        <time>2019-02-18T09:54:39+01:00</time>
      </trkpt>
      <trkpt lat="43.95275" lon="5.44113">
        <ele>584</ele>
        <time>2019-02-18T09:54:58+01:00</time>
      </trkpt>
      <trkpt lat="43.95282" lon="5.44118">
        <ele>587</ele>
        <time>2019-02-18T09:55:18+01:00</time>
      </trkpt>
      <trkpt lat="43.95281" lon="5.44119">
        <ele>587</ele>
        <time>2019-02-18T09:55:45+01:00</time>
      </trkpt>
      <trkpt lat="43.95281" lon="5.44118">
        <ele>586</ele>
        <time>2019-02-18T09:56:23+01:00</time>
      </trkpt>
      <trkpt lat="43.95283" lon="5.44122">
        <ele>587</ele>
        <time>2019-02-18T09:56:50+01:00</time>
      </trkpt>
      <trkpt lat="43.95295" lon="5.44131">
        <ele>590</ele>
        <time>2019-02-18T09:57:05+01:00</time>
      </trkpt>
      <trkpt lat="43.95302" lon="5.44143">
        <ele>592</ele>
        <time>2019-02-18T09:57:18+01:00</time>
      </trkpt>
      <trkpt lat="43.95305" lon="5.44148">
        <ele>594</ele>
        <time>2019-02-18T09:57:23+01:00</time>
      </trkpt>
      <trkpt lat="43.95314" lon="5.4416">
        <ele>598</ele>
        <time>2019-02-18T09:57:38+01:00</time>
      </trkpt>
      <trkpt lat="43.95323" lon="5.44171">
        <ele>600</ele>
        <time>2019-02-18T09:57:53+01:00</time>
      </trkpt>
      <trkpt lat="43.95334" lon="5.44178">
        <ele>603</ele>
        <time>2019-02-18T09:58:08+01:00</time>
      </trkpt>
      <trkpt lat="43.95338" lon="5.44179">
        <ele>604</ele>
        <time>2019-02-18T09:58:12+01:00</time>
      </trkpt>
      <trkpt lat="43.95342" lon="5.44181">
        <ele>605</ele>
        <time>2019-02-18T09:58:16+01:00</time>
      </trkpt>
      <trkpt lat="43.95351" lon="5.44184">
        <ele>607</ele>
        <time>2019-02-18T09:58:30+01:00</time>
      </trkpt>
      <trkpt lat="43.9536" lon="5.44188">
        <ele>608</ele>
        <time>2019-02-18T09:58:43+01:00</time>
      </trkpt>
      <trkpt lat="43.9537" lon="5.44192">
        <ele>611</ele>
        <time>2019-02-18T09:58:58+01:00</time>
      </trkpt>
      <trkpt lat="43.95372" lon="5.44193">
        <ele>612</ele>
        <time>2019-02-18T09:59:10+01:00</time>
      </trkpt>
      <trkpt lat="43.95371" lon="5.44204">
        <ele>615</ele>
        <time>2019-02-18T09:59:24+01:00</time>
      </trkpt>
      <trkpt lat="43.95364" lon="5.44216">
        <ele>618</ele>
        <time>2019-02-18T09:59:39+01:00</time>
      </trkpt>
      <trkpt lat="43.95354" lon="5.4423">
        <ele>621</ele>
        <time>2019-02-18T09:59:55+01:00</time>
      </trkpt>
      <trkpt lat="43.95345" lon="5.44247">
        <ele>625</ele>
        <time>2019-02-18T10:00:11+01:00</time>
      </trkpt>
      <trkpt lat="43.95339" lon="5.44263">
        <ele>629</ele>
        <time>2019-02-18T10:00:26+01:00</time>
      </trkpt>
      <trkpt lat="43.95336" lon="5.44268">
        <ele>630</ele>
        <time>2019-02-18T10:00:31+01:00</time>
      </trkpt>
      <trkpt lat="43.95327" lon="5.44285">
        <ele>631</ele>
        <time>2019-02-18T10:00:48+01:00</time>
      </trkpt>
      <trkpt lat="43.95319" lon="5.44303">
        <ele>632</ele>
        <time>2019-02-18T10:01:05+01:00</time>
      </trkpt>
      <trkpt lat="43.95316" lon="5.44304">
        <ele>632</ele>
        <time>2019-02-18T10:01:22+01:00</time>
      </trkpt>
      <trkpt lat="43.95316" lon="5.44305">
        <ele>632</ele>
        <time>2019-02-18T10:01:53+01:00</time>
      </trkpt>
      <trkpt lat="43.95316" lon="5.44306">
        <ele>632</ele>
        <time>2019-02-18T10:02:21+01:00</time>
      </trkpt>
      <trkpt lat="43.95317" lon="5.44304">
        <ele>632</ele>
        <time>2019-02-18T10:02:43+01:00</time>
      </trkpt>
      <trkpt lat="43.95319" lon="5.44306">
        <ele>633</ele>
        <time>2019-02-18T10:03:17+01:00</time>
      </trkpt>
      <trkpt lat="43.95318" lon="5.44307">
        <ele>633</ele>
        <time>2019-02-18T10:03:42+01:00</time>
      </trkpt>
      <trkpt lat="43.95319" lon="5.44305">
        <ele>633</ele>
        <time>2019-02-18T10:04:10+01:00</time>
      </trkpt>
      <trkpt lat="43.95318" lon="5.44306">
        <ele>633</ele>
        <time>2019-02-18T10:04:43+01:00</time>
      </trkpt>
      <trkpt lat="43.95318" lon="5.44317">
        <ele>634</ele>
        <time>2019-02-18T10:05:10+01:00</time>
      </trkpt>
      <trkpt lat="43.95316" lon="5.44337">
        <ele>635</ele>
        <time>2019-02-18T10:05:27+01:00</time>
      </trkpt>
      <trkpt lat="43.95317" lon="5.4435">
        <ele>636</ele>
        <time>2019-02-18T10:05:39+01:00</time>
      </trkpt>
      <trkpt lat="43.95323" lon="5.44365">
        <ele>639</ele>
        <time>2019-02-18T10:05:54+01:00</time>
      </trkpt>
      <trkpt lat="43.95336" lon="5.44358">
        <ele>642</ele>
        <time>2019-02-18T10:06:10+01:00</time>
      </trkpt>
      <trkpt lat="43.95344" lon="5.44366">
        <ele>646</ele>
        <time>2019-02-18T10:06:25+01:00</time>
      </trkpt>
      <trkpt lat="43.95345" lon="5.44385">
        <ele>648</ele>
        <time>2019-02-18T10:06:41+01:00</time>
      </trkpt>
      <trkpt lat="43.95351" lon="5.44406">
        <ele>652</ele>
        <time>2019-02-18T10:07:00+01:00</time>
      </trkpt>
      <trkpt lat="43.95357" lon="5.44423">
        <ele>655</ele>
        <time>2019-02-18T10:07:17+01:00</time>
      </trkpt>
      <trkpt lat="43.9536" lon="5.44431">
        <ele>657</ele>
        <time>2019-02-18T10:07:33+01:00</time>
      </trkpt>
      <trkpt lat="43.95365" lon="5.44443">
        <ele>659</ele>
        <time>2019-02-18T10:07:47+01:00</time>
      </trkpt>
      <trkpt lat="43.9537" lon="5.44462">
        <ele>661</ele>
        <time>2019-02-18T10:08:05+01:00</time>
      </trkpt>
      <trkpt lat="43.95376" lon="5.4448">
        <ele>664</ele>
        <time>2019-02-18T10:08:22+01:00</time>
      </trkpt>
      <trkpt lat="43.95383" lon="5.44497">
        <ele>666</ele>
        <time>2019-02-18T10:08:39+01:00</time>
      </trkpt>
      <trkpt lat="43.95391" lon="5.4451">
        <ele>669</ele>
        <time>2019-02-18T10:08:55+01:00</time>
      </trkpt>
      <trkpt lat="43.95401" lon="5.44516">
        <ele>672</ele>
        <time>2019-02-18T10:09:09+01:00</time>
      </trkpt>
      <trkpt lat="43.9541" lon="5.44517">
        <ele>674</ele>
        <time>2019-02-18T10:09:23+01:00</time>
      </trkpt>
      <trkpt lat="43.95421" lon="5.44518">
        <ele>677</ele>
        <time>2019-02-18T10:09:38+01:00</time>
      </trkpt>
      <trkpt lat="43.95421" lon="5.44517">
        <ele>677</ele>
        <time>2019-02-18T10:09:55+01:00</time>
      </trkpt>
      <trkpt lat="43.95422" lon="5.44517">
        <ele>677</ele>
        <time>2019-02-18T10:10:17+01:00</time>
      </trkpt>
      <trkpt lat="43.95422" lon="5.44517">
        <ele>677</ele>
        <time>2019-02-18T10:10:37+01:00</time>
      </trkpt>
      <trkpt lat="43.9543" lon="5.44522">
        <ele>679</ele>
        <time>2019-02-18T10:10:52+01:00</time>
      </trkpt>
      <trkpt lat="43.95434" lon="5.44525">
        <ele>680</ele>
        <time>2019-02-18T10:11:02+01:00</time>
      </trkpt>
      <trkpt lat="43.95434" lon="5.44527">
        <ele>680</ele>
        <time>2019-02-18T10:11:19+01:00</time>
      </trkpt>
      <trkpt lat="43.95445" lon="5.44533">
        <ele>683</ele>
        <time>2019-02-18T10:11:35+01:00</time>
      </trkpt>
      <trkpt lat="43.95456" lon="5.44544">
        <ele>686</ele>
        <time>2019-02-18T10:11:52+01:00</time>
      </trkpt>
      <trkpt lat="43.95461" lon="5.4455">
        <ele>688</ele>
        <time>2019-02-18T10:12:00+01:00</time>
      </trkpt>
      <trkpt lat="43.95468" lon="5.4456">
        <ele>690</ele>
        <time>2019-02-18T10:12:16+01:00</time>
      </trkpt>
      <trkpt lat="43.9547" lon="5.44561">
        <ele>691</ele>
        <time>2019-02-18T10:12:30+01:00</time>
      </trkpt>
      <trkpt lat="43.95477" lon="5.44565">
        <ele>693</ele>
        <time>2019-02-18T10:12:45+01:00</time>
      </trkpt>
      <trkpt lat="43.95488" lon="5.44574">
        <ele>695</ele>
        <time>2019-02-18T10:13:02+01:00</time>
      </trkpt>
      <trkpt lat="43.955" lon="5.44583">
        <ele>698</ele>
        <time>2019-02-18T10:13:19+01:00</time>
      </trkpt>
      <trkpt lat="43.95511" lon="5.44593">
        <ele>701</ele>
        <time>2019-02-18T10:13:36+01:00</time>
      </trkpt>
      <trkpt lat="43.95521" lon="5.446">
        <ele>704</ele>
        <time>2019-02-18T10:13:52+01:00</time>
      </trkpt>
      <trkpt lat="43.95533" lon="5.44609">
        <ele>707</ele>
        <time>2019-02-18T10:14:10+01:00</time>
      </trkpt>
      <trkpt lat="43.95543" lon="5.44618">
        <ele>709</ele>
        <time>2019-02-18T10:14:27+01:00</time>
      </trkpt>
      <trkpt lat="43.95556" lon="5.44625">
        <ele>711</ele>
        <time>2019-02-18T10:14:45+01:00</time>
      </trkpt>
      <trkpt lat="43.95568" lon="5.4463">
        <ele>713</ele>
        <time>2019-02-18T10:15:00+01:00</time>
      </trkpt>
      <trkpt lat="43.95578" lon="5.44634">
        <ele>715</ele>
        <time>2019-02-18T10:15:15+01:00</time>
      </trkpt>
      <trkpt lat="43.95589" lon="5.4464">
        <ele>717</ele>
        <time>2019-02-18T10:15:30+01:00</time>
      </trkpt>
      <trkpt lat="43.95596" lon="5.44646">
        <ele>717</ele>
        <time>2019-02-18T10:15:44+01:00</time>
      </trkpt>
      <trkpt lat="43.95597" lon="5.44646">
        <ele>717</ele>
        <time>2019-02-18T10:15:59+01:00</time>
      </trkpt>
      <trkpt lat="43.95597" lon="5.44644">
        <ele>718</ele>
        <time>2019-02-18T10:16:34+01:00</time>
      </trkpt>
      <trkpt lat="43.95597" lon="5.44645">
        <ele>717</ele>
        <time>2019-02-18T10:16:49+01:00</time>
      </trkpt>
      <trkpt lat="43.95602" lon="5.44647">
        <ele>718</ele>
        <time>2019-02-18T10:17:03+01:00</time>
      </trkpt>
      <trkpt lat="43.95615" lon="5.44658">
        <ele>720</ele>
        <time>2019-02-18T10:17:19+01:00</time>
      </trkpt>
      <trkpt lat="43.95628" lon="5.44669">
        <ele>722</ele>
        <time>2019-02-18T10:17:34+01:00</time>
      </trkpt>
      <trkpt lat="43.9564" lon="5.44676">
        <ele>724</ele>
        <time>2019-02-18T10:17:49+01:00</time>
      </trkpt>
      <trkpt lat="43.95652" lon="5.44689">
        <ele>726</ele>
        <time>2019-02-18T10:18:05+01:00</time>
      </trkpt>
      <trkpt lat="43.9566" lon="5.44695">
        <ele>727</ele>
        <time>2019-02-18T10:18:13+01:00</time>
      </trkpt>
      <trkpt lat="43.95675" lon="5.44704">
        <ele>730</ele>
        <time>2019-02-18T10:18:30+01:00</time>
      </trkpt>
      <trkpt lat="43.95689" lon="5.4471">
        <ele>733</ele>
        <time>2019-02-18T10:18:45+01:00</time>
      </trkpt>
      <trkpt lat="43.95704" lon="5.44722">
        <ele>735</ele>
        <time>2019-02-18T10:19:01+01:00</time>
      </trkpt>
      <trkpt lat="43.95718" lon="5.44734">
        <ele>737</ele>
        <time>2019-02-18T10:19:16+01:00</time>
      </trkpt>
      <trkpt lat="43.95724" lon="5.44738">
        <ele>738</ele>
        <time>2019-02-18T10:19:22+01:00</time>
      </trkpt>
      <trkpt lat="43.95739" lon="5.44747">
        <ele>741</ele>
        <time>2019-02-18T10:19:37+01:00</time>
      </trkpt>
      <trkpt lat="43.9575" lon="5.44757">
        <ele>743</ele>
        <time>2019-02-18T10:19:51+01:00</time>
      </trkpt>
      <trkpt lat="43.95755" lon="5.44761">
        <ele>744</ele>
        <time>2019-02-18T10:19:54+01:00</time>
      </trkpt>
      <trkpt lat="43.95757" lon="5.44762">
        <ele>744</ele>
        <time>2019-02-18T10:19:55+01:00</time>
      </trkpt>
      <trkpt lat="43.95758" lon="5.44763">
        <ele>744</ele>
        <time>2019-02-18T10:19:56+01:00</time>
      </trkpt>
      <trkpt lat="43.95759" lon="5.44764">
        <ele>745</ele>
        <time>2019-02-18T10:19:57+01:00</time>
      </trkpt>
      <trkpt lat="43.95761" lon="5.44765">
        <ele>745</ele>
        <time>2019-02-18T10:19:58+01:00</time>
      </trkpt>
      <trkpt lat="43.95768" lon="5.44768">
        <ele>746</ele>
        <time>2019-02-18T10:20:11+01:00</time>
      </trkpt>
      <trkpt lat="43.95782" lon="5.44782">
        <ele>749</ele>
        <time>2019-02-18T10:20:25+01:00</time>
      </trkpt>
      <trkpt lat="43.95791" lon="5.44793">
        <ele>750</ele>
        <time>2019-02-18T10:20:35+01:00</time>
      </trkpt>
      <trkpt lat="43.95801" lon="5.44814">
        <ele>752</ele>
        <time>2019-02-18T10:20:52+01:00</time>
      </trkpt>
      <trkpt lat="43.95812" lon="5.44833">
        <ele>754</ele>
        <time>2019-02-18T10:21:08+01:00</time>
      </trkpt>
      <trkpt lat="43.95815" lon="5.4486">
        <ele>756</ele>
        <time>2019-02-18T10:21:26+01:00</time>
      </trkpt>
      <trkpt lat="43.95815" lon="5.44861">
        <ele>756</ele>
        <time>2019-02-18T10:21:27+01:00</time>
      </trkpt>
      <trkpt lat="43.95818" lon="5.44878">
        <ele>756</ele>
        <time>2019-02-18T10:21:41+01:00</time>
      </trkpt>
      <trkpt lat="43.95826" lon="5.44898">
        <ele>756</ele>
        <time>2019-02-18T10:21:58+01:00</time>
      </trkpt>
      <trkpt lat="43.95829" lon="5.44903">
        <ele>756</ele>
        <time>2019-02-18T10:22:04+01:00</time>
      </trkpt>
      <trkpt lat="43.95839" lon="5.44921">
        <ele>757</ele>
        <time>2019-02-18T10:22:20+01:00</time>
      </trkpt>
      <trkpt lat="43.95847" lon="5.44935">
        <ele>758</ele>
        <time>2019-02-18T10:22:36+01:00</time>
      </trkpt>
      <trkpt lat="43.95857" lon="5.44947">
        <ele>760</ele>
        <time>2019-02-18T10:22:49+01:00</time>
      </trkpt>
      <trkpt lat="43.95872" lon="5.44965">
        <ele>761</ele>
        <time>2019-02-18T10:23:08+01:00</time>
      </trkpt>
      <trkpt lat="43.95876" lon="5.4497">
        <ele>762</ele>
        <time>2019-02-18T10:23:22+01:00</time>
      </trkpt>
      <trkpt lat="43.95877" lon="5.44971">
        <ele>762</ele>
        <time>2019-02-18T10:23:23+01:00</time>
      </trkpt>
      <trkpt lat="43.95878" lon="5.44972">
        <ele>762</ele>
        <time>2019-02-18T10:23:24+01:00</time>
      </trkpt>
      <trkpt lat="43.9589" lon="5.44984">
        <ele>764</ele>
        <time>2019-02-18T10:23:40+01:00</time>
      </trkpt>
      <trkpt lat="43.95904" lon="5.44997">
        <ele>765</ele>
        <time>2019-02-18T10:23:57+01:00</time>
      </trkpt>
      <trkpt lat="43.95918" lon="5.45007">
        <ele>767</ele>
        <time>2019-02-18T10:24:15+01:00</time>
      </trkpt>
      <trkpt lat="43.9593" lon="5.45018">
        <ele>767</ele>
        <time>2019-02-18T10:24:30+01:00</time>
      </trkpt>
      <trkpt lat="43.95939" lon="5.45027">
        <ele>768</ele>
        <time>2019-02-18T10:24:40+01:00</time>
      </trkpt>
      <trkpt lat="43.95953" lon="5.45035">
        <ele>769</ele>
        <time>2019-02-18T10:24:57+01:00</time>
      </trkpt>
      <trkpt lat="43.95966" lon="5.45042">
        <ele>771</ele>
        <time>2019-02-18T10:25:12+01:00</time>
      </trkpt>
      <trkpt lat="43.95974" lon="5.45047">
        <ele>772</ele>
        <time>2019-02-18T10:25:21+01:00</time>
      </trkpt>
      <trkpt lat="43.95985" lon="5.45053">
        <ele>772</ele>
        <time>2019-02-18T10:25:32+01:00</time>
      </trkpt>
      <trkpt lat="43.95998" lon="5.45069">
        <ele>771</ele>
        <time>2019-02-18T10:25:49+01:00</time>
      </trkpt>
      <trkpt lat="43.96001" lon="5.45072">
        <ele>771</ele>
        <time>2019-02-18T10:25:53+01:00</time>
      </trkpt>
      <trkpt lat="43.96003" lon="5.45072">
        <ele>771</ele>
        <time>2019-02-18T10:25:54+01:00</time>
      </trkpt>
      <trkpt lat="43.96024" lon="5.45083">
        <ele>773</ele>
        <time>2019-02-18T10:26:12+01:00</time>
      </trkpt>
      <trkpt lat="43.96034" lon="5.45087">
        <ele>773</ele>
        <time>2019-02-18T10:26:22+01:00</time>
      </trkpt>
      <trkpt lat="43.96051" lon="5.45096">
        <ele>773</ele>
        <time>2019-02-18T10:26:38+01:00</time>
      </trkpt>
      <trkpt lat="43.96054" lon="5.45097">
        <ele>773</ele>
        <time>2019-02-18T10:26:42+01:00</time>
      </trkpt>
      <trkpt lat="43.9607" lon="5.451">
        <ele>775</ele>
        <time>2019-02-18T10:26:59+01:00</time>
      </trkpt>
      <trkpt lat="43.96085" lon="5.45103">
        <ele>776</ele>
        <time>2019-02-18T10:27:14+01:00</time>
      </trkpt>
      <trkpt lat="43.96097" lon="5.45105">
        <ele>778</ele>
        <time>2019-02-18T10:27:30+01:00</time>
      </trkpt>
      <trkpt lat="43.9611" lon="5.45109">
        <ele>778</ele>
        <time>2019-02-18T10:27:46+01:00</time>
      </trkpt>
      <trkpt lat="43.96118" lon="5.4511">
        <ele>780</ele>
        <time>2019-02-18T10:27:58+01:00</time>
      </trkpt>
      <trkpt lat="43.96127" lon="5.45107">
        <ele>783</ele>
        <time>2019-02-18T10:28:11+01:00</time>
      </trkpt>
      <trkpt lat="43.96129" lon="5.45106">
        <ele>784</ele>
        <time>2019-02-18T10:28:16+01:00</time>
      </trkpt>
      <trkpt lat="43.96131" lon="5.45106">
        <ele>784</ele>
        <time>2019-02-18T10:28:17+01:00</time>
      </trkpt>
      <trkpt lat="43.96133" lon="5.45106">
        <ele>784</ele>
        <time>2019-02-18T10:28:21+01:00</time>
      </trkpt>
      <trkpt lat="43.96134" lon="5.45108">
        <ele>784</ele>
        <time>2019-02-18T10:28:33+01:00</time>
      </trkpt>
      <trkpt lat="43.96143" lon="5.45107">
        <ele>786</ele>
        <time>2019-02-18T10:28:50+01:00</time>
      </trkpt>
      <trkpt lat="43.96148" lon="5.45108">
        <ele>787</ele>
        <time>2019-02-18T10:28:56+01:00</time>
      </trkpt>
      <trkpt lat="43.96162" lon="5.45106">
        <ele>791</ele>
        <time>2019-02-18T10:29:12+01:00</time>
      </trkpt>
      <trkpt lat="43.96161" lon="5.45102">
        <ele>792</ele>
        <time>2019-02-18T10:29:14+01:00</time>
      </trkpt>
      <trkpt lat="43.96156" lon="5.45097">
        <ele>793</ele>
        <time>2019-02-18T10:29:27+01:00</time>
      </trkpt>
      <trkpt lat="43.96149" lon="5.45088">
        <ele>794</ele>
        <time>2019-02-18T10:29:47+01:00</time>
      </trkpt>
      <trkpt lat="43.96147" lon="5.45084">
        <ele>794</ele>
        <time>2019-02-18T10:30:05+01:00</time>
      </trkpt>
      <trkpt lat="43.96141" lon="5.45077">
        <ele>795</ele>
        <time>2019-02-18T10:30:23+01:00</time>
      </trkpt>
      <trkpt lat="43.96135" lon="5.45072">
        <ele>795</ele>
        <time>2019-02-18T10:30:46+01:00</time>
      </trkpt>
      <trkpt lat="43.96131" lon="5.45071">
        <ele>794</ele>
        <time>2019-02-18T10:31:16+01:00</time>
      </trkpt>
      <trkpt lat="43.96129" lon="5.45063">
        <ele>796</ele>
        <time>2019-02-18T10:31:31+01:00</time>
      </trkpt>
      <trkpt lat="43.9613" lon="5.45065">
        <ele>795</ele>
        <time>2019-02-18T10:31:52+01:00</time>
      </trkpt>
      <trkpt lat="43.9613" lon="5.45069">
        <ele>794</ele>
        <time>2019-02-18T10:32:09+01:00</time>
      </trkpt>
      <trkpt lat="43.96134" lon="5.45072">
        <ele>795</ele>
        <time>2019-02-18T10:32:22+01:00</time>
      </trkpt>
      <trkpt lat="43.96135" lon="5.4507">
        <ele>795</ele>
        <time>2019-02-18T10:32:30+01:00</time>
      </trkpt>
      <trkpt lat="43.96134" lon="5.45071">
        <ele>795</ele>
        <time>2019-02-18T10:32:31+01:00</time>
      </trkpt>
      <trkpt lat="43.96116" lon="5.45071">
        <ele>791</ele>
        <time>2019-02-18T10:32:47+01:00</time>
      </trkpt>
      <trkpt lat="43.96117" lon="5.45064">
        <ele>793</ele>
        <time>2019-02-18T10:33:03+01:00</time>
      </trkpt>
      <trkpt lat="43.96107" lon="5.45065">
        <ele>791</ele>
        <time>2019-02-18T10:33:17+01:00</time>
      </trkpt>
      <trkpt lat="43.96096" lon="5.45065">
        <ele>789</ele>
        <time>2019-02-18T10:33:31+01:00</time>
      </trkpt>
      <trkpt lat="43.96091" lon="5.45062">
        <ele>789</ele>
        <time>2019-02-18T10:33:45+01:00</time>
      </trkpt>
      <trkpt lat="43.96093" lon="5.45066">
        <ele>788</ele>
        <time>2019-02-18T10:33:58+01:00</time>
      </trkpt>
      <trkpt lat="43.96094" lon="5.45066">
        <ele>788</ele>
        <time>2019-02-18T10:33:59+01:00</time>
      </trkpt>
      <trkpt lat="43.961" lon="5.45064">
        <ele>790</ele>
        <time>2019-02-18T10:34:11+01:00</time>
      </trkpt>
      <trkpt lat="43.96104" lon="5.45062">
        <ele>791</ele>
        <time>2019-02-18T10:34:25+01:00</time>
      </trkpt>
      <trkpt lat="43.96105" lon="5.45054">
        <ele>793</ele>
        <time>2019-02-18T10:34:53+01:00</time>
      </trkpt>
      <trkpt lat="43.96102" lon="5.45077">
        <ele>787</ele>
        <time>2019-02-18T10:36:05+01:00</time>
      </trkpt>
      <trkpt lat="43.96104" lon="5.45077">
        <ele>787</ele>
        <time>2019-02-18T10:36:18+01:00</time>
      </trkpt>
      <trkpt lat="43.96102" lon="5.45076">
        <ele>787</ele>
        <time>2019-02-18T10:36:32+01:00</time>
      </trkpt>
      <trkpt lat="43.96106" lon="5.45068">
        <ele>790</ele>
        <time>2019-02-18T10:36:49+01:00</time>
      </trkpt>
      <trkpt lat="43.96108" lon="5.45067">
        <ele>791</ele>
        <time>2019-02-18T10:37:02+01:00</time>
      </trkpt>
      <trkpt lat="43.96113" lon="5.4507">
        <ele>791</ele>
        <time>2019-02-18T10:37:17+01:00</time>
      </trkpt>
      <trkpt lat="43.96114" lon="5.45071">
        <ele>791</ele>
        <time>2019-02-18T10:37:18+01:00</time>
      </trkpt>
      <trkpt lat="43.96126" lon="5.45076">
        <ele>792</ele>
        <time>2019-02-18T10:37:34+01:00</time>
      </trkpt>
      <trkpt lat="43.96134" lon="5.45069">
        <ele>795</ele>
        <time>2019-02-18T10:37:51+01:00</time>
      </trkpt>
      <trkpt lat="43.96134" lon="5.45064">
        <ele>796</ele>
        <time>2019-02-18T10:38:04+01:00</time>
      </trkpt>
      <trkpt lat="43.96132" lon="5.45069">
        <ele>795</ele>
        <time>2019-02-18T10:38:18+01:00</time>
      </trkpt>
      <trkpt lat="43.96126" lon="5.45071">
        <ele>793</ele>
        <time>2019-02-18T10:38:47+01:00</time>
      </trkpt>
      <trkpt lat="43.96127" lon="5.45076">
        <ele>792</ele>
        <time>2019-02-18T10:39:07+01:00</time>
      </trkpt>
      <trkpt lat="43.96126" lon="5.45071">
        <ele>793</ele>
        <time>2019-02-18T10:39:23+01:00</time>
      </trkpt>
      <trkpt lat="43.96121" lon="5.45075">
        <ele>791</ele>
        <time>2019-02-18T10:39:59+01:00</time>
      </trkpt>
      <trkpt lat="43.96111" lon="5.4508">
        <ele>788</ele>
        <time>2019-02-18T10:40:16+01:00</time>
      </trkpt>
      <trkpt lat="43.96098" lon="5.45072">
        <ele>787</ele>
        <time>2019-02-18T10:40:33+01:00</time>
      </trkpt>
      <trkpt lat="43.9609" lon="5.45066">
        <ele>787</ele>
        <time>2019-02-18T10:40:49+01:00</time>
      </trkpt>
      <trkpt lat="43.9609" lon="5.45066">
        <ele>787</ele>
        <time>2019-02-18T10:41:03+01:00</time>
      </trkpt>
      <trkpt lat="43.96089" lon="5.45068">
        <ele>786</ele>
        <time>2019-02-18T10:41:17+01:00</time>
      </trkpt>
      <trkpt lat="43.96086" lon="5.45064">
        <ele>787</ele>
        <time>2019-02-18T10:41:33+01:00</time>
      </trkpt>
      <trkpt lat="43.96077" lon="5.45057">
        <ele>787</ele>
        <time>2019-02-18T10:41:47+01:00</time>
      </trkpt>
      <trkpt lat="43.96079" lon="5.45056">
        <ele>788</ele>
        <time>2019-02-18T10:41:51+01:00</time>
      </trkpt>
      <trkpt lat="43.96086" lon="5.45058">
        <ele>789</ele>
        <time>2019-02-18T10:41:57+01:00</time>
      </trkpt>
      <trkpt lat="43.9609" lon="5.45058">
        <ele>789</ele>
        <time>2019-02-18T10:42:08+01:00</time>
      </trkpt>
      <trkpt lat="43.96093" lon="5.45057">
        <ele>790</ele>
        <time>2019-02-18T10:42:21+01:00</time>
      </trkpt>
      <trkpt lat="43.96098" lon="5.45059">
        <ele>791</ele>
        <time>2019-02-18T10:42:32+01:00</time>
      </trkpt>
      <trkpt lat="43.96105" lon="5.4506">
        <ele>792</ele>
        <time>2019-02-18T10:42:43+01:00</time>
      </trkpt>
      <trkpt lat="43.96105" lon="5.45061">
        <ele>792</ele>
        <time>2019-02-18T10:42:59+01:00</time>
      </trkpt>
      <trkpt lat="43.96108" lon="5.45061">
        <ele>792</ele>
        <time>2019-02-18T10:43:25+01:00</time>
      </trkpt>
      <trkpt lat="43.96111" lon="5.4506">
        <ele>793</ele>
        <time>2019-02-18T10:43:37+01:00</time>
      </trkpt>
      <trkpt lat="43.96111" lon="5.45056">
        <ele>794</ele>
        <time>2019-02-18T10:43:57+01:00</time>
      </trkpt>
      <trkpt lat="43.96113" lon="5.45054">
        <ele>795</ele>
        <time>2019-02-18T10:44:15+01:00</time>
      </trkpt>
      <trkpt lat="43.96121" lon="5.4506">
        <ele>795</ele>
        <time>2019-02-18T10:44:28+01:00</time>
      </trkpt>
      <trkpt lat="43.96119" lon="5.45062">
        <ele>794</ele>
        <time>2019-02-18T10:44:45+01:00</time>
      </trkpt>
      <trkpt lat="43.96117" lon="5.4506">
        <ele>794</ele>
        <time>2019-02-18T10:45:04+01:00</time>
      </trkpt>
      <trkpt lat="43.96115" lon="5.45058">
        <ele>794</ele>
        <time>2019-02-18T10:45:30+01:00</time>
      </trkpt>
      <trkpt lat="43.96113" lon="5.45056">
        <ele>794</ele>
        <time>2019-02-18T10:45:48+01:00</time>
      </trkpt>
      <trkpt lat="43.9611" lon="5.45055">
        <ele>794</ele>
        <time>2019-02-18T10:46:01+01:00</time>
      </trkpt>
      <trkpt lat="43.96109" lon="5.45058">
        <ele>793</ele>
        <time>2019-02-18T10:46:15+01:00</time>
      </trkpt>
      <trkpt lat="43.96109" lon="5.45061">
        <ele>792</ele>
        <time>2019-02-18T10:46:29+01:00</time>
      </trkpt>
      <trkpt lat="43.96104" lon="5.4506">
        <ele>792</ele>
        <time>2019-02-18T10:46:45+01:00</time>
      </trkpt>
      <trkpt lat="43.96096" lon="5.45059">
        <ele>790</ele>
        <time>2019-02-18T10:47:02+01:00</time>
      </trkpt>
      <trkpt lat="43.96093" lon="5.45057">
        <ele>790</ele>
        <time>2019-02-18T10:47:20+01:00</time>
      </trkpt>
      <trkpt lat="43.96091" lon="5.45058">
        <ele>790</ele>
        <time>2019-02-18T10:47:37+01:00</time>
      </trkpt>
      <trkpt lat="43.96089" lon="5.45058">
        <ele>789</ele>
        <time>2019-02-18T10:47:45+01:00</time>
      </trkpt>
      <trkpt lat="43.96077" lon="5.45059">
        <ele>787</ele>
        <time>2019-02-18T10:48:01+01:00</time>
      </trkpt>
      <trkpt lat="43.96083" lon="5.45062">
        <ele>787</ele>
        <time>2019-02-18T10:48:15+01:00</time>
      </trkpt>
      <trkpt lat="43.96082" lon="5.45066">
        <ele>786</ele>
        <time>2019-02-18T10:48:28+01:00</time>
      </trkpt>
      <trkpt lat="43.96086" lon="5.45069">
        <ele>786</ele>
        <time>2019-02-18T10:48:33+01:00</time>
      </trkpt>
      <trkpt lat="43.96094" lon="5.45069">
        <ele>787</ele>
        <time>2019-02-18T10:48:46+01:00</time>
      </trkpt>
      <trkpt lat="43.96097" lon="5.45066">
        <ele>789</ele>
        <time>2019-02-18T10:48:52+01:00</time>
      </trkpt>
      <trkpt lat="43.96105" lon="5.4507">
        <ele>789</ele>
        <time>2019-02-18T10:49:05+01:00</time>
      </trkpt>
      <trkpt lat="43.96116" lon="5.45067">
        <ele>792</ele>
        <time>2019-02-18T10:49:18+01:00</time>
      </trkpt>
      <trkpt lat="43.96132" lon="5.45073">
        <ele>794</ele>
        <time>2019-02-18T10:49:37+01:00</time>
      </trkpt>
      <trkpt lat="43.96135" lon="5.4508">
        <ele>793</ele>
        <time>2019-02-18T10:49:54+01:00</time>
      </trkpt>
      <trkpt lat="43.96135" lon="5.45087">
        <ele>791</ele>
        <time>2019-02-18T10:50:16+01:00</time>
      </trkpt>
      <trkpt lat="43.96122" lon="5.45075">
        <ele>792</ele>
        <time>2019-02-18T10:50:36+01:00</time>
      </trkpt>
      <trkpt lat="43.96105" lon="5.45068">
        <ele>790</ele>
        <time>2019-02-18T10:50:54+01:00</time>
      </trkpt>
      <trkpt lat="43.96096" lon="5.45062">
        <ele>790</ele>
        <time>2019-02-18T10:51:08+01:00</time>
      </trkpt>
      <trkpt lat="43.96097" lon="5.45063">
        <ele>789</ele>
        <time>2019-02-18T10:51:20+01:00</time>
      </trkpt>
      <trkpt lat="43.96098" lon="5.45061">
        <ele>790</ele>
        <time>2019-02-18T10:51:37+01:00</time>
      </trkpt>
      <trkpt lat="43.96088" lon="5.45062">
        <ele>788</ele>
        <time>2019-02-18T10:52:03+01:00</time>
      </trkpt>
      <trkpt lat="43.96082" lon="5.45058">
        <ele>788</ele>
        <time>2019-02-18T10:52:13+01:00</time>
      </trkpt>
      <trkpt lat="43.96071" lon="5.45055">
        <ele>787</ele>
        <time>2019-02-18T10:52:27+01:00</time>
      </trkpt>
      <trkpt lat="43.96067" lon="5.45049">
        <ele>787</ele>
        <time>2019-02-18T10:52:34+01:00</time>
      </trkpt>
      <trkpt lat="43.96065" lon="5.45043">
        <ele>788</ele>
        <time>2019-02-18T10:52:41+01:00</time>
      </trkpt>
      <trkpt lat="43.96066" lon="5.45041">
        <ele>788</ele>
        <time>2019-02-18T10:52:44+01:00</time>
      </trkpt>
      <trkpt lat="43.96062" lon="5.45032">
        <ele>789</ele>
        <time>2019-02-18T10:52:56+01:00</time>
      </trkpt>
      <trkpt lat="43.96057" lon="5.45017">
        <ele>791</ele>
        <time>2019-02-18T10:53:14+01:00</time>
      </trkpt>
      <trkpt lat="43.96057" lon="5.45016">
        <ele>791</ele>
        <time>2019-02-18T10:53:15+01:00</time>
      </trkpt>
      <trkpt lat="43.96052" lon="5.45002">
        <ele>792</ele>
        <time>2019-02-18T10:53:29+01:00</time>
      </trkpt>
      <trkpt lat="43.96048" lon="5.44997">
        <ele>792</ele>
        <time>2019-02-18T10:53:34+01:00</time>
      </trkpt>
      <trkpt lat="43.96038" lon="5.44977">
        <ele>793</ele>
        <time>2019-02-18T10:53:51+01:00</time>
      </trkpt>
      <trkpt lat="43.96029" lon="5.4496">
        <ele>793</ele>
        <time>2019-02-18T10:54:07+01:00</time>
      </trkpt>
      <trkpt lat="43.96021" lon="5.44941">
        <ele>792</ele>
        <time>2019-02-18T10:54:21+01:00</time>
      </trkpt>
      <trkpt lat="43.96021" lon="5.44907">
        <ele>794</ele>
        <time>2019-02-18T10:54:41+01:00</time>
      </trkpt>
      <trkpt lat="43.96023" lon="5.44878">
        <ele>794</ele>
        <time>2019-02-18T10:55:00+01:00</time>
      </trkpt>
      <trkpt lat="43.96025" lon="5.44863">
        <ele>795</ele>
        <time>2019-02-18T10:55:09+01:00</time>
      </trkpt>
      <trkpt lat="43.96034" lon="5.4484">
        <ele>795</ele>
        <time>2019-02-18T10:55:26+01:00</time>
      </trkpt>
      <trkpt lat="43.96035" lon="5.44815">
        <ele>794</ele>
        <time>2019-02-18T10:55:41+01:00</time>
      </trkpt>
      <trkpt lat="43.96033" lon="5.44806">
        <ele>794</ele>
        <time>2019-02-18T10:55:47+01:00</time>
      </trkpt>
      <trkpt lat="43.96033" lon="5.44784">
        <ele>793</ele>
        <time>2019-02-18T10:56:00+01:00</time>
      </trkpt>
      <trkpt lat="43.96032" lon="5.44769">
        <ele>792</ele>
        <time>2019-02-18T10:56:09+01:00</time>
      </trkpt>
      <trkpt lat="43.96031" lon="5.44765">
        <ele>792</ele>
        <time>2019-02-18T10:56:12+01:00</time>
      </trkpt>
      <trkpt lat="43.96029" lon="5.44753">
        <ele>791</ele>
        <time>2019-02-18T10:56:20+01:00</time>
      </trkpt>
      <trkpt lat="43.96029" lon="5.4475">
        <ele>791</ele>
        <time>2019-02-18T10:56:22+01:00</time>
      </trkpt>
      <trkpt lat="43.9603" lon="5.44737">
        <ele>791</ele>
        <time>2019-02-18T10:56:30+01:00</time>
      </trkpt>
      <trkpt lat="43.96029" lon="5.44723">
        <ele>790</ele>
        <time>2019-02-18T10:56:39+01:00</time>
      </trkpt>
      <trkpt lat="43.9603" lon="5.44711">
        <ele>790</ele>
        <time>2019-02-18T10:56:47+01:00</time>
      </trkpt>
      <trkpt lat="43.9603" lon="5.44687">
        <ele>789</ele>
        <time>2019-02-18T10:57:04+01:00</time>
      </trkpt>
      <trkpt lat="43.96029" lon="5.44652">
        <ele>786</ele>
        <time>2019-02-18T10:57:25+01:00</time>
      </trkpt>
      <trkpt lat="43.96028" lon="5.44627">
        <ele>784</ele>
        <time>2019-02-18T10:57:41+01:00</time>
      </trkpt>
      <trkpt lat="43.96035" lon="5.44603">
        <ele>783</ele>
        <time>2019-02-18T10:57:57+01:00</time>
      </trkpt>
      <trkpt lat="43.96046" lon="5.4458">
        <ele>782</ele>
        <time>2019-02-18T10:58:15+01:00</time>
      </trkpt>
      <trkpt lat="43.96061" lon="5.44558">
        <ele>781</ele>
        <time>2019-02-18T10:58:32+01:00</time>
      </trkpt>
      <trkpt lat="43.96072" lon="5.44539">
        <ele>780</ele>
        <time>2019-02-18T10:58:48+01:00</time>
      </trkpt>
      <trkpt lat="43.96078" lon="5.44532">
        <ele>779</ele>
        <time>2019-02-18T10:59:04+01:00</time>
      </trkpt>
      <trkpt lat="43.96075" lon="5.44536">
        <ele>779</ele>
        <time>2019-02-18T10:59:19+01:00</time>
      </trkpt>
      <trkpt lat="43.96077" lon="5.44527">
        <ele>778</ele>
        <time>2019-02-18T10:59:36+01:00</time>
      </trkpt>
      <trkpt lat="43.96078" lon="5.44526">
        <ele>778</ele>
        <time>2019-02-18T10:59:37+01:00</time>
      </trkpt>
      <trkpt lat="43.96082" lon="5.44521">
        <ele>778</ele>
        <time>2019-02-18T10:59:43+01:00</time>
      </trkpt>
      <trkpt lat="43.96093" lon="5.44518">
        <ele>778</ele>
        <time>2019-02-18T10:59:57+01:00</time>
      </trkpt>
      <trkpt lat="43.96103" lon="5.44527">
        <ele>780</ele>
        <time>2019-02-18T11:00:11+01:00</time>
      </trkpt>
      <trkpt lat="43.96111" lon="5.4452">
        <ele>779</ele>
        <time>2019-02-18T11:00:25+01:00</time>
      </trkpt>
      <trkpt lat="43.96113" lon="5.44503">
        <ele>777</ele>
        <time>2019-02-18T11:00:39+01:00</time>
      </trkpt>
      <trkpt lat="43.96109" lon="5.44505">
        <ele>777</ele>
        <time>2019-02-18T11:00:52+01:00</time>
      </trkpt>
      <trkpt lat="43.96113" lon="5.44515">
        <ele>778</ele>
        <time>2019-02-18T11:01:02+01:00</time>
      </trkpt>
      <trkpt lat="43.9611" lon="5.44525">
        <ele>780</ele>
        <time>2019-02-18T11:01:10+01:00</time>
      </trkpt>
      <trkpt lat="43.96105" lon="5.44526">
        <ele>780</ele>
        <time>2019-02-18T11:01:15+01:00</time>
      </trkpt>
      <trkpt lat="43.96094" lon="5.44519">
        <ele>778</ele>
        <time>2019-02-18T11:01:31+01:00</time>
      </trkpt>
      <trkpt lat="43.96093" lon="5.44518">
        <ele>778</ele>
        <time>2019-02-18T11:01:33+01:00</time>
      </trkpt>
      <trkpt lat="43.96083" lon="5.4452">
        <ele>778</ele>
        <time>2019-02-18T11:01:48+01:00</time>
      </trkpt>
      <trkpt lat="43.96078" lon="5.44527">
        <ele>778</ele>
        <time>2019-02-18T11:01:56+01:00</time>
      </trkpt>
      <trkpt lat="43.96078" lon="5.44534">
        <ele>779</ele>
        <time>2019-02-18T11:02:10+01:00</time>
      </trkpt>
      <trkpt lat="43.96079" lon="5.44531">
        <ele>779</ele>
        <time>2019-02-18T11:02:25+01:00</time>
      </trkpt>
      <trkpt lat="43.96077" lon="5.4453">
        <ele>779</ele>
        <time>2019-02-18T11:02:44+01:00</time>
      </trkpt>
      <trkpt lat="43.96077" lon="5.4453">
        <ele>779</ele>
        <time>2019-02-18T11:03:01+01:00</time>
      </trkpt>
      <trkpt lat="43.96075" lon="5.44528">
        <ele>778</ele>
        <time>2019-02-18T11:03:13+01:00</time>
      </trkpt>
      <trkpt lat="43.96071" lon="5.44524">
        <ele>778</ele>
        <time>2019-02-18T11:03:26+01:00</time>
      </trkpt>
      <trkpt lat="43.96065" lon="5.44516">
        <ele>776</ele>
        <time>2019-02-18T11:03:41+01:00</time>
      </trkpt>
      <trkpt lat="43.96056" lon="5.44502">
        <ele>773</ele>
        <time>2019-02-18T11:03:55+01:00</time>
      </trkpt>
      <trkpt lat="43.96051" lon="5.44496">
        <ele>772</ele>
        <time>2019-02-18T11:04:01+01:00</time>
      </trkpt>
      <trkpt lat="43.96041" lon="5.44486">
        <ele>771</ele>
        <time>2019-02-18T11:04:12+01:00</time>
      </trkpt>
      <trkpt lat="43.96029" lon="5.44475">
        <ele>768</ele>
        <time>2019-02-18T11:04:27+01:00</time>
      </trkpt>
      <trkpt lat="43.96018" lon="5.44466">
        <ele>766</ele>
        <time>2019-02-18T11:04:40+01:00</time>
      </trkpt>
      <trkpt lat="43.96011" lon="5.44457">
        <ele>763</ele>
        <time>2019-02-18T11:04:55+01:00</time>
      </trkpt>
      <trkpt lat="43.96" lon="5.44446">
        <ele>759</ele>
        <time>2019-02-18T11:05:12+01:00</time>
      </trkpt>
      <trkpt lat="43.95987" lon="5.44436">
        <ele>757</ele>
        <time>2019-02-18T11:05:26+01:00</time>
      </trkpt>
      <trkpt lat="43.95976" lon="5.44428">
        <ele>754</ele>
        <time>2019-02-18T11:05:41+01:00</time>
      </trkpt>
      <trkpt lat="43.95963" lon="5.4442">
        <ele>752</ele>
        <time>2019-02-18T11:05:55+01:00</time>
      </trkpt>
      <trkpt lat="43.95952" lon="5.44412">
        <ele>750</ele>
        <time>2019-02-18T11:06:11+01:00</time>
      </trkpt>
      <trkpt lat="43.95942" lon="5.444">
        <ele>747</ele>
        <time>2019-02-18T11:06:27+01:00</time>
      </trkpt>
      <trkpt lat="43.9593" lon="5.44391">
        <ele>744</ele>
        <time>2019-02-18T11:06:44+01:00</time>
      </trkpt>
      <trkpt lat="43.9592" lon="5.44383">
        <ele>741</ele>
        <time>2019-02-18T11:06:57+01:00</time>
      </trkpt>
      <trkpt lat="43.95906" lon="5.44375">
        <ele>738</ele>
        <time>2019-02-18T11:07:13+01:00</time>
      </trkpt>
      <trkpt lat="43.95896" lon="5.44365">
        <ele>736</ele>
        <time>2019-02-18T11:09:15+01:00</time>
      </trkpt>
      <trkpt lat="43.95896" lon="5.44362">
        <ele>735</ele>
        <time>2019-02-18T11:09:26+01:00</time>
      </trkpt>
      <trkpt lat="43.95897" lon="5.44364">
        <ele>735</ele>
        <time>2019-02-18T11:09:33+01:00</time>
      </trkpt>
      <trkpt lat="43.95897" lon="5.44365">
        <ele>736</ele>
        <time>2019-02-18T11:09:34+01:00</time>
      </trkpt>
      <trkpt lat="43.95898" lon="5.44368">
        <ele>736</ele>
        <time>2019-02-18T11:09:42+01:00</time>
      </trkpt>
      <trkpt lat="43.95897" lon="5.44334">
        <ele>729</ele>
        <time>2019-02-18T11:09:56+01:00</time>
      </trkpt>
      <trkpt lat="43.95898" lon="5.44348">
        <ele>732</ele>
        <time>2019-02-18T11:11:29+01:00</time>
      </trkpt>
      <trkpt lat="43.95898" lon="5.44347">
        <ele>732</ele>
        <time>2019-02-18T11:11:34+01:00</time>
      </trkpt>
      <trkpt lat="43.95898" lon="5.44346">
        <ele>732</ele>
        <time>2019-02-18T11:11:37+01:00</time>
      </trkpt>
      <trkpt lat="43.95896" lon="5.44342">
        <ele>730</ele>
        <time>2019-02-18T11:11:49+01:00</time>
      </trkpt>
      <trkpt lat="43.95897" lon="5.44341">
        <ele>730</ele>
        <time>2019-02-18T11:11:51+01:00</time>
      </trkpt>
      <trkpt lat="43.95897" lon="5.44339">
        <ele>730</ele>
        <time>2019-02-18T11:11:52+01:00</time>
      </trkpt>
      <trkpt lat="43.95899" lon="5.44333">
        <ele>729</ele>
        <time>2019-02-18T11:12:00+01:00</time>
      </trkpt>
      <trkpt lat="43.959" lon="5.44331">
        <ele>728</ele>
        <time>2019-02-18T11:12:05+01:00</time>
      </trkpt>
      <trkpt lat="43.95901" lon="5.44328">
        <ele>728</ele>
        <time>2019-02-18T11:12:10+01:00</time>
      </trkpt>
      <trkpt lat="43.95901" lon="5.44326">
        <ele>727</ele>
        <time>2019-02-18T11:12:11+01:00</time>
      </trkpt>
      <trkpt lat="43.95901" lon="5.44324">
        <ele>727</ele>
        <time>2019-02-18T11:12:12+01:00</time>
      </trkpt>
      <trkpt lat="43.95902" lon="5.44323">
        <ele>727</ele>
        <time>2019-02-18T11:12:21+01:00</time>
      </trkpt>
      <trkpt lat="43.95901" lon="5.44327">
        <ele>728</ele>
        <time>2019-02-18T11:12:23+01:00</time>
      </trkpt>
      <trkpt lat="43.95898" lon="5.44337">
        <ele>729</ele>
        <time>2019-02-18T11:12:35+01:00</time>
      </trkpt>
      <trkpt lat="43.95898" lon="5.4434">
        <ele>730</ele>
        <time>2019-02-18T11:12:37+01:00</time>
      </trkpt>
      <trkpt lat="43.95896" lon="5.44344">
        <ele>731</ele>
        <time>2019-02-18T11:12:49+01:00</time>
      </trkpt>
      <trkpt lat="43.95897" lon="5.44343">
        <ele>731</ele>
        <time>2019-02-18T11:13:01+01:00</time>
      </trkpt>
      <trkpt lat="43.95897" lon="5.44345">
        <ele>731</ele>
        <time>2019-02-18T11:13:21+01:00</time>
      </trkpt>
      <trkpt lat="43.95901" lon="5.44328">
        <ele>728</ele>
        <time>2019-02-18T11:14:41+01:00</time>
      </trkpt>
      <trkpt lat="43.95906" lon="5.44319">
        <ele>727</ele>
        <time>2019-02-18T11:14:55+01:00</time>
      </trkpt>
      <trkpt lat="43.95909" lon="5.44312">
        <ele>726</ele>
        <time>2019-02-18T11:15:09+01:00</time>
      </trkpt>
      <trkpt lat="43.95909" lon="5.44312">
        <ele>726</ele>
        <time>2019-02-18T11:15:26+01:00</time>
      </trkpt>
      <trkpt lat="43.95908" lon="5.44312">
        <ele>725</ele>
        <time>2019-02-18T11:15:48+01:00</time>
      </trkpt>
      <trkpt lat="43.95917" lon="5.44308">
        <ele>725</ele>
        <time>2019-02-18T11:16:06+01:00</time>
      </trkpt>
      <trkpt lat="43.9592" lon="5.44307">
        <ele>726</ele>
        <time>2019-02-18T11:16:08+01:00</time>
      </trkpt>
      <trkpt lat="43.95921" lon="5.44307">
        <ele>725</ele>
        <time>2019-02-18T11:16:09+01:00</time>
      </trkpt>
      <trkpt lat="43.95933" lon="5.44297">
        <ele>725</ele>
        <time>2019-02-18T11:16:22+01:00</time>
      </trkpt>
      <trkpt lat="43.95946" lon="5.44288">
        <ele>724</ele>
        <time>2019-02-18T11:16:38+01:00</time>
      </trkpt>
      <trkpt lat="43.95955" lon="5.44282">
        <ele>723</ele>
        <time>2019-02-18T11:16:48+01:00</time>
      </trkpt>
      <trkpt lat="43.95967" lon="5.44274">
        <ele>722</ele>
        <time>2019-02-18T11:16:58+01:00</time>
      </trkpt>
      <trkpt lat="43.95974" lon="5.44272">
        <ele>722</ele>
        <time>2019-02-18T11:17:09+01:00</time>
      </trkpt>
      <trkpt lat="43.95977" lon="5.44271">
        <ele>722</ele>
        <time>2019-02-18T11:17:12+01:00</time>
      </trkpt>
      <trkpt lat="43.95978" lon="5.4427">
        <ele>722</ele>
        <time>2019-02-18T11:17:13+01:00</time>
      </trkpt>
      <trkpt lat="43.9598" lon="5.44268">
        <ele>722</ele>
        <time>2019-02-18T11:17:14+01:00</time>
      </trkpt>
      <trkpt lat="43.95982" lon="5.44267">
        <ele>721</ele>
        <time>2019-02-18T11:17:15+01:00</time>
      </trkpt>
      <trkpt lat="43.95984" lon="5.44264">
        <ele>721</ele>
        <time>2019-02-18T11:17:16+01:00</time>
      </trkpt>
      <trkpt lat="43.95986" lon="5.44263">
        <ele>721</ele>
        <time>2019-02-18T11:17:17+01:00</time>
      </trkpt>
      <trkpt lat="43.95987" lon="5.44261">
        <ele>720</ele>
        <time>2019-02-18T11:17:18+01:00</time>
      </trkpt>
      <trkpt lat="43.95989" lon="5.4426">
        <ele>720</ele>
        <time>2019-02-18T11:17:19+01:00</time>
      </trkpt>
      <trkpt lat="43.9599" lon="5.44258">
        <ele>720</ele>
        <time>2019-02-18T11:17:20+01:00</time>
      </trkpt>
      <trkpt lat="43.95991" lon="5.44256">
        <ele>719</ele>
        <time>2019-02-18T11:17:21+01:00</time>
      </trkpt>
      <trkpt lat="43.95992" lon="5.44255">
        <ele>719</ele>
        <time>2019-02-18T11:17:22+01:00</time>
      </trkpt>
      <trkpt lat="43.95993" lon="5.44254">
        <ele>719</ele>
        <time>2019-02-18T11:17:23+01:00</time>
      </trkpt>
      <trkpt lat="43.95994" lon="5.44252">
        <ele>718</ele>
        <time>2019-02-18T11:17:24+01:00</time>
      </trkpt>
      <trkpt lat="43.95998" lon="5.44248">
        <ele>718</ele>
        <time>2019-02-18T11:17:28+01:00</time>
      </trkpt>
      <trkpt lat="43.96001" lon="5.44247">
        <ele>717</ele>
        <time>2019-02-18T11:17:30+01:00</time>
      </trkpt>
      <trkpt lat="43.96003" lon="5.44249">
        <ele>718</ele>
        <time>2019-02-18T11:17:39+01:00</time>
      </trkpt>
      <trkpt lat="43.96005" lon="5.44248">
        <ele>718</ele>
        <time>2019-02-18T11:17:40+01:00</time>
      </trkpt>
      <trkpt lat="43.96008" lon="5.44246">
        <ele>718</ele>
        <time>2019-02-18T11:17:42+01:00</time>
      </trkpt>
      <trkpt lat="43.9601" lon="5.44244">
        <ele>718</ele>
        <time>2019-02-18T11:17:43+01:00</time>
      </trkpt>
      <trkpt lat="43.96012" lon="5.44243">
        <ele>718</ele>
        <time>2019-02-18T11:17:44+01:00</time>
      </trkpt>
      <trkpt lat="43.96015" lon="5.44241">
        <ele>718</ele>
        <time>2019-02-18T11:17:45+01:00</time>
      </trkpt>
      <trkpt lat="43.96018" lon="5.4424">
        <ele>718</ele>
        <time>2019-02-18T11:17:46+01:00</time>
      </trkpt>
      <trkpt lat="43.9602" lon="5.44239">
        <ele>718</ele>
        <time>2019-02-18T11:17:47+01:00</time>
      </trkpt>
      <trkpt lat="43.96022" lon="5.44236">
        <ele>717</ele>
        <time>2019-02-18T11:17:49+01:00</time>
      </trkpt>
      <trkpt lat="43.96024" lon="5.44235">
        <ele>717</ele>
        <time>2019-02-18T11:17:50+01:00</time>
      </trkpt>
      <trkpt lat="43.96025" lon="5.44234">
        <ele>717</ele>
        <time>2019-02-18T11:17:51+01:00</time>
      </trkpt>
      <trkpt lat="43.96026" lon="5.44232">
        <ele>717</ele>
        <time>2019-02-18T11:17:52+01:00</time>
      </trkpt>
      <trkpt lat="43.96028" lon="5.4423">
        <ele>717</ele>
        <time>2019-02-18T11:17:53+01:00</time>
      </trkpt>
      <trkpt lat="43.96028" lon="5.44228">
        <ele>717</ele>
        <time>2019-02-18T11:17:54+01:00</time>
      </trkpt>
      <trkpt lat="43.96031" lon="5.44224">
        <ele>716</ele>
        <time>2019-02-18T11:17:59+01:00</time>
      </trkpt>
      <trkpt lat="43.96038" lon="5.44219">
        <ele>716</ele>
        <time>2019-02-18T11:18:08+01:00</time>
      </trkpt>
      <trkpt lat="43.96039" lon="5.44217">
        <ele>716</ele>
        <time>2019-02-18T11:18:09+01:00</time>
      </trkpt>
      <trkpt lat="43.9604" lon="5.44217">
        <ele>716</ele>
        <time>2019-02-18T11:18:10+01:00</time>
      </trkpt>
      <trkpt lat="43.96041" lon="5.44215">
        <ele>716</ele>
        <time>2019-02-18T11:18:11+01:00</time>
      </trkpt>
      <trkpt lat="43.96042" lon="5.44213">
        <ele>715</ele>
        <time>2019-02-18T11:18:12+01:00</time>
      </trkpt>
      <trkpt lat="43.96045" lon="5.44211">
        <ele>715</ele>
        <time>2019-02-18T11:18:21+01:00</time>
      </trkpt>
      <trkpt lat="43.96046" lon="5.4421">
        <ele>716</ele>
        <time>2019-02-18T11:18:22+01:00</time>
      </trkpt>
      <trkpt lat="43.96048" lon="5.4421">
        <ele>716</ele>
        <time>2019-02-18T11:18:23+01:00</time>
      </trkpt>
      <trkpt lat="43.96049" lon="5.44209">
        <ele>716</ele>
        <time>2019-02-18T11:18:24+01:00</time>
      </trkpt>
      <trkpt lat="43.96056" lon="5.44208">
        <ele>716</ele>
        <time>2019-02-18T11:18:32+01:00</time>
      </trkpt>
      <trkpt lat="43.96058" lon="5.44206">
        <ele>716</ele>
        <time>2019-02-18T11:18:36+01:00</time>
      </trkpt>
      <trkpt lat="43.96059" lon="5.44203">
        <ele>716</ele>
        <time>2019-02-18T11:18:37+01:00</time>
      </trkpt>
      <trkpt lat="43.96061" lon="5.44202">
        <ele>716</ele>
        <time>2019-02-18T11:18:38+01:00</time>
      </trkpt>
      <trkpt lat="43.96063" lon="5.44201">
        <ele>716</ele>
        <time>2019-02-18T11:18:39+01:00</time>
      </trkpt>
      <trkpt lat="43.96064" lon="5.442">
        <ele>716</ele>
        <time>2019-02-18T11:18:40+01:00</time>
      </trkpt>
      <trkpt lat="43.96065" lon="5.44199">
        <ele>716</ele>
        <time>2019-02-18T11:18:41+01:00</time>
      </trkpt>
      <trkpt lat="43.96068" lon="5.44198">
        <ele>716</ele>
        <time>2019-02-18T11:18:51+01:00</time>
      </trkpt>
      <trkpt lat="43.9607" lon="5.44199">
        <ele>716</ele>
        <time>2019-02-18T11:18:53+01:00</time>
      </trkpt>
      <trkpt lat="43.96071" lon="5.44199">
        <ele>716</ele>
        <time>2019-02-18T11:18:54+01:00</time>
      </trkpt>
      <trkpt lat="43.96073" lon="5.44198">
        <ele>716</ele>
        <time>2019-02-18T11:18:55+01:00</time>
      </trkpt>
      <trkpt lat="43.96074" lon="5.44197">
        <ele>716</ele>
        <time>2019-02-18T11:18:56+01:00</time>
      </trkpt>
      <trkpt lat="43.96075" lon="5.44197">
        <ele>716</ele>
        <time>2019-02-18T11:18:57+01:00</time>
      </trkpt>
      <trkpt lat="43.96082" lon="5.44194">
        <ele>716</ele>
        <time>2019-02-18T11:19:11+01:00</time>
      </trkpt>
      <trkpt lat="43.96083" lon="5.44193">
        <ele>716</ele>
        <time>2019-02-18T11:19:13+01:00</time>
      </trkpt>
      <trkpt lat="43.9609" lon="5.44189">
        <ele>716</ele>
        <time>2019-02-18T11:19:24+01:00</time>
      </trkpt>
      <trkpt lat="43.96112" lon="5.44178">
        <ele>717</ele>
        <time>2019-02-18T11:19:37+01:00</time>
      </trkpt>
      <trkpt lat="43.96132" lon="5.4417">
        <ele>718</ele>
        <time>2019-02-18T11:19:47+01:00</time>
      </trkpt>
      <trkpt lat="43.96139" lon="5.44172">
        <ele>719</ele>
        <time>2019-02-18T11:19:58+01:00</time>
      </trkpt>
      <trkpt lat="43.96143" lon="5.44171">
        <ele>720</ele>
        <time>2019-02-18T11:20:01+01:00</time>
      </trkpt>
      <trkpt lat="43.96147" lon="5.4417">
        <ele>720</ele>
        <time>2019-02-18T11:20:03+01:00</time>
      </trkpt>
      <trkpt lat="43.96157" lon="5.44171">
        <ele>722</ele>
        <time>2019-02-18T11:20:12+01:00</time>
      </trkpt>
      <trkpt lat="43.96159" lon="5.44171">
        <ele>723</ele>
        <time>2019-02-18T11:20:14+01:00</time>
      </trkpt>
      <trkpt lat="43.96176" lon="5.44171">
        <ele>726</ele>
        <time>2019-02-18T11:20:29+01:00</time>
      </trkpt>
      <trkpt lat="43.96194" lon="5.44164">
        <ele>728</ele>
        <time>2019-02-18T11:20:46+01:00</time>
      </trkpt>
      <trkpt lat="43.96214" lon="5.44156">
        <ele>728</ele>
        <time>2019-02-18T11:21:04+01:00</time>
      </trkpt>
      <trkpt lat="43.9623" lon="5.44151">
        <ele>728</ele>
        <time>2019-02-18T11:21:19+01:00</time>
      </trkpt>
      <trkpt lat="43.96247" lon="5.44149">
        <ele>730</ele>
        <time>2019-02-18T11:21:33+01:00</time>
      </trkpt>
      <trkpt lat="43.96262" lon="5.4415">
        <ele>731</ele>
        <time>2019-02-18T11:21:47+01:00</time>
      </trkpt>
      <trkpt lat="43.96284" lon="5.44151">
        <ele>732</ele>
        <time>2019-02-18T11:22:05+01:00</time>
      </trkpt>
      <trkpt lat="43.96298" lon="5.44148">
        <ele>732</ele>
        <time>2019-02-18T11:22:19+01:00</time>
      </trkpt>
      <trkpt lat="43.96314" lon="5.44147">
        <ele>732</ele>
        <time>2019-02-18T11:22:32+01:00</time>
      </trkpt>
      <trkpt lat="43.96335" lon="5.44145">
        <ele>732</ele>
        <time>2019-02-18T11:22:49+01:00</time>
      </trkpt>
      <trkpt lat="43.96354" lon="5.44143">
        <ele>732</ele>
        <time>2019-02-18T11:23:06+01:00</time>
      </trkpt>
      <trkpt lat="43.96372" lon="5.44142">
        <ele>733</ele>
        <time>2019-02-18T11:23:22+01:00</time>
      </trkpt>
      <trkpt lat="43.96391" lon="5.44142">
        <ele>734</ele>
        <time>2019-02-18T11:23:38+01:00</time>
      </trkpt>
      <trkpt lat="43.96392" lon="5.44143">
        <ele>735</ele>
        <time>2019-02-18T11:23:39+01:00</time>
      </trkpt>
      <trkpt lat="43.96393" lon="5.44143">
        <ele>735</ele>
        <time>2019-02-18T11:23:40+01:00</time>
      </trkpt>
      <trkpt lat="43.96411" lon="5.44142">
        <ele>736</ele>
        <time>2019-02-18T11:23:57+01:00</time>
      </trkpt>
      <trkpt lat="43.96427" lon="5.44145">
        <ele>737</ele>
        <time>2019-02-18T11:24:12+01:00</time>
      </trkpt>
      <trkpt lat="43.96431" lon="5.44149">
        <ele>739</ele>
        <time>2019-02-18T11:24:24+01:00</time>
      </trkpt>
      <trkpt lat="43.96442" lon="5.44152">
        <ele>740</ele>
        <time>2019-02-18T11:24:34+01:00</time>
      </trkpt>
      <trkpt lat="43.9645" lon="5.44157">
        <ele>741</ele>
        <time>2019-02-18T11:24:43+01:00</time>
      </trkpt>
      <trkpt lat="43.96451" lon="5.44157">
        <ele>741</ele>
        <time>2019-02-18T11:24:44+01:00</time>
      </trkpt>
      <trkpt lat="43.96472" lon="5.44165">
        <ele>741</ele>
        <time>2019-02-18T11:24:54+01:00</time>
      </trkpt>
      <trkpt lat="43.96485" lon="5.44169">
        <ele>740</ele>
        <time>2019-02-18T11:25:03+01:00</time>
      </trkpt>
      <trkpt lat="43.9649" lon="5.44179">
        <ele>743</ele>
        <time>2019-02-18T11:25:16+01:00</time>
      </trkpt>
      <trkpt lat="43.96491" lon="5.44182">
        <ele>744</ele>
        <time>2019-02-18T11:25:22+01:00</time>
      </trkpt>
      <trkpt lat="43.96501" lon="5.44186">
        <ele>744</ele>
        <time>2019-02-18T11:25:34+01:00</time>
      </trkpt>
      <trkpt lat="43.96503" lon="5.44187">
        <ele>744</ele>
        <time>2019-02-18T11:25:35+01:00</time>
      </trkpt>
      <trkpt lat="43.96507" lon="5.44189">
        <ele>743</ele>
        <time>2019-02-18T11:25:37+01:00</time>
      </trkpt>
      <trkpt lat="43.96532" lon="5.44195">
        <ele>739</ele>
        <time>2019-02-18T11:25:48+01:00</time>
      </trkpt>
      <trkpt lat="43.96557" lon="5.44199">
        <ele>737</ele>
        <time>2019-02-18T11:25:59+01:00</time>
      </trkpt>
      <trkpt lat="43.96569" lon="5.44208">
        <ele>738</ele>
        <time>2019-02-18T11:26:09+01:00</time>
      </trkpt>
      <trkpt lat="43.96575" lon="5.44212">
        <ele>739</ele>
        <time>2019-02-18T11:26:14+01:00</time>
      </trkpt>
      <trkpt lat="43.96576" lon="5.44212">
        <ele>739</ele>
        <time>2019-02-18T11:26:15+01:00</time>
      </trkpt>
      <trkpt lat="43.96577" lon="5.44212">
        <ele>739</ele>
        <time>2019-02-18T11:26:16+01:00</time>
      </trkpt>
      <trkpt lat="43.96578" lon="5.44211">
        <ele>738</ele>
        <time>2019-02-18T11:26:17+01:00</time>
      </trkpt>
      <trkpt lat="43.9658" lon="5.44212">
        <ele>738</ele>
        <time>2019-02-18T11:26:18+01:00</time>
      </trkpt>
      <trkpt lat="43.96581" lon="5.44213">
        <ele>738</ele>
        <time>2019-02-18T11:26:19+01:00</time>
      </trkpt>
      <trkpt lat="43.96582" lon="5.44213">
        <ele>738</ele>
        <time>2019-02-18T11:26:20+01:00</time>
      </trkpt>
      <trkpt lat="43.96591" lon="5.4422">
        <ele>739</ele>
        <time>2019-02-18T11:26:31+01:00</time>
      </trkpt>
      <trkpt lat="43.96596" lon="5.44221">
        <ele>739</ele>
        <time>2019-02-18T11:26:36+01:00</time>
      </trkpt>
      <trkpt lat="43.96597" lon="5.44222">
        <ele>739</ele>
        <time>2019-02-18T11:26:37+01:00</time>
      </trkpt>
      <trkpt lat="43.96598" lon="5.44223">
        <ele>739</ele>
        <time>2019-02-18T11:26:38+01:00</time>
      </trkpt>
      <trkpt lat="43.96604" lon="5.4423">
        <ele>741</ele>
        <time>2019-02-18T11:26:52+01:00</time>
      </trkpt>
      <trkpt lat="43.96606" lon="5.44231">
        <ele>741</ele>
        <time>2019-02-18T11:26:57+01:00</time>
      </trkpt>
      <trkpt lat="43.96607" lon="5.44231">
        <ele>741</ele>
        <time>2019-02-18T11:26:58+01:00</time>
      </trkpt>
      <trkpt lat="43.96609" lon="5.44231">
        <ele>741</ele>
        <time>2019-02-18T11:26:59+01:00</time>
      </trkpt>
      <trkpt lat="43.96611" lon="5.44231">
        <ele>740</ele>
        <time>2019-02-18T11:27:00+01:00</time>
      </trkpt>
      <trkpt lat="43.96613" lon="5.44231">
        <ele>740</ele>
        <time>2019-02-18T11:27:01+01:00</time>
      </trkpt>
      <trkpt lat="43.9663" lon="5.44234">
        <ele>739</ele>
        <time>2019-02-18T11:27:13+01:00</time>
      </trkpt>
      <trkpt lat="43.96634" lon="5.44237">
        <ele>740</ele>
        <time>2019-02-18T11:27:23+01:00</time>
      </trkpt>
      <trkpt lat="43.96646" lon="5.44242">
        <ele>741</ele>
        <time>2019-02-18T11:27:33+01:00</time>
      </trkpt>
      <trkpt lat="43.96654" lon="5.44234">
        <ele>739</ele>
        <time>2019-02-18T11:27:45+01:00</time>
      </trkpt>
      <trkpt lat="43.96658" lon="5.44219">
        <ele>735</ele>
        <time>2019-02-18T11:27:59+01:00</time>
      </trkpt>
      <trkpt lat="43.96659" lon="5.44205">
        <ele>732</ele>
        <time>2019-02-18T11:28:12+01:00</time>
      </trkpt>
      <trkpt lat="43.96659" lon="5.44203">
        <ele>731</ele>
        <time>2019-02-18T11:28:14+01:00</time>
      </trkpt>
      <trkpt lat="43.96654" lon="5.44188">
        <ele>728</ele>
        <time>2019-02-18T11:28:28+01:00</time>
      </trkpt>
      <trkpt lat="43.96646" lon="5.44173">
        <ele>724</ele>
        <time>2019-02-18T11:28:41+01:00</time>
      </trkpt>
      <trkpt lat="43.96649" lon="5.44164">
        <ele>721</ele>
        <time>2019-02-18T11:28:55+01:00</time>
      </trkpt>
      <trkpt lat="43.96654" lon="5.44164">
        <ele>720</ele>
        <time>2019-02-18T11:29:12+01:00</time>
      </trkpt>
      <trkpt lat="43.96661" lon="5.44161">
        <ele>718</ele>
        <time>2019-02-18T11:29:23+01:00</time>
      </trkpt>
      <trkpt lat="43.96666" lon="5.44158">
        <ele>717</ele>
        <time>2019-02-18T11:29:42+01:00</time>
      </trkpt>
      <trkpt lat="43.96675" lon="5.44155">
        <ele>713</ele>
        <time>2019-02-18T11:29:54+01:00</time>
      </trkpt>
      <trkpt lat="43.96686" lon="5.44158">
        <ele>711</ele>
        <time>2019-02-18T11:30:07+01:00</time>
      </trkpt>
      <trkpt lat="43.96702" lon="5.44163">
        <ele>710</ele>
        <time>2019-02-18T11:30:23+01:00</time>
      </trkpt>
      <trkpt lat="43.96707" lon="5.4416">
        <ele>709</ele>
        <time>2019-02-18T11:30:38+01:00</time>
      </trkpt>
      <trkpt lat="43.96707" lon="5.4416">
        <ele>709</ele>
        <time>2019-02-18T11:47:03+01:00</time>
      </trkpt>
      <trkpt lat="43.96705" lon="5.4416">
        <ele>709</ele>
        <time>2019-02-18T11:47:14+01:00</time>
      </trkpt>
      <trkpt lat="43.96705" lon="5.44159">
        <ele>709</ele>
        <time>2019-02-18T11:47:16+01:00</time>
      </trkpt>
      <trkpt lat="43.96697" lon="5.44146">
        <ele>705</ele>
        <time>2019-02-18T11:47:32+01:00</time>
      </trkpt>
      <trkpt lat="43.96695" lon="5.44141">
        <ele>703</ele>
        <time>2019-02-18T11:47:38+01:00</time>
      </trkpt>
      <trkpt lat="43.96691" lon="5.44137">
        <ele>703</ele>
        <time>2019-02-18T11:47:43+01:00</time>
      </trkpt>
      <trkpt lat="43.9669" lon="5.44133">
        <ele>702</ele>
        <time>2019-02-18T11:47:55+01:00</time>
      </trkpt>
      <trkpt lat="43.9669" lon="5.44132">
        <ele>702</ele>
        <time>2019-02-18T11:48:11+01:00</time>
      </trkpt>
      <trkpt lat="43.96691" lon="5.44132">
        <ele>702</ele>
        <time>2019-02-18T11:48:22+01:00</time>
      </trkpt>
      <trkpt lat="43.96696" lon="5.44132">
        <ele>702</ele>
        <time>2019-02-18T11:48:26+01:00</time>
      </trkpt>
      <trkpt lat="43.96698" lon="5.44132">
        <ele>702</ele>
        <time>2019-02-18T11:48:31+01:00</time>
      </trkpt>
      <trkpt lat="43.96703" lon="5.44132">
        <ele>702</ele>
        <time>2019-02-18T11:48:35+01:00</time>
      </trkpt>
      <trkpt lat="43.96712" lon="5.4413">
        <ele>703</ele>
        <time>2019-02-18T11:48:42+01:00</time>
      </trkpt>
      <trkpt lat="43.96714" lon="5.44128">
        <ele>703</ele>
        <time>2019-02-18T11:48:44+01:00</time>
      </trkpt>
      <trkpt lat="43.96716" lon="5.44126">
        <ele>703</ele>
        <time>2019-02-18T11:48:47+01:00</time>
      </trkpt>
      <trkpt lat="43.96723" lon="5.44121">
        <ele>703</ele>
        <time>2019-02-18T11:48:52+01:00</time>
      </trkpt>
      <trkpt lat="43.96723" lon="5.44118">
        <ele>702</ele>
        <time>2019-02-18T11:48:54+01:00</time>
      </trkpt>
      <trkpt lat="43.96719" lon="5.44114">
        <ele>701</ele>
        <time>2019-02-18T11:48:57+01:00</time>
      </trkpt>
      <trkpt lat="43.96717" lon="5.44109">
        <ele>701</ele>
        <time>2019-02-18T11:49:07+01:00</time>
      </trkpt>
      <trkpt lat="43.96717" lon="5.44108">
        <ele>701</ele>
        <time>2019-02-18T11:49:08+01:00</time>
      </trkpt>
      <trkpt lat="43.96712" lon="5.44092">
        <ele>702</ele>
        <time>2019-02-18T11:49:20+01:00</time>
      </trkpt>
      <trkpt lat="43.96712" lon="5.44088">
        <ele>702</ele>
        <time>2019-02-18T11:49:24+01:00</time>
      </trkpt>
      <trkpt lat="43.96709" lon="5.44081">
        <ele>704</ele>
        <time>2019-02-18T11:49:40+01:00</time>
      </trkpt>
      <trkpt lat="43.96701" lon="5.44075">
        <ele>705</ele>
        <time>2019-02-18T11:49:53+01:00</time>
      </trkpt>
      <trkpt lat="43.96692" lon="5.4407">
        <ele>705</ele>
        <time>2019-02-18T11:50:07+01:00</time>
      </trkpt>
      <trkpt lat="43.96684" lon="5.44058">
        <ele>707</ele>
        <time>2019-02-18T11:50:21+01:00</time>
      </trkpt>
      <trkpt lat="43.96677" lon="5.44049">
        <ele>709</ele>
        <time>2019-02-18T11:50:34+01:00</time>
      </trkpt>
      <trkpt lat="43.96665" lon="5.44033">
        <ele>712</ele>
        <time>2019-02-18T11:50:52+01:00</time>
      </trkpt>
      <trkpt lat="43.96652" lon="5.44013">
        <ele>714</ele>
        <time>2019-02-18T11:51:11+01:00</time>
      </trkpt>
      <trkpt lat="43.96644" lon="5.43993">
        <ele>717</ele>
        <time>2019-02-18T11:51:28+01:00</time>
      </trkpt>
      <trkpt lat="43.96632" lon="5.43976">
        <ele>719</ele>
        <time>2019-02-18T11:51:45+01:00</time>
      </trkpt>
      <trkpt lat="43.96621" lon="5.43961">
        <ele>720</ele>
        <time>2019-02-18T11:52:02+01:00</time>
      </trkpt>
      <trkpt lat="43.96609" lon="5.43949">
        <ele>720</ele>
        <time>2019-02-18T11:52:16+01:00</time>
      </trkpt>
      <trkpt lat="43.96602" lon="5.43935">
        <ele>722</ele>
        <time>2019-02-18T11:52:31+01:00</time>
      </trkpt>
      <trkpt lat="43.96593" lon="5.43926">
        <ele>721</ele>
        <time>2019-02-18T11:52:47+01:00</time>
      </trkpt>
      <trkpt lat="43.96577" lon="5.43913">
        <ele>720</ele>
        <time>2019-02-18T11:53:06+01:00</time>
      </trkpt>
      <trkpt lat="43.96565" lon="5.439">
        <ele>719</ele>
        <time>2019-02-18T11:53:22+01:00</time>
      </trkpt>
      <trkpt lat="43.9655" lon="5.43884">
        <ele>719</ele>
        <time>2019-02-18T11:53:42+01:00</time>
      </trkpt>
      <trkpt lat="43.96536" lon="5.43869">
        <ele>717</ele>
        <time>2019-02-18T11:54:00+01:00</time>
      </trkpt>
      <trkpt lat="43.96523" lon="5.43846">
        <ele>719</ele>
        <time>2019-02-18T11:54:19+01:00</time>
      </trkpt>
      <trkpt lat="43.96517" lon="5.43835">
        <ele>720</ele>
        <time>2019-02-18T11:54:27+01:00</time>
      </trkpt>
      <trkpt lat="43.96513" lon="5.43817">
        <ele>723</ele>
        <time>2019-02-18T11:54:40+01:00</time>
      </trkpt>
      <trkpt lat="43.96511" lon="5.43815">
        <ele>722</ele>
        <time>2019-02-18T11:54:44+01:00</time>
      </trkpt>
      <trkpt lat="43.96501" lon="5.43806">
        <ele>720</ele>
        <time>2019-02-18T11:54:53+01:00</time>
      </trkpt>
      <trkpt lat="43.965" lon="5.43805">
        <ele>720</ele>
        <time>2019-02-18T11:54:55+01:00</time>
      </trkpt>
      <trkpt lat="43.96492" lon="5.43796">
        <ele>721</ele>
        <time>2019-02-18T11:55:05+01:00</time>
      </trkpt>
      <trkpt lat="43.96488" lon="5.43789">
        <ele>722</ele>
        <time>2019-02-18T11:55:17+01:00</time>
      </trkpt>
      <trkpt lat="43.96485" lon="5.43785">
        <ele>723</ele>
        <time>2019-02-18T11:55:21+01:00</time>
      </trkpt>
      <trkpt lat="43.96471" lon="5.43778">
        <ele>723</ele>
        <time>2019-02-18T11:55:28+01:00</time>
      </trkpt>
      <trkpt lat="43.96459" lon="5.43772">
        <ele>726</ele>
        <time>2019-02-18T11:55:42+01:00</time>
      </trkpt>
      <trkpt lat="43.96443" lon="5.43762">
        <ele>731</ele>
        <time>2019-02-18T11:56:02+01:00</time>
      </trkpt>
      <trkpt lat="43.96423" lon="5.4376">
        <ele>732</ele>
        <time>2019-02-18T11:56:19+01:00</time>
      </trkpt>
      <trkpt lat="43.96413" lon="5.43755">
        <ele>734</ele>
        <time>2019-02-18T11:56:34+01:00</time>
      </trkpt>
      <trkpt lat="43.96398" lon="5.43754">
        <ele>734</ele>
        <time>2019-02-18T11:56:52+01:00</time>
      </trkpt>
      <trkpt lat="43.9639" lon="5.43755">
        <ele>734</ele>
        <time>2019-02-18T11:57:01+01:00</time>
      </trkpt>
      <trkpt lat="43.9637" lon="5.43755">
        <ele>733</ele>
        <time>2019-02-18T11:57:17+01:00</time>
      </trkpt>
      <trkpt lat="43.96354" lon="5.43754">
        <ele>732</ele>
        <time>2019-02-18T11:57:37+01:00</time>
      </trkpt>
      <trkpt lat="43.96338" lon="5.43751">
        <ele>734</ele>
        <time>2019-02-18T11:57:53+01:00</time>
      </trkpt>
      <trkpt lat="43.96333" lon="5.43745">
        <ele>736</ele>
        <time>2019-02-18T11:58:13+01:00</time>
      </trkpt>
      <trkpt lat="43.96324" lon="5.43742">
        <ele>736</ele>
        <time>2019-02-18T11:58:27+01:00</time>
      </trkpt>
      <trkpt lat="43.96319" lon="5.43738">
        <ele>737</ele>
        <time>2019-02-18T11:58:34+01:00</time>
      </trkpt>
      <trkpt lat="43.96308" lon="5.43733">
        <ele>738</ele>
        <time>2019-02-18T11:58:47+01:00</time>
      </trkpt>
      <trkpt lat="43.9629" lon="5.43724">
        <ele>738</ele>
        <time>2019-02-18T11:59:04+01:00</time>
      </trkpt>
      <trkpt lat="43.9628" lon="5.43715">
        <ele>739</ele>
        <time>2019-02-18T11:59:18+01:00</time>
      </trkpt>
      <trkpt lat="43.96265" lon="5.43698">
        <ele>740</ele>
        <time>2019-02-18T11:59:37+01:00</time>
      </trkpt>
      <trkpt lat="43.96255" lon="5.4368">
        <ele>742</ele>
        <time>2019-02-18T11:59:52+01:00</time>
      </trkpt>
      <trkpt lat="43.9625" lon="5.43664">
        <ele>744</ele>
        <time>2019-02-18T12:00:10+01:00</time>
      </trkpt>
      <trkpt lat="43.96241" lon="5.43653">
        <ele>745</ele>
        <time>2019-02-18T12:00:26+01:00</time>
      </trkpt>
      <trkpt lat="43.96233" lon="5.43648">
        <ele>744</ele>
        <time>2019-02-18T12:00:45+01:00</time>
      </trkpt>
      <trkpt lat="43.96232" lon="5.43648">
        <ele>744</ele>
        <time>2019-02-18T12:01:06+01:00</time>
      </trkpt>
      <trkpt lat="43.96232" lon="5.43648">
        <ele>744</ele>
        <time>2019-02-18T12:01:18+01:00</time>
      </trkpt>
      <trkpt lat="43.96228" lon="5.43653">
        <ele>740</ele>
        <time>2019-02-18T12:01:41+01:00</time>
      </trkpt>
      <trkpt lat="43.96229" lon="5.43653">
        <ele>740</ele>
        <time>2019-02-18T12:02:03+01:00</time>
      </trkpt>
      <trkpt lat="43.96228" lon="5.43655">
        <ele>739</ele>
        <time>2019-02-18T12:02:29+01:00</time>
      </trkpt>
      <trkpt lat="43.9623" lon="5.43652">
        <ele>741</ele>
        <time>2019-02-18T12:02:49+01:00</time>
      </trkpt>
      <trkpt lat="43.96229" lon="5.43654">
        <ele>740</ele>
        <time>2019-02-18T12:03:17+01:00</time>
      </trkpt>
      <trkpt lat="43.9623" lon="5.43652">
        <ele>741</ele>
        <time>2019-02-18T12:03:41+01:00</time>
      </trkpt>
      <trkpt lat="43.96231" lon="5.4365">
        <ele>743</ele>
        <time>2019-02-18T12:04:09+01:00</time>
      </trkpt>
      <trkpt lat="43.96231" lon="5.43651">
        <ele>742</ele>
        <time>2019-02-18T12:04:33+01:00</time>
      </trkpt>
      <trkpt lat="43.96231" lon="5.43651">
        <ele>742</ele>
        <time>2019-02-18T12:05:01+01:00</time>
      </trkpt>
      <trkpt lat="43.96229" lon="5.43653">
        <ele>740</ele>
        <time>2019-02-18T12:05:29+01:00</time>
      </trkpt>
      <trkpt lat="43.96225" lon="5.43643">
        <ele>744</ele>
        <time>2019-02-18T12:05:44+01:00</time>
      </trkpt>
      <trkpt lat="43.96218" lon="5.43631">
        <ele>749</ele>
        <time>2019-02-18T12:05:59+01:00</time>
      </trkpt>
      <trkpt lat="43.96212" lon="5.43619">
        <ele>754</ele>
        <time>2019-02-18T12:06:15+01:00</time>
      </trkpt>
      <trkpt lat="43.9621" lon="5.43605">
        <ele>758</ele>
        <time>2019-02-18T12:06:32+01:00</time>
      </trkpt>
      <trkpt lat="43.96217" lon="5.43594">
        <ele>760</ele>
        <time>2019-02-18T12:06:46+01:00</time>
      </trkpt>
      <trkpt lat="43.96215" lon="5.43584">
        <ele>762</ele>
        <time>2019-02-18T12:06:59+01:00</time>
      </trkpt>
      <trkpt lat="43.96217" lon="5.43578">
        <ele>762</ele>
        <time>2019-02-18T12:07:10+01:00</time>
      </trkpt>
      <trkpt lat="43.96222" lon="5.43567">
        <ele>764</ele>
        <time>2019-02-18T12:07:20+01:00</time>
      </trkpt>
      <trkpt lat="43.96236" lon="5.43558">
        <ele>766</ele>
        <time>2019-02-18T12:07:35+01:00</time>
      </trkpt>
      <trkpt lat="43.96238" lon="5.43558">
        <ele>766</ele>
        <time>2019-02-18T12:07:37+01:00</time>
      </trkpt>
      <trkpt lat="43.96249" lon="5.43564">
        <ele>767</ele>
        <time>2019-02-18T12:07:54+01:00</time>
      </trkpt>
      <trkpt lat="43.96256" lon="5.43565">
        <ele>767</ele>
        <time>2019-02-18T12:08:01+01:00</time>
      </trkpt>
      <trkpt lat="43.96262" lon="5.43565">
        <ele>768</ele>
        <time>2019-02-18T12:08:04+01:00</time>
      </trkpt>
      <trkpt lat="43.96272" lon="5.43571">
        <ele>768</ele>
        <time>2019-02-18T12:08:17+01:00</time>
      </trkpt>
      <trkpt lat="43.96285" lon="5.43567">
        <ele>769</ele>
        <time>2019-02-18T12:08:34+01:00</time>
      </trkpt>
      <trkpt lat="43.963" lon="5.43563">
        <ele>771</ele>
        <time>2019-02-18T12:08:51+01:00</time>
      </trkpt>
      <trkpt lat="43.96313" lon="5.43558">
        <ele>773</ele>
        <time>2019-02-18T12:09:08+01:00</time>
      </trkpt>
      <trkpt lat="43.96324" lon="5.43563">
        <ele>773</ele>
        <time>2019-02-18T12:09:23+01:00</time>
      </trkpt>
      <trkpt lat="43.96335" lon="5.43569">
        <ele>774</ele>
        <time>2019-02-18T12:09:38+01:00</time>
      </trkpt>
      <trkpt lat="43.96341" lon="5.43567">
        <ele>775</ele>
        <time>2019-02-18T12:09:44+01:00</time>
      </trkpt>
      <trkpt lat="43.96356" lon="5.43559">
        <ele>778</ele>
        <time>2019-02-18T12:09:59+01:00</time>
      </trkpt>
      <trkpt lat="43.96371" lon="5.43551">
        <ele>780</ele>
        <time>2019-02-18T12:10:15+01:00</time>
      </trkpt>
      <trkpt lat="43.96381" lon="5.43546">
        <ele>781</ele>
        <time>2019-02-18T12:10:29+01:00</time>
      </trkpt>
      <trkpt lat="43.96392" lon="5.43548">
        <ele>782</ele>
        <time>2019-02-18T12:10:44+01:00</time>
      </trkpt>
      <trkpt lat="43.96403" lon="5.43545">
        <ele>784</ele>
        <time>2019-02-18T12:11:00+01:00</time>
      </trkpt>
      <trkpt lat="43.96417" lon="5.43543">
        <ele>787</ele>
        <time>2019-02-18T12:11:17+01:00</time>
      </trkpt>
      <trkpt lat="43.96426" lon="5.43539">
        <ele>788</ele>
        <time>2019-02-18T12:11:32+01:00</time>
      </trkpt>
      <trkpt lat="43.96433" lon="5.43517">
        <ele>790</ele>
        <time>2019-02-18T12:11:50+01:00</time>
      </trkpt>
      <trkpt lat="43.96447" lon="5.435">
        <ele>792</ele>
        <time>2019-02-18T12:12:09+01:00</time>
      </trkpt>
      <trkpt lat="43.96457" lon="5.43504">
        <ele>794</ele>
        <time>2019-02-18T12:12:25+01:00</time>
      </trkpt>
      <trkpt lat="43.9647" lon="5.43518">
        <ele>796</ele>
        <time>2019-02-18T12:12:43+01:00</time>
      </trkpt>
      <trkpt lat="43.9648" lon="5.43527">
        <ele>797</ele>
        <time>2019-02-18T12:12:58+01:00</time>
      </trkpt>
      <trkpt lat="43.96487" lon="5.43534">
        <ele>798</ele>
        <time>2019-02-18T12:13:12+01:00</time>
      </trkpt>
      <trkpt lat="43.96491" lon="5.43551">
        <ele>798</ele>
        <time>2019-02-18T12:13:28+01:00</time>
      </trkpt>
      <trkpt lat="43.96493" lon="5.43558">
        <ele>798</ele>
        <time>2019-02-18T12:13:42+01:00</time>
      </trkpt>
      <trkpt lat="43.96488" lon="5.43574">
        <ele>796</ele>
        <time>2019-02-18T12:13:57+01:00</time>
      </trkpt>
      <trkpt lat="43.96488" lon="5.43586">
        <ele>796</ele>
        <time>2019-02-18T12:14:11+01:00</time>
      </trkpt>
      <trkpt lat="43.96493" lon="5.43582">
        <ele>797</ele>
        <time>2019-02-18T12:14:23+01:00</time>
      </trkpt>
      <trkpt lat="43.96493" lon="5.4358">
        <ele>797</ele>
        <time>2019-02-18T12:14:33+01:00</time>
      </trkpt>
      <trkpt lat="43.96496" lon="5.43582">
        <ele>797</ele>
        <time>2019-02-18T12:14:52+01:00</time>
      </trkpt>
      <trkpt lat="43.96496" lon="5.43576">
        <ele>797</ele>
        <time>2019-02-18T12:15:01+01:00</time>
      </trkpt>
      <trkpt lat="43.96499" lon="5.43568">
        <ele>798</ele>
        <time>2019-02-18T12:15:15+01:00</time>
      </trkpt>
      <trkpt lat="43.965" lon="5.43562">
        <ele>799</ele>
        <time>2019-02-18T12:15:28+01:00</time>
      </trkpt>
      <trkpt lat="43.965" lon="5.43566">
        <ele>799</ele>
        <time>2019-02-18T12:15:46+01:00</time>
      </trkpt>
      <trkpt lat="43.96501" lon="5.4357">
        <ele>799</ele>
        <time>2019-02-18T12:15:57+01:00</time>
      </trkpt>
      <trkpt lat="43.96498" lon="5.43593">
        <ele>797</ele>
        <time>2019-02-18T12:16:12+01:00</time>
      </trkpt>
      <trkpt lat="43.96496" lon="5.436">
        <ele>797</ele>
        <time>2019-02-18T12:16:28+01:00</time>
      </trkpt>
      <trkpt lat="43.96487" lon="5.43586">
        <ele>796</ele>
        <time>2019-02-18T12:16:44+01:00</time>
      </trkpt>
      <trkpt lat="43.96487" lon="5.43579">
        <ele>796</ele>
        <time>2019-02-18T12:17:00+01:00</time>
      </trkpt>
      <trkpt lat="43.96485" lon="5.43582">
        <ele>795</ele>
        <time>2019-02-18T12:17:14+01:00</time>
      </trkpt>
      <trkpt lat="43.9648" lon="5.43589">
        <ele>794</ele>
        <time>2019-02-18T12:17:23+01:00</time>
      </trkpt>
      <trkpt lat="43.96473" lon="5.43606">
        <ele>792</ele>
        <time>2019-02-18T12:17:38+01:00</time>
      </trkpt>
      <trkpt lat="43.96472" lon="5.4363">
        <ele>790</ele>
        <time>2019-02-18T12:17:54+01:00</time>
      </trkpt>
      <trkpt lat="43.96472" lon="5.43649">
        <ele>785</ele>
        <time>2019-02-18T12:18:09+01:00</time>
      </trkpt>
      <trkpt lat="43.96472" lon="5.43648">
        <ele>785</ele>
        <time>2019-02-18T12:18:23+01:00</time>
      </trkpt>
      <trkpt lat="43.96472" lon="5.43645">
        <ele>786</ele>
        <time>2019-02-18T12:18:26+01:00</time>
      </trkpt>
      <trkpt lat="43.9647" lon="5.43636">
        <ele>789</ele>
        <time>2019-02-18T12:18:34+01:00</time>
      </trkpt>
      <trkpt lat="43.9646" lon="5.43636">
        <ele>787</ele>
        <time>2019-02-18T12:18:49+01:00</time>
      </trkpt>
      <trkpt lat="43.96449" lon="5.43634">
        <ele>786</ele>
        <time>2019-02-18T12:19:02+01:00</time>
      </trkpt>
      <trkpt lat="43.9644" lon="5.43644">
        <ele>783</ele>
        <time>2019-02-18T12:19:15+01:00</time>
      </trkpt>
      <trkpt lat="43.96436" lon="5.43639">
        <ele>783</ele>
        <time>2019-02-18T12:19:26+01:00</time>
      </trkpt>
      <trkpt lat="43.96433" lon="5.43648">
        <ele>782</ele>
        <time>2019-02-18T12:19:40+01:00</time>
      </trkpt>
      <trkpt lat="43.96436" lon="5.43652">
        <ele>781</ele>
        <time>2019-02-18T12:19:54+01:00</time>
      </trkpt>
      <trkpt lat="43.96437" lon="5.43659">
        <ele>780</ele>
        <time>2019-02-18T12:20:09+01:00</time>
      </trkpt>
      <trkpt lat="43.96436" lon="5.43659">
        <ele>780</ele>
        <time>2019-02-18T12:20:16+01:00</time>
      </trkpt>
      <trkpt lat="43.96433" lon="5.43659">
        <ele>780</ele>
        <time>2019-02-18T12:20:28+01:00</time>
      </trkpt>
      <trkpt lat="43.96429" lon="5.4366">
        <ele>780</ele>
        <time>2019-02-18T12:20:43+01:00</time>
      </trkpt>
      <trkpt lat="43.96421" lon="5.4366">
        <ele>780</ele>
        <time>2019-02-18T12:20:58+01:00</time>
      </trkpt>
      <trkpt lat="43.96417" lon="5.43661">
        <ele>780</ele>
        <time>2019-02-18T12:21:09+01:00</time>
      </trkpt>
      <trkpt lat="43.96417" lon="5.4366">
        <ele>780</ele>
        <time>2019-02-18T12:21:10+01:00</time>
      </trkpt>
      <trkpt lat="43.96425" lon="5.4366">
        <ele>780</ele>
        <time>2019-02-18T12:21:19+01:00</time>
      </trkpt>
      <trkpt lat="43.96436" lon="5.43655">
        <ele>781</ele>
        <time>2019-02-18T12:21:33+01:00</time>
      </trkpt>
      <trkpt lat="43.96441" lon="5.43643">
        <ele>783</ele>
        <time>2019-02-18T12:21:46+01:00</time>
      </trkpt>
      <trkpt lat="43.96453" lon="5.43634">
        <ele>786</ele>
        <time>2019-02-18T12:22:02+01:00</time>
      </trkpt>
      <trkpt lat="43.96466" lon="5.43636">
        <ele>788</ele>
        <time>2019-02-18T12:22:17+01:00</time>
      </trkpt>
      <trkpt lat="43.96467" lon="5.43636">
        <ele>788</ele>
        <time>2019-02-18T12:22:18+01:00</time>
      </trkpt>
      <trkpt lat="43.9647" lon="5.43614">
        <ele>791</ele>
        <time>2019-02-18T12:22:33+01:00</time>
      </trkpt>
      <trkpt lat="43.96479" lon="5.4359">
        <ele>794</ele>
        <time>2019-02-18T12:22:52+01:00</time>
      </trkpt>
      <trkpt lat="43.96488" lon="5.43583">
        <ele>796</ele>
        <time>2019-02-18T12:23:05+01:00</time>
      </trkpt>
      <trkpt lat="43.96488" lon="5.43582">
        <ele>796</ele>
        <time>2019-02-18T12:23:06+01:00</time>
      </trkpt>
      <trkpt lat="43.9649" lon="5.4357">
        <ele>797</ele>
        <time>2019-02-18T12:23:14+01:00</time>
      </trkpt>
      <trkpt lat="43.965" lon="5.43565">
        <ele>799</ele>
        <time>2019-02-18T12:23:29+01:00</time>
      </trkpt>
      <trkpt lat="43.96501" lon="5.43566">
        <ele>799</ele>
        <time>2019-02-18T12:23:48+01:00</time>
      </trkpt>
      <trkpt lat="43.96501" lon="5.43565">
        <ele>799</ele>
        <time>2019-02-18T12:23:49+01:00</time>
      </trkpt>
      <trkpt lat="43.96498" lon="5.43565">
        <ele>798</ele>
        <time>2019-02-18T13:12:10+01:00</time>
      </trkpt>
      <trkpt lat="43.9649" lon="5.43563">
        <ele>797</ele>
        <time>2019-02-18T13:12:11+01:00</time>
      </trkpt>
      <trkpt lat="43.96498" lon="5.43565">
        <ele>798</ele>
        <time>2019-02-18T13:12:34+01:00</time>
      </trkpt>
      <trkpt lat="43.96499" lon="5.43562">
        <ele>799</ele>
        <time>2019-02-18T13:12:56+01:00</time>
      </trkpt>
      <trkpt lat="43.96498" lon="5.43564">
        <ele>798</ele>
        <time>2019-02-18T13:13:21+01:00</time>
      </trkpt>
      <trkpt lat="43.96499" lon="5.43565">
        <ele>798</ele>
        <time>2019-02-18T13:13:35+01:00</time>
      </trkpt>
      <trkpt lat="43.96499" lon="5.43565">
        <ele>799</ele>
        <time>2019-02-18T13:13:44+01:00</time>
      </trkpt>
      <trkpt lat="43.96499" lon="5.43565">
        <ele>799</ele>
        <time>2019-02-18T13:24:38+01:00</time>
      </trkpt>
      <trkpt lat="43.965" lon="5.43562">
        <ele>799</ele>
        <time>2019-02-18T13:24:40+01:00</time>
      </trkpt>
      <trkpt lat="43.96498" lon="5.43562">
        <ele>799</ele>
        <time>2019-02-18T13:24:55+01:00</time>
      </trkpt>
      <trkpt lat="43.965" lon="5.43561">
        <ele>799</ele>
        <time>2019-02-18T13:25:07+01:00</time>
      </trkpt>
      <trkpt lat="43.965" lon="5.43561">
        <ele>799</ele>
        <time>2019-02-18T13:25:18+01:00</time>
      </trkpt>
      <trkpt lat="43.965" lon="5.43561">
        <ele>799</ele>
        <time>2019-02-18T13:25:37+01:00</time>
      </trkpt>
      <trkpt lat="43.965" lon="5.43562">
        <ele>799</ele>
        <time>2019-02-18T13:25:53+01:00</time>
      </trkpt>
      <trkpt lat="43.965" lon="5.43562">
        <ele>799</ele>
        <time>2019-02-18T13:26:04+01:00</time>
      </trkpt>
      <trkpt lat="43.96499" lon="5.43561">
        <ele>799</ele>
        <time>2019-02-18T13:26:25+01:00</time>
      </trkpt>
      <trkpt lat="43.96498" lon="5.43559">
        <ele>799</ele>
        <time>2019-02-18T13:26:36+01:00</time>
      </trkpt>
      <trkpt lat="43.96493" lon="5.43556">
        <ele>798</ele>
        <time>2019-02-18T13:26:42+01:00</time>
      </trkpt>
      <trkpt lat="43.96493" lon="5.43556">
        <ele>798</ele>
        <time>2019-02-18T13:26:46+01:00</time>
      </trkpt>
      <trkpt lat="43.96492" lon="5.43551">
        <ele>798</ele>
        <time>2019-02-18T13:26:52+01:00</time>
      </trkpt>
      <trkpt lat="43.96489" lon="5.43543">
        <ele>798</ele>
        <time>2019-02-18T13:27:03+01:00</time>
      </trkpt>
      <trkpt lat="43.96487" lon="5.43533">
        <ele>798</ele>
        <time>2019-02-18T13:27:13+01:00</time>
      </trkpt>
      <trkpt lat="43.96489" lon="5.43524">
        <ele>799</ele>
        <time>2019-02-18T13:27:21+01:00</time>
      </trkpt>
      <trkpt lat="43.96489" lon="5.43517">
        <ele>799</ele>
        <time>2019-02-18T13:27:26+01:00</time>
      </trkpt>
      <trkpt lat="43.96489" lon="5.43511">
        <ele>800</ele>
        <time>2019-02-18T13:27:31+01:00</time>
      </trkpt>
      <trkpt lat="43.96486" lon="5.43501">
        <ele>800</ele>
        <time>2019-02-18T13:27:38+01:00</time>
      </trkpt>
      <trkpt lat="43.96488" lon="5.43494">
        <ele>801</ele>
        <time>2019-02-18T13:27:46+01:00</time>
      </trkpt>
      <trkpt lat="43.96482" lon="5.43494">
        <ele>800</ele>
        <time>2019-02-18T13:27:57+01:00</time>
      </trkpt>
      <trkpt lat="43.96482" lon="5.43491">
        <ele>800</ele>
        <time>2019-02-18T13:28:04+01:00</time>
      </trkpt>
      <trkpt lat="43.9648" lon="5.4348">
        <ele>800</ele>
        <time>2019-02-18T13:28:16+01:00</time>
      </trkpt>
      <trkpt lat="43.96481" lon="5.43481">
        <ele>800</ele>
        <time>2019-02-18T13:28:28+01:00</time>
      </trkpt>
      <trkpt lat="43.96479" lon="5.43484">
        <ele>800</ele>
        <time>2019-02-18T13:28:49+01:00</time>
      </trkpt>
      <trkpt lat="43.96481" lon="5.43473">
        <ele>801</ele>
        <time>2019-02-18T13:29:10+01:00</time>
      </trkpt>
      <trkpt lat="43.96485" lon="5.43453">
        <ele>802</ele>
        <time>2019-02-18T13:29:27+01:00</time>
      </trkpt>
      <trkpt lat="43.96487" lon="5.43431">
        <ele>804</ele>
        <time>2019-02-18T13:29:44+01:00</time>
      </trkpt>
      <trkpt lat="43.96485" lon="5.43405">
        <ele>805</ele>
        <time>2019-02-18T13:30:03+01:00</time>
      </trkpt>
      <trkpt lat="43.96483" lon="5.43377">
        <ele>805</ele>
        <time>2019-02-18T13:30:22+01:00</time>
      </trkpt>
      <trkpt lat="43.96484" lon="5.43344">
        <ele>805</ele>
        <time>2019-02-18T13:30:42+01:00</time>
      </trkpt>
      <trkpt lat="43.96485" lon="5.43308">
        <ele>804</ele>
        <time>2019-02-18T13:31:05+01:00</time>
      </trkpt>
      <trkpt lat="43.96485" lon="5.43272">
        <ele>804</ele>
        <time>2019-02-18T13:31:28+01:00</time>
      </trkpt>
      <trkpt lat="43.96486" lon="5.43238">
        <ele>803</ele>
        <time>2019-02-18T13:31:48+01:00</time>
      </trkpt>
      <trkpt lat="43.96489" lon="5.43206">
        <ele>804</ele>
        <time>2019-02-18T13:32:07+01:00</time>
      </trkpt>
      <trkpt lat="43.96493" lon="5.43173">
        <ele>803</ele>
        <time>2019-02-18T13:32:27+01:00</time>
      </trkpt>
      <trkpt lat="43.96494" lon="5.43147">
        <ele>802</ele>
        <time>2019-02-18T13:32:39+01:00</time>
      </trkpt>
      <trkpt lat="43.96495" lon="5.43128">
        <ele>802</ele>
        <time>2019-02-18T13:32:48+01:00</time>
      </trkpt>
      <trkpt lat="43.96486" lon="5.43101">
        <ele>799</ele>
        <time>2019-02-18T13:33:01+01:00</time>
      </trkpt>
      <trkpt lat="43.96484" lon="5.43099">
        <ele>798</ele>
        <time>2019-02-18T13:33:11+01:00</time>
      </trkpt>
      <trkpt lat="43.96482" lon="5.43098">
        <ele>798</ele>
        <time>2019-02-18T13:33:12+01:00</time>
      </trkpt>
      <trkpt lat="43.9648" lon="5.43098">
        <ele>797</ele>
        <time>2019-02-18T13:33:13+01:00</time>
      </trkpt>
      <trkpt lat="43.96478" lon="5.43098">
        <ele>797</ele>
        <time>2019-02-18T13:33:14+01:00</time>
      </trkpt>
      <trkpt lat="43.96476" lon="5.43097">
        <ele>796</ele>
        <time>2019-02-18T13:33:15+01:00</time>
      </trkpt>
      <trkpt lat="43.96475" lon="5.43097">
        <ele>796</ele>
        <time>2019-02-18T13:33:16+01:00</time>
      </trkpt>
      <trkpt lat="43.96474" lon="5.43097">
        <ele>796</ele>
        <time>2019-02-18T13:33:17+01:00</time>
      </trkpt>
      <trkpt lat="43.96468" lon="5.43095">
        <ele>795</ele>
        <time>2019-02-18T13:33:27+01:00</time>
      </trkpt>
      <trkpt lat="43.96467" lon="5.43094">
        <ele>794</ele>
        <time>2019-02-18T13:33:29+01:00</time>
      </trkpt>
      <trkpt lat="43.96466" lon="5.43094">
        <ele>794</ele>
        <time>2019-02-18T13:33:30+01:00</time>
      </trkpt>
      <trkpt lat="43.96464" lon="5.43093">
        <ele>794</ele>
        <time>2019-02-18T13:33:31+01:00</time>
      </trkpt>
      <trkpt lat="43.96463" lon="5.43091">
        <ele>794</ele>
        <time>2019-02-18T13:33:32+01:00</time>
      </trkpt>
      <trkpt lat="43.96462" lon="5.4309">
        <ele>793</ele>
        <time>2019-02-18T13:33:33+01:00</time>
      </trkpt>
      <trkpt lat="43.96461" lon="5.43089">
        <ele>793</ele>
        <time>2019-02-18T13:33:34+01:00</time>
      </trkpt>
      <trkpt lat="43.9646" lon="5.43089">
        <ele>793</ele>
        <time>2019-02-18T13:33:35+01:00</time>
      </trkpt>
      <trkpt lat="43.96459" lon="5.43088">
        <ele>793</ele>
        <time>2019-02-18T13:33:36+01:00</time>
      </trkpt>
      <trkpt lat="43.96459" lon="5.43086">
        <ele>793</ele>
        <time>2019-02-18T13:33:46+01:00</time>
      </trkpt>
      <trkpt lat="43.96457" lon="5.43083">
        <ele>792</ele>
        <time>2019-02-18T13:33:51+01:00</time>
      </trkpt>
      <trkpt lat="43.96456" lon="5.4308">
        <ele>792</ele>
        <time>2019-02-18T13:33:52+01:00</time>
      </trkpt>
      <trkpt lat="43.96455" lon="5.43078">
        <ele>792</ele>
        <time>2019-02-18T13:33:53+01:00</time>
      </trkpt>
      <trkpt lat="43.96455" lon="5.43076">
        <ele>791</ele>
        <time>2019-02-18T13:33:54+01:00</time>
      </trkpt>
      <trkpt lat="43.96456" lon="5.4307">
        <ele>791</ele>
        <time>2019-02-18T13:34:00+01:00</time>
      </trkpt>
      <trkpt lat="43.96456" lon="5.43068">
        <ele>791</ele>
        <time>2019-02-18T13:34:01+01:00</time>
      </trkpt>
      <trkpt lat="43.96456" lon="5.43066">
        <ele>791</ele>
        <time>2019-02-18T13:34:02+01:00</time>
      </trkpt>
      <trkpt lat="43.96456" lon="5.43064">
        <ele>791</ele>
        <time>2019-02-18T13:34:03+01:00</time>
      </trkpt>
      <trkpt lat="43.96456" lon="5.43062">
        <ele>791</ele>
        <time>2019-02-18T13:34:04+01:00</time>
      </trkpt>
      <trkpt lat="43.96462" lon="5.43032">
        <ele>790</ele>
        <time>2019-02-18T13:34:19+01:00</time>
      </trkpt>
      <trkpt lat="43.96466" lon="5.43012">
        <ele>790</ele>
        <time>2019-02-18T13:34:30+01:00</time>
      </trkpt>
      <trkpt lat="43.96466" lon="5.4301">
        <ele>790</ele>
        <time>2019-02-18T13:34:31+01:00</time>
      </trkpt>
      <trkpt lat="43.96468" lon="5.43001">
        <ele>789</ele>
        <time>2019-02-18T13:34:41+01:00</time>
      </trkpt>
      <trkpt lat="43.96467" lon="5.42999">
        <ele>789</ele>
        <time>2019-02-18T13:34:51+01:00</time>
      </trkpt>
      <trkpt lat="43.96468" lon="5.42993">
        <ele>789</ele>
        <time>2019-02-18T13:35:02+01:00</time>
      </trkpt>
      <trkpt lat="43.96469" lon="5.42989">
        <ele>789</ele>
        <time>2019-02-18T13:35:07+01:00</time>
      </trkpt>
      <trkpt lat="43.9647" lon="5.42986">
        <ele>789</ele>
        <time>2019-02-18T13:35:08+01:00</time>
      </trkpt>
      <trkpt lat="43.9647" lon="5.42983">
        <ele>788</ele>
        <time>2019-02-18T13:35:09+01:00</time>
      </trkpt>
      <trkpt lat="43.96471" lon="5.4298">
        <ele>788</ele>
        <time>2019-02-18T13:35:10+01:00</time>
      </trkpt>
      <trkpt lat="43.96472" lon="5.42977">
        <ele>788</ele>
        <time>2019-02-18T13:35:11+01:00</time>
      </trkpt>
      <trkpt lat="43.96482" lon="5.42949">
        <ele>788</ele>
        <time>2019-02-18T13:35:23+01:00</time>
      </trkpt>
      <trkpt lat="43.96484" lon="5.42946">
        <ele>788</ele>
        <time>2019-02-18T13:35:34+01:00</time>
      </trkpt>
      <trkpt lat="43.96487" lon="5.42916">
        <ele>786</ele>
        <time>2019-02-18T13:35:55+01:00</time>
      </trkpt>
      <trkpt lat="43.96496" lon="5.4289">
        <ele>784</ele>
        <time>2019-02-18T13:36:14+01:00</time>
      </trkpt>
      <trkpt lat="43.96497" lon="5.42889">
        <ele>784</ele>
        <time>2019-02-18T13:36:15+01:00</time>
      </trkpt>
      <trkpt lat="43.96498" lon="5.42888">
        <ele>784</ele>
        <time>2019-02-18T13:36:16+01:00</time>
      </trkpt>
      <trkpt lat="43.96499" lon="5.42886">
        <ele>784</ele>
        <time>2019-02-18T13:36:17+01:00</time>
      </trkpt>
      <trkpt lat="43.965" lon="5.42885">
        <ele>784</ele>
        <time>2019-02-18T13:36:18+01:00</time>
      </trkpt>
      <trkpt lat="43.96501" lon="5.42884">
        <ele>783</ele>
        <time>2019-02-18T13:36:19+01:00</time>
      </trkpt>
      <trkpt lat="43.96501" lon="5.42882">
        <ele>783</ele>
        <time>2019-02-18T13:36:20+01:00</time>
      </trkpt>
      <trkpt lat="43.96506" lon="5.42871">
        <ele>783</ele>
        <time>2019-02-18T13:36:33+01:00</time>
      </trkpt>
      <trkpt lat="43.9652" lon="5.42843">
        <ele>781</ele>
        <time>2019-02-18T13:36:53+01:00</time>
      </trkpt>
      <trkpt lat="43.96536" lon="5.42822">
        <ele>780</ele>
        <time>2019-02-18T13:37:12+01:00</time>
      </trkpt>
      <trkpt lat="43.96552" lon="5.42805">
        <ele>780</ele>
        <time>2019-02-18T13:37:30+01:00</time>
      </trkpt>
      <trkpt lat="43.9656" lon="5.42779">
        <ele>780</ele>
        <time>2019-02-18T13:37:52+01:00</time>
      </trkpt>
      <trkpt lat="43.96555" lon="5.42773">
        <ele>779</ele>
        <time>2019-02-18T13:37:58+01:00</time>
      </trkpt>
      <trkpt lat="43.96555" lon="5.42771">
        <ele>779</ele>
        <time>2019-02-18T13:37:59+01:00</time>
      </trkpt>
      <trkpt lat="43.96549" lon="5.42757">
        <ele>778</ele>
        <time>2019-02-18T13:38:09+01:00</time>
      </trkpt>
      <trkpt lat="43.96534" lon="5.42727">
        <ele>777</ele>
        <time>2019-02-18T13:38:32+01:00</time>
      </trkpt>
      <trkpt lat="43.96522" lon="5.42699">
        <ele>777</ele>
        <time>2019-02-18T13:38:53+01:00</time>
      </trkpt>
      <trkpt lat="43.96517" lon="5.42671">
        <ele>776</ele>
        <time>2019-02-18T13:39:12+01:00</time>
      </trkpt>
      <trkpt lat="43.9652" lon="5.42645">
        <ele>774</ele>
        <time>2019-02-18T13:39:30+01:00</time>
      </trkpt>
      <trkpt lat="43.96522" lon="5.42624">
        <ele>772</ele>
        <time>2019-02-18T13:39:47+01:00</time>
      </trkpt>
      <trkpt lat="43.96522" lon="5.42624">
        <ele>773</ele>
        <time>2019-02-18T13:40:01+01:00</time>
      </trkpt>
      <trkpt lat="43.96529" lon="5.42625">
        <ele>773</ele>
        <time>2019-02-18T13:40:09+01:00</time>
      </trkpt>
      <trkpt lat="43.96537" lon="5.42627">
        <ele>774</ele>
        <time>2019-02-18T13:40:22+01:00</time>
      </trkpt>
      <trkpt lat="43.96549" lon="5.4263">
        <ele>775</ele>
        <time>2019-02-18T13:40:32+01:00</time>
      </trkpt>
      <trkpt lat="43.96571" lon="5.42637">
        <ele>778</ele>
        <time>2019-02-18T13:40:51+01:00</time>
      </trkpt>
      <trkpt lat="43.96591" lon="5.42638">
        <ele>780</ele>
        <time>2019-02-18T13:41:10+01:00</time>
      </trkpt>
      <trkpt lat="43.96606" lon="5.42639">
        <ele>782</ele>
        <time>2019-02-18T13:41:26+01:00</time>
      </trkpt>
      <trkpt lat="43.96622" lon="5.42644">
        <ele>783</ele>
        <time>2019-02-18T13:41:43+01:00</time>
      </trkpt>
      <trkpt lat="43.96632" lon="5.42642">
        <ele>784</ele>
        <time>2019-02-18T13:41:53+01:00</time>
      </trkpt>
      <trkpt lat="43.96638" lon="5.42639">
        <ele>784</ele>
        <time>2019-02-18T13:42:05+01:00</time>
      </trkpt>
      <trkpt lat="43.96637" lon="5.42642">
        <ele>784</ele>
        <time>2019-02-18T13:42:18+01:00</time>
      </trkpt>
      <trkpt lat="43.96637" lon="5.42646">
        <ele>785</ele>
        <time>2019-02-18T13:42:21+01:00</time>
      </trkpt>
      <trkpt lat="43.96637" lon="5.42649">
        <ele>785</ele>
        <time>2019-02-18T13:42:30+01:00</time>
      </trkpt>
      <trkpt lat="43.96638" lon="5.42645">
        <ele>785</ele>
        <time>2019-02-18T13:42:42+01:00</time>
      </trkpt>
      <trkpt lat="43.96636" lon="5.42645">
        <ele>784</ele>
        <time>2019-02-18T13:42:56+01:00</time>
      </trkpt>
      <trkpt lat="43.96639" lon="5.4264">
        <ele>784</ele>
        <time>2019-02-18T13:43:04+01:00</time>
      </trkpt>
      <trkpt lat="43.96641" lon="5.42638">
        <ele>784</ele>
        <time>2019-02-18T13:43:05+01:00</time>
      </trkpt>
      <trkpt lat="43.96644" lon="5.42636">
        <ele>784</ele>
        <time>2019-02-18T13:43:07+01:00</time>
      </trkpt>
      <trkpt lat="43.96648" lon="5.42633">
        <ele>784</ele>
        <time>2019-02-18T13:43:13+01:00</time>
      </trkpt>
      <trkpt lat="43.96649" lon="5.42631">
        <ele>784</ele>
        <time>2019-02-18T13:43:14+01:00</time>
      </trkpt>
      <trkpt lat="43.96653" lon="5.42625">
        <ele>784</ele>
        <time>2019-02-18T13:43:19+01:00</time>
      </trkpt>
      <trkpt lat="43.96654" lon="5.42624">
        <ele>784</ele>
        <time>2019-02-18T13:43:20+01:00</time>
      </trkpt>
      <trkpt lat="43.96659" lon="5.42616">
        <ele>784</ele>
        <time>2019-02-18T13:43:27+01:00</time>
      </trkpt>
      <trkpt lat="43.9666" lon="5.42613">
        <ele>783</ele>
        <time>2019-02-18T13:43:28+01:00</time>
      </trkpt>
      <trkpt lat="43.9666" lon="5.42611">
        <ele>783</ele>
        <time>2019-02-18T13:43:29+01:00</time>
      </trkpt>
      <trkpt lat="43.96662" lon="5.42605">
        <ele>783</ele>
        <time>2019-02-18T13:43:32+01:00</time>
      </trkpt>
      <trkpt lat="43.96661" lon="5.42602">
        <ele>782</ele>
        <time>2019-02-18T13:43:33+01:00</time>
      </trkpt>
      <trkpt lat="43.96661" lon="5.426">
        <ele>782</ele>
        <time>2019-02-18T13:43:34+01:00</time>
      </trkpt>
      <trkpt lat="43.96661" lon="5.42601">
        <ele>782</ele>
        <time>2019-02-18T13:43:45+01:00</time>
      </trkpt>
      <trkpt lat="43.96657" lon="5.42592">
        <ele>781</ele>
        <time>2019-02-18T13:43:56+01:00</time>
      </trkpt>
      <trkpt lat="43.96657" lon="5.42583">
        <ele>779</ele>
        <time>2019-02-18T13:44:06+01:00</time>
      </trkpt>
      <trkpt lat="43.96655" lon="5.42563">
        <ele>776</ele>
        <time>2019-02-18T13:44:20+01:00</time>
      </trkpt>
      <trkpt lat="43.96658" lon="5.42562">
        <ele>776</ele>
        <time>2019-02-18T13:44:29+01:00</time>
      </trkpt>
      <trkpt lat="43.9666" lon="5.4256">
        <ele>776</ele>
        <time>2019-02-18T13:44:31+01:00</time>
      </trkpt>
      <trkpt lat="43.96664" lon="5.42556">
        <ele>776</ele>
        <time>2019-02-18T13:44:34+01:00</time>
      </trkpt>
      <trkpt lat="43.96666" lon="5.42554">
        <ele>776</ele>
        <time>2019-02-18T13:44:35+01:00</time>
      </trkpt>
      <trkpt lat="43.96668" lon="5.42553">
        <ele>776</ele>
        <time>2019-02-18T13:44:36+01:00</time>
      </trkpt>
      <trkpt lat="43.9667" lon="5.42552">
        <ele>776</ele>
        <time>2019-02-18T13:44:37+01:00</time>
      </trkpt>
      <trkpt lat="43.96671" lon="5.42551">
        <ele>776</ele>
        <time>2019-02-18T13:44:38+01:00</time>
      </trkpt>
      <trkpt lat="43.96672" lon="5.4255">
        <ele>776</ele>
        <time>2019-02-18T13:44:39+01:00</time>
      </trkpt>
      <trkpt lat="43.96673" lon="5.42549">
        <ele>776</ele>
        <time>2019-02-18T13:44:40+01:00</time>
      </trkpt>
      <trkpt lat="43.96677" lon="5.42548">
        <ele>776</ele>
        <time>2019-02-18T13:44:52+01:00</time>
      </trkpt>
      <trkpt lat="43.96676" lon="5.42547">
        <ele>775</ele>
        <time>2019-02-18T13:44:53+01:00</time>
      </trkpt>
      <trkpt lat="43.96678" lon="5.42541">
        <ele>775</ele>
        <time>2019-02-18T13:44:56+01:00</time>
      </trkpt>
      <trkpt lat="43.96683" lon="5.42517">
        <ele>771</ele>
        <time>2019-02-18T13:45:10+01:00</time>
      </trkpt>
      <trkpt lat="43.96683" lon="5.42499">
        <ele>767</ele>
        <time>2019-02-18T13:45:23+01:00</time>
      </trkpt>
      <trkpt lat="43.96682" lon="5.42477">
        <ele>763</ele>
        <time>2019-02-18T13:45:41+01:00</time>
      </trkpt>
      <trkpt lat="43.96673" lon="5.42465">
        <ele>760</ele>
        <time>2019-02-18T13:45:57+01:00</time>
      </trkpt>
      <trkpt lat="43.9667" lon="5.42452">
        <ele>757</ele>
        <time>2019-02-18T13:46:09+01:00</time>
      </trkpt>
      <trkpt lat="43.96665" lon="5.42436">
        <ele>755</ele>
        <time>2019-02-18T13:46:23+01:00</time>
      </trkpt>
      <trkpt lat="43.9666" lon="5.42426">
        <ele>752</ele>
        <time>2019-02-18T13:46:40+01:00</time>
      </trkpt>
      <trkpt lat="43.96652" lon="5.42412">
        <ele>749</ele>
        <time>2019-02-18T13:46:56+01:00</time>
      </trkpt>
      <trkpt lat="43.96646" lon="5.42402">
        <ele>746</ele>
        <time>2019-02-18T13:47:11+01:00</time>
      </trkpt>
      <trkpt lat="43.96638" lon="5.42395">
        <ele>743</ele>
        <time>2019-02-18T13:47:25+01:00</time>
      </trkpt>
      <trkpt lat="43.96634" lon="5.4239">
        <ele>741</ele>
        <time>2019-02-18T13:47:32+01:00</time>
      </trkpt>
      <trkpt lat="43.96632" lon="5.42387">
        <ele>740</ele>
        <time>2019-02-18T13:47:42+01:00</time>
      </trkpt>
      <trkpt lat="43.96624" lon="5.42377">
        <ele>737</ele>
        <time>2019-02-18T13:47:52+01:00</time>
      </trkpt>
      <trkpt lat="43.96621" lon="5.42372">
        <ele>736</ele>
        <time>2019-02-18T13:48:01+01:00</time>
      </trkpt>
      <trkpt lat="43.96618" lon="5.42367">
        <ele>735</ele>
        <time>2019-02-18T13:48:12+01:00</time>
      </trkpt>
      <trkpt lat="43.9661" lon="5.42359">
        <ele>733</ele>
        <time>2019-02-18T13:48:26+01:00</time>
      </trkpt>
      <trkpt lat="43.96601" lon="5.42352">
        <ele>730</ele>
        <time>2019-02-18T13:48:40+01:00</time>
      </trkpt>
      <trkpt lat="43.96598" lon="5.4235">
        <ele>730</ele>
        <time>2019-02-18T13:48:44+01:00</time>
      </trkpt>
      <trkpt lat="43.96582" lon="5.42341">
        <ele>726</ele>
        <time>2019-02-18T13:48:58+01:00</time>
      </trkpt>
      <trkpt lat="43.96574" lon="5.42335">
        <ele>724</ele>
        <time>2019-02-18T13:49:08+01:00</time>
      </trkpt>
      <trkpt lat="43.96564" lon="5.42322">
        <ele>719</ele>
        <time>2019-02-18T13:49:22+01:00</time>
      </trkpt>
      <trkpt lat="43.96558" lon="5.42314">
        <ele>716</ele>
        <time>2019-02-18T13:49:29+01:00</time>
      </trkpt>
      <trkpt lat="43.9655" lon="5.42302">
        <ele>713</ele>
        <time>2019-02-18T13:49:42+01:00</time>
      </trkpt>
      <trkpt lat="43.96542" lon="5.42285">
        <ele>710</ele>
        <time>2019-02-18T13:49:55+01:00</time>
      </trkpt>
      <trkpt lat="43.96531" lon="5.4227">
        <ele>707</ele>
        <time>2019-02-18T13:50:09+01:00</time>
      </trkpt>
      <trkpt lat="43.96524" lon="5.42252">
        <ele>705</ele>
        <time>2019-02-18T13:50:25+01:00</time>
      </trkpt>
      <trkpt lat="43.96517" lon="5.42232">
        <ele>702</ele>
        <time>2019-02-18T13:50:41+01:00</time>
      </trkpt>
      <trkpt lat="43.96508" lon="5.42214">
        <ele>699</ele>
        <time>2019-02-18T13:50:57+01:00</time>
      </trkpt>
      <trkpt lat="43.96505" lon="5.422">
        <ele>696</ele>
        <time>2019-02-18T13:51:07+01:00</time>
      </trkpt>
      <trkpt lat="43.96498" lon="5.4218">
        <ele>692</ele>
        <time>2019-02-18T13:51:23+01:00</time>
      </trkpt>
      <trkpt lat="43.96493" lon="5.42168">
        <ele>690</ele>
        <time>2019-02-18T13:51:34+01:00</time>
      </trkpt>
      <trkpt lat="43.96494" lon="5.42153">
        <ele>688</ele>
        <time>2019-02-18T13:51:44+01:00</time>
      </trkpt>
      <trkpt lat="43.96496" lon="5.42154">
        <ele>689</ele>
        <time>2019-02-18T13:51:57+01:00</time>
      </trkpt>
      <trkpt lat="43.96494" lon="5.42154">
        <ele>688</ele>
        <time>2019-02-18T13:52:34+01:00</time>
      </trkpt>
      <trkpt lat="43.96494" lon="5.42153">
        <ele>688</ele>
        <time>2019-02-18T13:52:52+01:00</time>
      </trkpt>
      <trkpt lat="43.96498" lon="5.4214">
        <ele>688</ele>
        <time>2019-02-18T13:53:09+01:00</time>
      </trkpt>
      <trkpt lat="43.96505" lon="5.4212">
        <ele>688</ele>
        <time>2019-02-18T13:53:26+01:00</time>
      </trkpt>
      <trkpt lat="43.96506" lon="5.42101">
        <ele>686</ele>
        <time>2019-02-18T13:53:41+01:00</time>
      </trkpt>
      <trkpt lat="43.96507" lon="5.42089">
        <ele>685</ele>
        <time>2019-02-18T13:53:56+01:00</time>
      </trkpt>
      <trkpt lat="43.96511" lon="5.42091">
        <ele>686</ele>
        <time>2019-02-18T13:54:09+01:00</time>
      </trkpt>
      <trkpt lat="43.96508" lon="5.42089">
        <ele>685</ele>
        <time>2019-02-18T13:54:21+01:00</time>
      </trkpt>
      <trkpt lat="43.96506" lon="5.42092">
        <ele>685</ele>
        <time>2019-02-18T13:54:39+01:00</time>
      </trkpt>
      <trkpt lat="43.96509" lon="5.42094">
        <ele>686</ele>
        <time>2019-02-18T13:54:44+01:00</time>
      </trkpt>
      <trkpt lat="43.96514" lon="5.42097">
        <ele>687</ele>
        <time>2019-02-18T13:55:02+01:00</time>
      </trkpt>
      <trkpt lat="43.96509" lon="5.42091">
        <ele>685</ele>
        <time>2019-02-18T13:55:15+01:00</time>
      </trkpt>
      <trkpt lat="43.96511" lon="5.42088">
        <ele>685</ele>
        <time>2019-02-18T13:55:33+01:00</time>
      </trkpt>
      <trkpt lat="43.96508" lon="5.4209">
        <ele>685</ele>
        <time>2019-02-18T13:55:48+01:00</time>
      </trkpt>
      <trkpt lat="43.96509" lon="5.42091">
        <ele>685</ele>
        <time>2019-02-18T13:56:04+01:00</time>
      </trkpt>
      <trkpt lat="43.96505" lon="5.42092">
        <ele>685</ele>
        <time>2019-02-18T13:56:20+01:00</time>
      </trkpt>
      <trkpt lat="43.96505" lon="5.4209">
        <ele>685</ele>
        <time>2019-02-18T13:56:38+01:00</time>
      </trkpt>
      <trkpt lat="43.96505" lon="5.42088">
        <ele>685</ele>
        <time>2019-02-18T13:56:54+01:00</time>
      </trkpt>
      <trkpt lat="43.96508" lon="5.42089">
        <ele>685</ele>
        <time>2019-02-18T13:57:11+01:00</time>
      </trkpt>
      <trkpt lat="43.96507" lon="5.42093">
        <ele>685</ele>
        <time>2019-02-18T13:57:30+01:00</time>
      </trkpt>
      <trkpt lat="43.96505" lon="5.42087">
        <ele>685</ele>
        <time>2019-02-18T13:57:54+01:00</time>
      </trkpt>
      <trkpt lat="43.96509" lon="5.42081">
        <ele>684</ele>
        <time>2019-02-18T13:58:10+01:00</time>
      </trkpt>
      <trkpt lat="43.96512" lon="5.42079">
        <ele>684</ele>
        <time>2019-02-18T13:58:14+01:00</time>
      </trkpt>
      <trkpt lat="43.96514" lon="5.42079">
        <ele>684</ele>
        <time>2019-02-18T13:58:31+01:00</time>
      </trkpt>
      <trkpt lat="43.96509" lon="5.42087">
        <ele>685</ele>
        <time>2019-02-18T13:58:42+01:00</time>
      </trkpt>
      <trkpt lat="43.96506" lon="5.42094">
        <ele>685</ele>
        <time>2019-02-18T13:58:56+01:00</time>
      </trkpt>
      <trkpt lat="43.96508" lon="5.42089">
        <ele>685</ele>
        <time>2019-02-18T13:59:10+01:00</time>
      </trkpt>
      <trkpt lat="43.96505" lon="5.42095">
        <ele>685</ele>
        <time>2019-02-18T13:59:24+01:00</time>
      </trkpt>
      <trkpt lat="43.96505" lon="5.42105">
        <ele>686</ele>
        <time>2019-02-18T13:59:32+01:00</time>
      </trkpt>
      <trkpt lat="43.96504" lon="5.42118">
        <ele>687</ele>
        <time>2019-02-18T13:59:45+01:00</time>
      </trkpt>
      <trkpt lat="43.96504" lon="5.42121">
        <ele>687</ele>
        <time>2019-02-18T13:59:46+01:00</time>
      </trkpt>
      <trkpt lat="43.96503" lon="5.42123">
        <ele>687</ele>
        <time>2019-02-18T13:59:47+01:00</time>
      </trkpt>
      <trkpt lat="43.96498" lon="5.42132">
        <ele>687</ele>
        <time>2019-02-18T13:59:54+01:00</time>
      </trkpt>
      <trkpt lat="43.96496" lon="5.42137">
        <ele>687</ele>
        <time>2019-02-18T14:00:01+01:00</time>
      </trkpt>
      <trkpt lat="43.96495" lon="5.4214">
        <ele>687</ele>
        <time>2019-02-18T14:00:02+01:00</time>
      </trkpt>
      <trkpt lat="43.96495" lon="5.42142">
        <ele>687</ele>
        <time>2019-02-18T14:00:03+01:00</time>
      </trkpt>
      <trkpt lat="43.96494" lon="5.42145">
        <ele>687</ele>
        <time>2019-02-18T14:00:04+01:00</time>
      </trkpt>
      <trkpt lat="43.96494" lon="5.42148">
        <ele>688</ele>
        <time>2019-02-18T14:00:05+01:00</time>
      </trkpt>
      <trkpt lat="43.96494" lon="5.42151">
        <ele>688</ele>
        <time>2019-02-18T14:00:06+01:00</time>
      </trkpt>
      <trkpt lat="43.96494" lon="5.42153">
        <ele>688</ele>
        <time>2019-02-18T14:00:07+01:00</time>
      </trkpt>
      <trkpt lat="43.96493" lon="5.42155">
        <ele>688</ele>
        <time>2019-02-18T14:00:08+01:00</time>
      </trkpt>
      <trkpt lat="43.96492" lon="5.42157">
        <ele>688</ele>
        <time>2019-02-18T14:00:09+01:00</time>
      </trkpt>
      <trkpt lat="43.96488" lon="5.42169">
        <ele>689</ele>
        <time>2019-02-18T14:00:22+01:00</time>
      </trkpt>
      <trkpt lat="43.96484" lon="5.42173">
        <ele>689</ele>
        <time>2019-02-18T14:00:26+01:00</time>
      </trkpt>
      <trkpt lat="43.9648" lon="5.42179">
        <ele>690</ele>
        <time>2019-02-18T14:00:37+01:00</time>
      </trkpt>
      <trkpt lat="43.96463" lon="5.4219">
        <ele>691</ele>
        <time>2019-02-18T14:00:48+01:00</time>
      </trkpt>
      <trkpt lat="43.96456" lon="5.42179">
        <ele>689</ele>
        <time>2019-02-18T14:01:00+01:00</time>
      </trkpt>
      <trkpt lat="43.96454" lon="5.42175">
        <ele>688</ele>
        <time>2019-02-18T14:01:04+01:00</time>
      </trkpt>
      <trkpt lat="43.96438" lon="5.42164">
        <ele>685</ele>
        <time>2019-02-18T14:01:20+01:00</time>
      </trkpt>
      <trkpt lat="43.96421" lon="5.42166">
        <ele>685</ele>
        <time>2019-02-18T14:01:37+01:00</time>
      </trkpt>
      <trkpt lat="43.96406" lon="5.42165">
        <ele>685</ele>
        <time>2019-02-18T14:01:52+01:00</time>
      </trkpt>
      <trkpt lat="43.96385" lon="5.42158">
        <ele>683</ele>
        <time>2019-02-18T14:02:10+01:00</time>
      </trkpt>
      <trkpt lat="43.96367" lon="5.42153">
        <ele>681</ele>
        <time>2019-02-18T14:02:29+01:00</time>
      </trkpt>
      <trkpt lat="43.9635" lon="5.42149">
        <ele>679</ele>
        <time>2019-02-18T14:02:44+01:00</time>
      </trkpt>
      <trkpt lat="43.96338" lon="5.42148">
        <ele>678</ele>
        <time>2019-02-18T14:02:58+01:00</time>
      </trkpt>
      <trkpt lat="43.96322" lon="5.42145">
        <ele>677</ele>
        <time>2019-02-18T14:03:13+01:00</time>
      </trkpt>
      <trkpt lat="43.96304" lon="5.4214">
        <ele>675</ele>
        <time>2019-02-18T14:03:30+01:00</time>
      </trkpt>
      <trkpt lat="43.96294" lon="5.42137">
        <ele>675</ele>
        <time>2019-02-18T14:03:39+01:00</time>
      </trkpt>
      <trkpt lat="43.96276" lon="5.42136">
        <ele>674</ele>
        <time>2019-02-18T14:03:57+01:00</time>
      </trkpt>
      <trkpt lat="43.96256" lon="5.42134">
        <ele>674</ele>
        <time>2019-02-18T14:04:16+01:00</time>
      </trkpt>
      <trkpt lat="43.96236" lon="5.42128">
        <ele>673</ele>
        <time>2019-02-18T14:04:34+01:00</time>
      </trkpt>
      <trkpt lat="43.96216" lon="5.42123">
        <ele>672</ele>
        <time>2019-02-18T14:04:52+01:00</time>
      </trkpt>
      <trkpt lat="43.96198" lon="5.42118">
        <ele>671</ele>
        <time>2019-02-18T14:05:09+01:00</time>
      </trkpt>
      <trkpt lat="43.9618" lon="5.42112">
        <ele>670</ele>
        <time>2019-02-18T14:05:26+01:00</time>
      </trkpt>
      <trkpt lat="43.96178" lon="5.42111">
        <ele>670</ele>
        <time>2019-02-18T14:05:28+01:00</time>
      </trkpt>
      <trkpt lat="43.96161" lon="5.42107">
        <ele>669</ele>
        <time>2019-02-18T14:05:44+01:00</time>
      </trkpt>
      <trkpt lat="43.96143" lon="5.42105">
        <ele>670</ele>
        <time>2019-02-18T14:06:03+01:00</time>
      </trkpt>
      <trkpt lat="43.96142" lon="5.42106">
        <ele>670</ele>
        <time>2019-02-18T14:06:04+01:00</time>
      </trkpt>
      <trkpt lat="43.9614" lon="5.42106">
        <ele>670</ele>
        <time>2019-02-18T14:06:05+01:00</time>
      </trkpt>
      <trkpt lat="43.96122" lon="5.42103">
        <ele>669</ele>
        <time>2019-02-18T14:06:19+01:00</time>
      </trkpt>
      <trkpt lat="43.96103" lon="5.42103">
        <ele>668</ele>
        <time>2019-02-18T14:06:37+01:00</time>
      </trkpt>
      <trkpt lat="43.96093" lon="5.42102">
        <ele>668</ele>
        <time>2019-02-18T14:06:46+01:00</time>
      </trkpt>
      <trkpt lat="43.96077" lon="5.42103">
        <ele>667</ele>
        <time>2019-02-18T14:07:03+01:00</time>
      </trkpt>
      <trkpt lat="43.9607" lon="5.42102">
        <ele>667</ele>
        <time>2019-02-18T14:07:08+01:00</time>
      </trkpt>
      <trkpt lat="43.96065" lon="5.42099">
        <ele>666</ele>
        <time>2019-02-18T14:07:19+01:00</time>
      </trkpt>
      <trkpt lat="43.96049" lon="5.42093">
        <ele>665</ele>
        <time>2019-02-18T14:07:32+01:00</time>
      </trkpt>
      <trkpt lat="43.96036" lon="5.42087">
        <ele>663</ele>
        <time>2019-02-18T14:07:44+01:00</time>
      </trkpt>
      <trkpt lat="43.96021" lon="5.42078">
        <ele>661</ele>
        <time>2019-02-18T14:08:00+01:00</time>
      </trkpt>
      <trkpt lat="43.9601" lon="5.42072">
        <ele>659</ele>
        <time>2019-02-18T14:08:12+01:00</time>
      </trkpt>
      <trkpt lat="43.96009" lon="5.42072">
        <ele>659</ele>
        <time>2019-02-18T14:08:13+01:00</time>
      </trkpt>
      <trkpt lat="43.95994" lon="5.42068">
        <ele>657</ele>
        <time>2019-02-18T14:08:30+01:00</time>
      </trkpt>
      <trkpt lat="43.95977" lon="5.42063">
        <ele>656</ele>
        <time>2019-02-18T14:08:46+01:00</time>
      </trkpt>
      <trkpt lat="43.95962" lon="5.42059">
        <ele>653</ele>
        <time>2019-02-18T14:09:03+01:00</time>
      </trkpt>
      <trkpt lat="43.95944" lon="5.4205">
        <ele>649</ele>
        <time>2019-02-18T14:09:20+01:00</time>
      </trkpt>
      <trkpt lat="43.95928" lon="5.42044">
        <ele>646</ele>
        <time>2019-02-18T14:09:39+01:00</time>
      </trkpt>
      <trkpt lat="43.95911" lon="5.42036">
        <ele>643</ele>
        <time>2019-02-18T14:09:57+01:00</time>
      </trkpt>
      <trkpt lat="43.95904" lon="5.42032">
        <ele>642</ele>
        <time>2019-02-18T14:10:04+01:00</time>
      </trkpt>
      <trkpt lat="43.95903" lon="5.42031">
        <ele>642</ele>
        <time>2019-02-18T14:10:05+01:00</time>
      </trkpt>
      <trkpt lat="43.95902" lon="5.42031">
        <ele>641</ele>
        <time>2019-02-18T14:10:06+01:00</time>
      </trkpt>
      <trkpt lat="43.95901" lon="5.4203">
        <ele>641</ele>
        <time>2019-02-18T14:10:07+01:00</time>
      </trkpt>
      <trkpt lat="43.95885" lon="5.42023">
        <ele>639</ele>
        <time>2019-02-18T14:10:25+01:00</time>
      </trkpt>
      <trkpt lat="43.95877" lon="5.4202">
        <ele>638</ele>
        <time>2019-02-18T14:10:33+01:00</time>
      </trkpt>
      <trkpt lat="43.95871" lon="5.42017">
        <ele>637</ele>
        <time>2019-02-18T14:10:39+01:00</time>
      </trkpt>
      <trkpt lat="43.95854" lon="5.42012">
        <ele>634</ele>
        <time>2019-02-18T14:10:56+01:00</time>
      </trkpt>
      <trkpt lat="43.9584" lon="5.42004">
        <ele>632</ele>
        <time>2019-02-18T14:11:13+01:00</time>
      </trkpt>
      <trkpt lat="43.95826" lon="5.41995">
        <ele>629</ele>
        <time>2019-02-18T14:11:30+01:00</time>
      </trkpt>
      <trkpt lat="43.95813" lon="5.41987">
        <ele>626</ele>
        <time>2019-02-18T14:11:48+01:00</time>
      </trkpt>
      <trkpt lat="43.958" lon="5.41979">
        <ele>624</ele>
        <time>2019-02-18T14:12:04+01:00</time>
      </trkpt>
      <trkpt lat="43.95788" lon="5.41971">
        <ele>621</ele>
        <time>2019-02-18T14:12:20+01:00</time>
      </trkpt>
      <trkpt lat="43.95768" lon="5.41963">
        <ele>617</ele>
        <time>2019-02-18T14:12:41+01:00</time>
      </trkpt>
      <trkpt lat="43.95757" lon="5.41962">
        <ele>616</ele>
        <time>2019-02-18T14:12:53+01:00</time>
      </trkpt>
      <trkpt lat="43.95755" lon="5.41962">
        <ele>615</ele>
        <time>2019-02-18T14:12:56+01:00</time>
      </trkpt>
      <trkpt lat="43.95753" lon="5.41963">
        <ele>615</ele>
        <time>2019-02-18T14:12:57+01:00</time>
      </trkpt>
      <trkpt lat="43.95752" lon="5.41963">
        <ele>615</ele>
        <time>2019-02-18T14:12:58+01:00</time>
      </trkpt>
      <trkpt lat="43.9575" lon="5.41963">
        <ele>615</ele>
        <time>2019-02-18T14:12:59+01:00</time>
      </trkpt>
      <trkpt lat="43.95748" lon="5.41963">
        <ele>615</ele>
        <time>2019-02-18T14:13:00+01:00</time>
      </trkpt>
      <trkpt lat="43.95737" lon="5.41963">
        <ele>614</ele>
        <time>2019-02-18T14:13:13+01:00</time>
      </trkpt>
      <trkpt lat="43.95721" lon="5.4196">
        <ele>611</ele>
        <time>2019-02-18T14:13:29+01:00</time>
      </trkpt>
      <trkpt lat="43.95703" lon="5.41959">
        <ele>609</ele>
        <time>2019-02-18T14:13:47+01:00</time>
      </trkpt>
      <trkpt lat="43.95688" lon="5.41955">
        <ele>608</ele>
        <time>2019-02-18T14:14:02+01:00</time>
      </trkpt>
      <trkpt lat="43.95671" lon="5.41949">
        <ele>607</ele>
        <time>2019-02-18T14:14:18+01:00</time>
      </trkpt>
      <trkpt lat="43.95655" lon="5.41938">
        <ele>605</ele>
        <time>2019-02-18T14:14:35+01:00</time>
      </trkpt>
      <trkpt lat="43.95642" lon="5.41932">
        <ele>604</ele>
        <time>2019-02-18T14:14:51+01:00</time>
      </trkpt>
      <trkpt lat="43.95639" lon="5.41931">
        <ele>604</ele>
        <time>2019-02-18T14:15:09+01:00</time>
      </trkpt>
      <trkpt lat="43.95634" lon="5.41931">
        <ele>604</ele>
        <time>2019-02-18T14:15:19+01:00</time>
      </trkpt>
      <trkpt lat="43.95634" lon="5.41933">
        <ele>604</ele>
        <time>2019-02-18T14:15:28+01:00</time>
      </trkpt>
      <trkpt lat="43.95635" lon="5.41932">
        <ele>604</ele>
        <time>2019-02-18T14:15:45+01:00</time>
      </trkpt>
      <trkpt lat="43.95632" lon="5.41932">
        <ele>604</ele>
        <time>2019-02-18T14:16:01+01:00</time>
      </trkpt>
      <trkpt lat="43.9563" lon="5.41932">
        <ele>604</ele>
        <time>2019-02-18T14:16:03+01:00</time>
      </trkpt>
      <trkpt lat="43.95628" lon="5.41932">
        <ele>604</ele>
        <time>2019-02-18T14:16:04+01:00</time>
      </trkpt>
      <trkpt lat="43.95627" lon="5.41932">
        <ele>604</ele>
        <time>2019-02-18T14:16:05+01:00</time>
      </trkpt>
      <trkpt lat="43.95625" lon="5.41932">
        <ele>604</ele>
        <time>2019-02-18T14:16:06+01:00</time>
      </trkpt>
      <trkpt lat="43.95618" lon="5.41931">
        <ele>604</ele>
        <time>2019-02-18T14:16:18+01:00</time>
      </trkpt>
      <trkpt lat="43.95601" lon="5.41932">
        <ele>604</ele>
        <time>2019-02-18T14:16:35+01:00</time>
      </trkpt>
      <trkpt lat="43.956" lon="5.41932">
        <ele>604</ele>
        <time>2019-02-18T14:16:36+01:00</time>
      </trkpt>
      <trkpt lat="43.95582" lon="5.41932">
        <ele>603</ele>
        <time>2019-02-18T14:16:51+01:00</time>
      </trkpt>
      <trkpt lat="43.9556" lon="5.41928">
        <ele>602</ele>
        <time>2019-02-18T14:17:08+01:00</time>
      </trkpt>
      <trkpt lat="43.9554" lon="5.41925">
        <ele>599</ele>
        <time>2019-02-18T14:17:25+01:00</time>
      </trkpt>
      <trkpt lat="43.95521" lon="5.41924">
        <ele>598</ele>
        <time>2019-02-18T14:17:41+01:00</time>
      </trkpt>
      <trkpt lat="43.95502" lon="5.41922">
        <ele>595</ele>
        <time>2019-02-18T14:17:54+01:00</time>
      </trkpt>
      <trkpt lat="43.95483" lon="5.41927">
        <ele>596</ele>
        <time>2019-02-18T14:18:12+01:00</time>
      </trkpt>
      <trkpt lat="43.95465" lon="5.41931">
        <ele>598</ele>
        <time>2019-02-18T14:18:27+01:00</time>
      </trkpt>
      <trkpt lat="43.95449" lon="5.41935">
        <ele>599</ele>
        <time>2019-02-18T14:18:43+01:00</time>
      </trkpt>
      <trkpt lat="43.95431" lon="5.41939">
        <ele>601</ele>
        <time>2019-02-18T14:18:59+01:00</time>
      </trkpt>
      <trkpt lat="43.95412" lon="5.41945">
        <ele>602</ele>
        <time>2019-02-18T14:19:17+01:00</time>
      </trkpt>
      <trkpt lat="43.95395" lon="5.41944">
        <ele>602</ele>
        <time>2019-02-18T14:19:30+01:00</time>
      </trkpt>
      <trkpt lat="43.95373" lon="5.41947">
        <ele>603</ele>
        <time>2019-02-18T14:19:49+01:00</time>
      </trkpt>
      <trkpt lat="43.95352" lon="5.41949">
        <ele>602</ele>
        <time>2019-02-18T14:20:07+01:00</time>
      </trkpt>
      <trkpt lat="43.95341" lon="5.41952">
        <ele>602</ele>
        <time>2019-02-18T14:20:22+01:00</time>
      </trkpt>
      <trkpt lat="43.95333" lon="5.4195">
        <ele>601</ele>
        <time>2019-02-18T14:20:32+01:00</time>
      </trkpt>
      <trkpt lat="43.95332" lon="5.41949">
        <ele>601</ele>
        <time>2019-02-18T14:20:33+01:00</time>
      </trkpt>
      <trkpt lat="43.95331" lon="5.41949">
        <ele>601</ele>
        <time>2019-02-18T14:20:34+01:00</time>
      </trkpt>
      <trkpt lat="43.95327" lon="5.41948">
        <ele>601</ele>
        <time>2019-02-18T14:20:38+01:00</time>
      </trkpt>
      <trkpt lat="43.95326" lon="5.41948">
        <ele>601</ele>
        <time>2019-02-18T14:20:39+01:00</time>
      </trkpt>
      <trkpt lat="43.95324" lon="5.41948">
        <ele>601</ele>
        <time>2019-02-18T14:20:40+01:00</time>
      </trkpt>
      <trkpt lat="43.95323" lon="5.41948">
        <ele>601</ele>
        <time>2019-02-18T14:20:41+01:00</time>
      </trkpt>
      <trkpt lat="43.95322" lon="5.41947">
        <ele>601</ele>
        <time>2019-02-18T14:20:42+01:00</time>
      </trkpt>
      <trkpt lat="43.95321" lon="5.41947">
        <ele>601</ele>
        <time>2019-02-18T14:20:43+01:00</time>
      </trkpt>
      <trkpt lat="43.95307" lon="5.41942">
        <ele>599</ele>
        <time>2019-02-18T14:20:52+01:00</time>
      </trkpt>
      <trkpt lat="43.95294" lon="5.41938">
        <ele>597</ele>
        <time>2019-02-18T14:21:06+01:00</time>
      </trkpt>
      <trkpt lat="43.95284" lon="5.41934">
        <ele>596</ele>
        <time>2019-02-18T14:21:15+01:00</time>
      </trkpt>
      <trkpt lat="43.95272" lon="5.41929">
        <ele>594</ele>
        <time>2019-02-18T14:21:28+01:00</time>
      </trkpt>
      <trkpt lat="43.9527" lon="5.41929">
        <ele>594</ele>
        <time>2019-02-18T14:21:30+01:00</time>
      </trkpt>
      <trkpt lat="43.95268" lon="5.41928">
        <ele>593</ele>
        <time>2019-02-18T14:21:32+01:00</time>
      </trkpt>
      <trkpt lat="43.95267" lon="5.41928">
        <ele>593</ele>
        <time>2019-02-18T14:21:33+01:00</time>
      </trkpt>
      <trkpt lat="43.95266" lon="5.41928">
        <ele>593</ele>
        <time>2019-02-18T14:21:34+01:00</time>
      </trkpt>
      <trkpt lat="43.95249" lon="5.41923">
        <ele>591</ele>
        <time>2019-02-18T14:21:49+01:00</time>
      </trkpt>
      <trkpt lat="43.95234" lon="5.4192">
        <ele>589</ele>
        <time>2019-02-18T14:22:03+01:00</time>
      </trkpt>
      <trkpt lat="43.95227" lon="5.41918">
        <ele>588</ele>
        <time>2019-02-18T14:22:09+01:00</time>
      </trkpt>
      <trkpt lat="43.95219" lon="5.41915">
        <ele>587</ele>
        <time>2019-02-18T14:22:18+01:00</time>
      </trkpt>
      <trkpt lat="43.95218" lon="5.41915">
        <ele>587</ele>
        <time>2019-02-18T14:22:19+01:00</time>
      </trkpt>
      <trkpt lat="43.95214" lon="5.41913">
        <ele>587</ele>
        <time>2019-02-18T14:22:21+01:00</time>
      </trkpt>
      <trkpt lat="43.95213" lon="5.41913">
        <ele>587</ele>
        <time>2019-02-18T14:22:22+01:00</time>
      </trkpt>
      <trkpt lat="43.95196" lon="5.41911">
        <ele>585</ele>
        <time>2019-02-18T14:22:37+01:00</time>
      </trkpt>
      <trkpt lat="43.95187" lon="5.41908">
        <ele>584</ele>
        <time>2019-02-18T14:22:46+01:00</time>
      </trkpt>
      <trkpt lat="43.95181" lon="5.41906">
        <ele>583</ele>
        <time>2019-02-18T14:22:51+01:00</time>
      </trkpt>
      <trkpt lat="43.95172" lon="5.41904">
        <ele>582</ele>
        <time>2019-02-18T14:23:03+01:00</time>
      </trkpt>
      <trkpt lat="43.95148" lon="5.41893">
        <ele>578</ele>
        <time>2019-02-18T14:23:19+01:00</time>
      </trkpt>
      <trkpt lat="43.95127" lon="5.41887">
        <ele>575</ele>
        <time>2019-02-18T14:23:33+01:00</time>
      </trkpt>
      <trkpt lat="43.95122" lon="5.41885">
        <ele>574</ele>
        <time>2019-02-18T14:23:37+01:00</time>
      </trkpt>
      <trkpt lat="43.9512" lon="5.41885">
        <ele>574</ele>
        <time>2019-02-18T14:23:38+01:00</time>
      </trkpt>
      <trkpt lat="43.95112" lon="5.41887">
        <ele>573</ele>
        <time>2019-02-18T14:23:49+01:00</time>
      </trkpt>
      <trkpt lat="43.95097" lon="5.41885">
        <ele>570</ele>
        <time>2019-02-18T14:24:03+01:00</time>
      </trkpt>
      <trkpt lat="43.95091" lon="5.41883">
        <ele>569</ele>
        <time>2019-02-18T14:24:15+01:00</time>
      </trkpt>
      <trkpt lat="43.95083" lon="5.41883">
        <ele>568</ele>
        <time>2019-02-18T14:24:32+01:00</time>
      </trkpt>
      <trkpt lat="43.95072" lon="5.41887">
        <ele>567</ele>
        <time>2019-02-18T14:24:43+01:00</time>
      </trkpt>
      <trkpt lat="43.95066" lon="5.41892">
        <ele>566</ele>
      </trkpt>
      <trkpt lat="43.9506" lon="5.41887">
        <ele>565</ele>
      </trkpt>
      <trkpt lat="43.95067" lon="5.4187">
        <ele>564</ele>
      </trkpt>
      <trkpt lat="43.95072" lon="5.41857">
        <ele>562</ele>
      </trkpt>
      <trkpt lat="43.95077" lon="5.41846">
        <ele>561</ele>
        <time>2019-02-18T14:24:54+01:00</time>
      </trkpt>
      <trkpt lat="43.95081" lon="5.41836">
        <ele>560</ele>
        <time>2019-02-18T14:25:04+01:00</time>
      </trkpt>
      <trkpt lat="43.95082" lon="5.41835">
        <ele>560</ele>
        <time>2019-02-18T14:25:05+01:00</time>
      </trkpt>
      <trkpt lat="43.95087" lon="5.41828">
        <ele>560</ele>
        <time>2019-02-18T14:25:14+01:00</time>
      </trkpt>
      <trkpt lat="43.95089" lon="5.41827">
        <ele>560</ele>
        <time>2019-02-18T14:25:15+01:00</time>
      </trkpt>
      <trkpt lat="43.9509" lon="5.41825">
        <ele>560</ele>
        <time>2019-02-18T14:25:16+01:00</time>
      </trkpt>
      <trkpt lat="43.95098" lon="5.41805">
        <ele>557</ele>
        <time>2019-02-18T14:25:26+01:00</time>
      </trkpt>
      <trkpt lat="43.95102" lon="5.41798">
        <ele>557</ele>
        <time>2019-02-18T14:25:38+01:00</time>
      </trkpt>
      <trkpt lat="43.95099" lon="5.41793">
        <ele>556</ele>
        <time>2019-02-18T14:25:48+01:00</time>
      </trkpt>
      <trkpt lat="43.95096" lon="5.41788">
        <ele>555</ele>
        <time>2019-02-18T14:25:57+01:00</time>
      </trkpt>
      <trkpt lat="43.95092" lon="5.41785">
        <ele>555</ele>
        <time>2019-02-18T14:25:59+01:00</time>
      </trkpt>
      <trkpt lat="43.95087" lon="5.41781">
        <ele>554</ele>
        <time>2019-02-18T14:26:07+01:00</time>
      </trkpt>
      <trkpt lat="43.95082" lon="5.41779">
        <ele>553</ele>
        <time>2019-02-18T14:26:10+01:00</time>
      </trkpt>
      <trkpt lat="43.95079" lon="5.41778">
        <ele>552</ele>
        <time>2019-02-18T14:26:11+01:00</time>
      </trkpt>
      <trkpt lat="43.95078" lon="5.41779">
        <ele>552</ele>
        <time>2019-02-18T14:26:12+01:00</time>
      </trkpt>
      <trkpt lat="43.95077" lon="5.41777">
        <ele>552</ele>
        <time>2019-02-18T14:26:18+01:00</time>
      </trkpt>
      <trkpt lat="43.95078" lon="5.41777">
        <ele>552</ele>
        <time>2019-02-18T14:26:19+01:00</time>
      </trkpt>
      <trkpt lat="43.95069" lon="5.41775">
        <ele>551</ele>
        <time>2019-02-18T14:26:29+01:00</time>
      </trkpt>
      <trkpt lat="43.95053" lon="5.41776">
        <ele>548</ele>
        <time>2019-02-18T14:26:45+01:00</time>
      </trkpt>
      <trkpt lat="43.95049" lon="5.4178">
        <ele>548</ele>
        <time>2019-02-18T14:26:49+01:00</time>
      </trkpt>
      <trkpt lat="43.95032" lon="5.41785">
        <ele>546</ele>
        <time>2019-02-18T14:26:58+01:00</time>
      </trkpt>
      <trkpt lat="43.95022" lon="5.41785">
        <ele>545</ele>
        <time>2019-02-18T14:27:09+01:00</time>
      </trkpt>
      <trkpt lat="43.9502" lon="5.41786">
        <ele>545</ele>
        <time>2019-02-18T14:27:10+01:00</time>
      </trkpt>
      <trkpt lat="43.95019" lon="5.41786">
        <ele>545</ele>
        <time>2019-02-18T14:27:11+01:00</time>
      </trkpt>
      <trkpt lat="43.95017" lon="5.41786">
        <ele>545</ele>
        <time>2019-02-18T14:27:12+01:00</time>
      </trkpt>
      <trkpt lat="43.95015" lon="5.41786">
        <ele>545</ele>
        <time>2019-02-18T14:27:13+01:00</time>
      </trkpt>
      <trkpt lat="43.95013" lon="5.41786">
        <ele>544</ele>
        <time>2019-02-18T14:27:14+01:00</time>
      </trkpt>
      <trkpt lat="43.95011" lon="5.41786">
        <ele>544</ele>
        <time>2019-02-18T14:27:15+01:00</time>
      </trkpt>
      <trkpt lat="43.94997" lon="5.41792">
        <ele>544</ele>
        <time>2019-02-18T14:27:25+01:00</time>
      </trkpt>
      <trkpt lat="43.94991" lon="5.41791">
        <ele>543</ele>
        <time>2019-02-18T14:27:35+01:00</time>
      </trkpt>
      <trkpt lat="43.94985" lon="5.41791">
        <ele>542</ele>
        <time>2019-02-18T14:27:45+01:00</time>
      </trkpt>
      <trkpt lat="43.94979" lon="5.41789">
        <ele>541</ele>
        <time>2019-02-18T14:27:50+01:00</time>
      </trkpt>
      <trkpt lat="43.94974" lon="5.41787">
        <ele>540</ele>
        <time>2019-02-18T14:27:55+01:00</time>
      </trkpt>
      <trkpt lat="43.9497" lon="5.4178">
        <ele>538</ele>
      </trkpt>
      <trkpt lat="43.94972" lon="5.41761">
        <ele>534</ele>
        <time>2019-02-18T14:28:03+01:00</time>
      </trkpt>
      <trkpt lat="43.94969" lon="5.41747">
        <ele>531</ele>
        <time>2019-02-18T14:28:15+01:00</time>
      </trkpt>
      <trkpt lat="43.94968" lon="5.41739">
        <ele>530</ele>
        <time>2019-02-18T14:28:29+01:00</time>
      </trkpt>
      <trkpt lat="43.94967" lon="5.41738">
        <ele>530</ele>
        <time>2019-02-18T14:28:30+01:00</time>
      </trkpt>
      <trkpt lat="43.94968" lon="5.41736">
        <ele>530</ele>
        <time>2019-02-18T14:28:31+01:00</time>
      </trkpt>
      <trkpt lat="43.94966" lon="5.41728">
        <ele>529</ele>
        <time>2019-02-18T14:28:43+01:00</time>
      </trkpt>
      <trkpt lat="43.94959" lon="5.41717">
        <ele>527</ele>
        <time>2019-02-18T14:28:53+01:00</time>
      </trkpt>
      <trkpt lat="43.94945" lon="5.41699">
        <ele>524</ele>
        <time>2019-02-18T14:29:06+01:00</time>
      </trkpt>
      <trkpt lat="43.94944" lon="5.41698">
        <ele>524</ele>
        <time>2019-02-18T14:29:07+01:00</time>
      </trkpt>
      <trkpt lat="43.94931" lon="5.41681">
        <ele>521</ele>
        <time>2019-02-18T14:29:19+01:00</time>
      </trkpt>
      <trkpt lat="43.94924" lon="5.41672">
        <ele>520</ele>
        <time>2019-02-18T14:29:30+01:00</time>
      </trkpt>
      <trkpt lat="43.94922" lon="5.41671">
        <ele>519</ele>
        <time>2019-02-18T14:29:42+01:00</time>
      </trkpt>
      <trkpt lat="43.94917" lon="5.41675">
        <ele>518</ele>
        <time>2019-02-18T14:29:58+01:00</time>
      </trkpt>
      <trkpt lat="43.94913" lon="5.41684">
        <ele>517</ele>
        <time>2019-02-18T14:30:15+01:00</time>
      </trkpt>
      <trkpt lat="43.94911" lon="5.41687">
        <ele>517</ele>
        <time>2019-02-18T14:30:18+01:00</time>
      </trkpt>
      <trkpt lat="43.94904" lon="5.41699">
        <ele>516</ele>
        <time>2019-02-18T14:30:29+01:00</time>
      </trkpt>
      <trkpt lat="43.94903" lon="5.41702">
        <ele>516</ele>
        <time>2019-02-18T14:30:31+01:00</time>
      </trkpt>
      <trkpt lat="43.94899" lon="5.41706">
        <ele>516</ele>
        <time>2019-02-18T14:30:36+01:00</time>
      </trkpt>
      <trkpt lat="43.94899" lon="5.41728">
        <ele>517</ele>
        <time>2019-02-18T14:30:51+01:00</time>
      </trkpt>
      <trkpt lat="43.94898" lon="5.41745">
        <ele>519</ele>
        <time>2019-02-18T14:31:06+01:00</time>
      </trkpt>
      <trkpt lat="43.94892" lon="5.41745">
        <ele>518</ele>
        <time>2019-02-18T14:31:18+01:00</time>
      </trkpt>
      <trkpt lat="43.94889" lon="5.41738">
        <ele>517</ele>
        <time>2019-02-18T14:31:31+01:00</time>
      </trkpt>
      <trkpt lat="43.94893" lon="5.41739">
        <ele>517</ele>
        <time>2019-02-18T14:31:49+01:00</time>
      </trkpt>
      <trkpt lat="43.94897" lon="5.41741">
        <ele>518</ele>
        <time>2019-02-18T14:32:23+01:00</time>
      </trkpt>
      <trkpt lat="43.94894" lon="5.41742">
        <ele>518</ele>
        <time>2019-02-18T14:32:43+01:00</time>
      </trkpt>
      <trkpt lat="43.94894" lon="5.41744">
        <ele>518</ele>
        <time>2019-02-18T14:32:56+01:00</time>
      </trkpt>
      <trkpt lat="43.94894" lon="5.41746">
        <ele>518</ele>
        <time>2019-02-18T14:32:58+01:00</time>
      </trkpt>
      <trkpt lat="43.94892" lon="5.41754">
        <ele>519</ele>
        <time>2019-02-18T14:33:17+01:00</time>
      </trkpt>
      <trkpt lat="43.94888" lon="5.41756">
        <ele>519</ele>
        <time>2019-02-18T14:33:27+01:00</time>
      </trkpt>
      <trkpt lat="43.94895" lon="5.41745">
        <ele>518</ele>
        <time>2019-02-18T14:33:37+01:00</time>
      </trkpt>
      <trkpt lat="43.949" lon="5.41732">
        <ele>518</ele>
        <time>2019-02-18T14:33:50+01:00</time>
      </trkpt>
      <trkpt lat="43.94902" lon="5.41708">
        <ele>516</ele>
        <time>2019-02-18T14:34:09+01:00</time>
      </trkpt>
      <trkpt lat="43.94907" lon="5.41687">
        <ele>516</ele>
        <time>2019-02-18T14:34:26+01:00</time>
      </trkpt>
      <trkpt lat="43.94915" lon="5.41676">
        <ele>518</ele>
        <time>2019-02-18T14:34:42+01:00</time>
      </trkpt>
      <trkpt lat="43.94917" lon="5.4167">
        <ele>518</ele>
        <time>2019-02-18T14:34:56+01:00</time>
      </trkpt>
      <trkpt lat="43.94921" lon="5.4167">
        <ele>519</ele>
        <time>2019-02-18T14:35:09+01:00</time>
      </trkpt>
      <trkpt lat="43.94921" lon="5.41672">
        <ele>519</ele>
        <time>2019-02-18T14:35:33+01:00</time>
      </trkpt>
      <trkpt lat="43.9492" lon="5.4167">
        <ele>519</ele>
        <time>2019-02-18T14:35:56+01:00</time>
      </trkpt>
      <trkpt lat="43.94917" lon="5.41663">
        <ele>518</ele>
        <time>2019-02-18T14:36:03+01:00</time>
      </trkpt>
      <trkpt lat="43.94916" lon="5.41661">
        <ele>518</ele>
        <time>2019-02-18T14:36:05+01:00</time>
      </trkpt>
      <trkpt lat="43.949" lon="5.41638">
        <ele>515</ele>
        <time>2019-02-18T14:36:24+01:00</time>
      </trkpt>
      <trkpt lat="43.94895" lon="5.41635">
        <ele>514</ele>
        <time>2019-02-18T14:36:27+01:00</time>
      </trkpt>
      <trkpt lat="43.94893" lon="5.41634">
        <ele>514</ele>
        <time>2019-02-18T14:36:28+01:00</time>
      </trkpt>
      <trkpt lat="43.94891" lon="5.41633">
        <ele>514</ele>
        <time>2019-02-18T14:36:29+01:00</time>
      </trkpt>
      <trkpt lat="43.94891" lon="5.41632">
        <ele>514</ele>
        <time>2019-02-18T14:36:30+01:00</time>
      </trkpt>
      <trkpt lat="43.9489" lon="5.41631">
        <ele>514</ele>
        <time>2019-02-18T14:36:31+01:00</time>
      </trkpt>
      <trkpt lat="43.94889" lon="5.4163">
        <ele>514</ele>
        <time>2019-02-18T14:36:32+01:00</time>
      </trkpt>
      <trkpt lat="43.94881" lon="5.41624">
        <ele>512</ele>
        <time>2019-02-18T14:36:45+01:00</time>
      </trkpt>
      <trkpt lat="43.9486" lon="5.41616">
        <ele>508</ele>
        <time>2019-02-18T14:36:56+01:00</time>
      </trkpt>
      <trkpt lat="43.94853" lon="5.41613">
        <ele>507</ele>
        <time>2019-02-18T14:37:03+01:00</time>
      </trkpt>
      <trkpt lat="43.94853" lon="5.41613">
        <ele>507</ele>
        <time>2019-02-18T14:37:04+01:00</time>
      </trkpt>
      <trkpt lat="43.94852" lon="5.41613">
        <ele>507</ele>
        <time>2019-02-18T14:37:05+01:00</time>
      </trkpt>
      <trkpt lat="43.94851" lon="5.41613">
        <ele>507</ele>
        <time>2019-02-18T14:37:06+01:00</time>
      </trkpt>
      <trkpt lat="43.9485" lon="5.41613">
        <ele>506</ele>
        <time>2019-02-18T14:37:07+01:00</time>
      </trkpt>
      <trkpt lat="43.94848" lon="5.41613">
        <ele>506</ele>
        <time>2019-02-18T14:37:08+01:00</time>
      </trkpt>
      <trkpt lat="43.94846" lon="5.4161">
        <ele>506</ele>
        <time>2019-02-18T14:37:11+01:00</time>
      </trkpt>
      <trkpt lat="43.94841" lon="5.41602">
        <ele>505</ele>
        <time>2019-02-18T14:37:23+01:00</time>
      </trkpt>
      <trkpt lat="43.94838" lon="5.41599">
        <ele>505</ele>
        <time>2019-02-18T14:37:31+01:00</time>
      </trkpt>
      <trkpt lat="43.94835" lon="5.41597">
        <ele>504</ele>
        <time>2019-02-18T14:37:34+01:00</time>
      </trkpt>
      <trkpt lat="43.94834" lon="5.41596">
        <ele>504</ele>
        <time>2019-02-18T14:37:35+01:00</time>
      </trkpt>
      <trkpt lat="43.94831" lon="5.41593">
        <ele>504</ele>
        <time>2019-02-18T14:37:39+01:00</time>
      </trkpt>
      <trkpt lat="43.9483" lon="5.41592">
        <ele>504</ele>
        <time>2019-02-18T14:37:40+01:00</time>
      </trkpt>
      <trkpt lat="43.94829" lon="5.41591">
        <ele>504</ele>
        <time>2019-02-18T14:37:41+01:00</time>
      </trkpt>
      <trkpt lat="43.94828" lon="5.4159">
        <ele>503</ele>
        <time>2019-02-18T14:37:42+01:00</time>
      </trkpt>
      <trkpt lat="43.94827" lon="5.41589">
        <ele>503</ele>
        <time>2019-02-18T14:37:43+01:00</time>
      </trkpt>
      <trkpt lat="43.94825" lon="5.41587">
        <ele>503</ele>
        <time>2019-02-18T14:37:44+01:00</time>
      </trkpt>
      <trkpt lat="43.94817" lon="5.41586">
        <ele>501</ele>
        <time>2019-02-18T14:37:52+01:00</time>
      </trkpt>
      <trkpt lat="43.94815" lon="5.41587">
        <ele>501</ele>
        <time>2019-02-18T14:37:53+01:00</time>
      </trkpt>
      <trkpt lat="43.94814" lon="5.41589">
        <ele>501</ele>
        <time>2019-02-18T14:37:54+01:00</time>
      </trkpt>
      <trkpt lat="43.94813" lon="5.41592">
        <ele>500</ele>
        <time>2019-02-18T14:37:55+01:00</time>
      </trkpt>
      <trkpt lat="43.94813" lon="5.41594">
        <ele>500</ele>
        <time>2019-02-18T14:37:56+01:00</time>
      </trkpt>
      <trkpt lat="43.94813" lon="5.41597">
        <ele>500</ele>
        <time>2019-02-18T14:37:57+01:00</time>
      </trkpt>
      <trkpt lat="43.94814" lon="5.41598">
        <ele>500</ele>
        <time>2019-02-18T14:37:58+01:00</time>
      </trkpt>
      <trkpt lat="43.94815" lon="5.41599">
        <ele>500</ele>
        <time>2019-02-18T14:37:59+01:00</time>
      </trkpt>
      <trkpt lat="43.94816" lon="5.416">
        <ele>500</ele>
        <time>2019-02-18T14:38:00+01:00</time>
      </trkpt>
      <trkpt lat="43.94822" lon="5.41613">
        <ele>501</ele>
        <time>2019-02-18T14:38:11+01:00</time>
      </trkpt>
      <trkpt lat="43.94828" lon="5.41626">
        <ele>501</ele>
        <time>2019-02-18T14:38:22+01:00</time>
      </trkpt>
      <trkpt lat="43.94835" lon="5.41641">
        <ele>501</ele>
        <time>2019-02-18T14:38:33+01:00</time>
      </trkpt>
      <trkpt lat="43.94837" lon="5.41647">
        <ele>501</ele>
        <time>2019-02-18T14:38:38+01:00</time>
      </trkpt>
      <trkpt lat="43.94838" lon="5.41648">
        <ele>501</ele>
        <time>2019-02-18T14:38:39+01:00</time>
      </trkpt>
      <trkpt lat="43.94848" lon="5.41671">
        <ele>502</ele>
        <time>2019-02-18T14:38:54+01:00</time>
      </trkpt>
      <trkpt lat="43.94864" lon="5.41695">
        <ele>507</ele>
        <time>2019-02-18T14:39:09+01:00</time>
      </trkpt>
      <trkpt lat="43.94863" lon="5.41707">
        <ele>508</ele>
        <time>2019-02-18T14:39:21+01:00</time>
      </trkpt>
      <trkpt lat="43.94862" lon="5.41719">
        <ele>509</ele>
        <time>2019-02-18T14:39:33+01:00</time>
      </trkpt>
      <trkpt lat="43.94865" lon="5.41742">
        <ele>512</ele>
        <time>2019-02-18T14:39:43+01:00</time>
      </trkpt>
      <trkpt lat="43.94859" lon="5.41749">
        <ele>512</ele>
        <time>2019-02-18T14:39:55+01:00</time>
      </trkpt>
      <trkpt lat="43.94845" lon="5.41774">
        <ele>515</ele>
        <time>2019-02-18T14:40:07+01:00</time>
      </trkpt>
      <trkpt lat="43.94841" lon="5.41775">
        <ele>515</ele>
        <time>2019-02-18T14:40:18+01:00</time>
      </trkpt>
      <trkpt lat="43.9483" lon="5.41797">
        <ele>516</ele>
        <time>2019-02-18T14:40:31+01:00</time>
      </trkpt>
      <trkpt lat="43.94816" lon="5.41814">
        <ele>515</ele>
        <time>2019-02-18T14:40:46+01:00</time>
      </trkpt>
      <trkpt lat="43.94808" lon="5.41828">
        <ele>514</ele>
        <time>2019-02-18T14:41:00+01:00</time>
      </trkpt>
      <trkpt lat="43.94799" lon="5.41847">
        <ele>514</ele>
        <time>2019-02-18T14:41:10+01:00</time>
      </trkpt>
      <trkpt lat="43.94794" lon="5.41879">
        <ele>516</ele>
        <time>2019-02-18T14:41:23+01:00</time>
      </trkpt>
      <trkpt lat="43.94792" lon="5.41887">
        <ele>516</ele>
        <time>2019-02-18T14:41:28+01:00</time>
      </trkpt>
      <trkpt lat="43.94792" lon="5.41887">
        <ele>516</ele>
        <time>2019-02-18T14:41:29+01:00</time>
      </trkpt>
      <trkpt lat="43.94784" lon="5.41886">
        <ele>515</ele>
        <time>2019-02-18T14:41:36+01:00</time>
      </trkpt>
      <trkpt lat="43.94776" lon="5.41893">
        <ele>514</ele>
        <time>2019-02-18T14:41:50+01:00</time>
      </trkpt>
      <trkpt lat="43.94775" lon="5.41895">
        <ele>514</ele>
        <time>2019-02-18T14:41:51+01:00</time>
      </trkpt>
      <trkpt lat="43.94775" lon="5.41898">
        <ele>514</ele>
        <time>2019-02-18T14:41:52+01:00</time>
      </trkpt>
      <trkpt lat="43.94774" lon="5.41901">
        <ele>514</ele>
        <time>2019-02-18T14:41:53+01:00</time>
      </trkpt>
      <trkpt lat="43.94773" lon="5.41903">
        <ele>514</ele>
        <time>2019-02-18T14:41:54+01:00</time>
      </trkpt>
      <trkpt lat="43.94772" lon="5.41905">
        <ele>514</ele>
        <time>2019-02-18T14:41:55+01:00</time>
      </trkpt>
      <trkpt lat="43.94771" lon="5.41908">
        <ele>514</ele>
        <time>2019-02-18T14:41:56+01:00</time>
      </trkpt>
      <trkpt lat="43.94771" lon="5.4191">
        <ele>513</ele>
        <time>2019-02-18T14:41:57+01:00</time>
      </trkpt>
      <trkpt lat="43.9477" lon="5.41912">
        <ele>513</ele>
        <time>2019-02-18T14:41:58+01:00</time>
      </trkpt>
      <trkpt lat="43.94769" lon="5.41914">
        <ele>513</ele>
        <time>2019-02-18T14:41:59+01:00</time>
      </trkpt>
      <trkpt lat="43.94769" lon="5.41916">
        <ele>513</ele>
        <time>2019-02-18T14:42:00+01:00</time>
      </trkpt>
      <trkpt lat="43.94766" lon="5.41943">
        <ele>513</ele>
        <time>2019-02-18T14:42:11+01:00</time>
      </trkpt>
      <trkpt lat="43.94765" lon="5.41956">
        <ele>513</ele>
        <time>2019-02-18T14:42:17+01:00</time>
      </trkpt>
      <trkpt lat="43.94764" lon="5.41957">
        <ele>513</ele>
        <time>2019-02-18T14:42:18+01:00</time>
      </trkpt>
      <trkpt lat="43.94758" lon="5.41959">
        <ele>512</ele>
        <time>2019-02-18T14:42:30+01:00</time>
      </trkpt>
      <trkpt lat="43.94753" lon="5.41972">
        <ele>511</ele>
        <time>2019-02-18T14:42:41+01:00</time>
      </trkpt>
      <trkpt lat="43.94752" lon="5.41974">
        <ele>511</ele>
        <time>2019-02-18T14:42:42+01:00</time>
      </trkpt>
      <trkpt lat="43.94749" lon="5.41978">
        <ele>511</ele>
        <time>2019-02-18T14:42:44+01:00</time>
      </trkpt>
      <trkpt lat="43.94748" lon="5.41981">
        <ele>510</ele>
        <time>2019-02-18T14:42:45+01:00</time>
      </trkpt>
      <trkpt lat="43.94748" lon="5.41984">
        <ele>510</ele>
        <time>2019-02-18T14:42:46+01:00</time>
      </trkpt>
      <trkpt lat="43.94747" lon="5.41988">
        <ele>510</ele>
        <time>2019-02-18T14:42:47+01:00</time>
      </trkpt>
      <trkpt lat="43.94747" lon="5.41992">
        <ele>510</ele>
        <time>2019-02-18T14:42:48+01:00</time>
      </trkpt>
      <trkpt lat="43.94746" lon="5.41995">
        <ele>509</ele>
        <time>2019-02-18T14:42:49+01:00</time>
      </trkpt>
      <trkpt lat="43.94747" lon="5.41998">
        <ele>509</ele>
        <time>2019-02-18T14:42:50+01:00</time>
      </trkpt>
      <trkpt lat="43.94747" lon="5.42001">
        <ele>509</ele>
        <time>2019-02-18T14:42:51+01:00</time>
      </trkpt>
      <trkpt lat="43.94747" lon="5.42003">
        <ele>509</ele>
        <time>2019-02-18T14:42:52+01:00</time>
      </trkpt>
      <trkpt lat="43.94748" lon="5.42006">
        <ele>509</ele>
        <time>2019-02-18T14:42:53+01:00</time>
      </trkpt>
      <trkpt lat="43.94747" lon="5.42033">
        <ele>508</ele>
        <time>2019-02-18T14:43:07+01:00</time>
      </trkpt>
      <trkpt lat="43.94747" lon="5.42034">
        <ele>508</ele>
        <time>2019-02-18T14:43:08+01:00</time>
      </trkpt>
      <trkpt lat="43.94741" lon="5.42039">
        <ele>507</ele>
        <time>2019-02-18T14:43:21+01:00</time>
      </trkpt>
      <trkpt lat="43.94737" lon="5.42044">
        <ele>506</ele>
        <time>2019-02-18T14:43:24+01:00</time>
      </trkpt>
      <trkpt lat="43.94735" lon="5.42048">
        <ele>506</ele>
        <time>2019-02-18T14:43:26+01:00</time>
      </trkpt>
      <trkpt lat="43.94731" lon="5.42063">
        <ele>505</ele>
        <time>2019-02-18T14:43:39+01:00</time>
      </trkpt>
      <trkpt lat="43.94721" lon="5.42084">
        <ele>504</ele>
        <time>2019-02-18T14:43:53+01:00</time>
      </trkpt>
      <trkpt lat="43.94718" lon="5.42094">
        <ele>504</ele>
        <time>2019-02-18T14:44:06+01:00</time>
      </trkpt>
      <trkpt lat="43.94707" lon="5.42111">
        <ele>502</ele>
        <time>2019-02-18T14:44:16+01:00</time>
      </trkpt>
      <trkpt lat="43.94685" lon="5.42134">
        <ele>499</ele>
        <time>2019-02-18T14:44:30+01:00</time>
      </trkpt>
      <trkpt lat="43.94676" lon="5.4214">
        <ele>499</ele>
        <time>2019-02-18T14:44:35+01:00</time>
      </trkpt>
      <trkpt lat="43.94675" lon="5.4214">
        <ele>499</ele>
        <time>2019-02-18T14:44:36+01:00</time>
      </trkpt>
      <trkpt lat="43.94671" lon="5.42139">
        <ele>498</ele>
        <time>2019-02-18T14:44:38+01:00</time>
      </trkpt>
      <trkpt lat="43.94652" lon="5.42143">
        <ele>499</ele>
        <time>2019-02-18T14:44:49+01:00</time>
      </trkpt>
      <trkpt lat="43.94639" lon="5.42137">
        <ele>500</ele>
        <time>2019-02-18T14:45:00+01:00</time>
      </trkpt>
      <trkpt lat="43.94633" lon="5.42129">
        <ele>499</ele>
        <time>2019-02-18T14:45:07+01:00</time>
      </trkpt>
      <trkpt lat="43.94632" lon="5.42129">
        <ele>499</ele>
        <time>2019-02-18T14:45:08+01:00</time>
      </trkpt>
      <trkpt lat="43.94631" lon="5.42128">
        <ele>499</ele>
        <time>2019-02-18T14:45:09+01:00</time>
      </trkpt>
      <trkpt lat="43.94623" lon="5.42117">
        <ele>499</ele>
        <time>2019-02-18T14:45:21+01:00</time>
      </trkpt>
      <trkpt lat="43.94609" lon="5.42106">
        <ele>498</ele>
        <time>2019-02-18T14:45:34+01:00</time>
      </trkpt>
      <trkpt lat="43.94601" lon="5.42105">
        <ele>498</ele>
        <time>2019-02-18T14:45:45+01:00</time>
      </trkpt>
      <trkpt lat="43.94597" lon="5.42108">
        <ele>498</ele>
        <time>2019-02-18T14:45:56+01:00</time>
      </trkpt>
      <trkpt lat="43.94596" lon="5.42109">
        <ele>498</ele>
        <time>2019-02-18T14:45:57+01:00</time>
      </trkpt>
      <trkpt lat="43.94594" lon="5.42112">
        <ele>498</ele>
        <time>2019-02-18T14:45:58+01:00</time>
      </trkpt>
      <trkpt lat="43.94593" lon="5.42115">
        <ele>499</ele>
        <time>2019-02-18T14:45:59+01:00</time>
      </trkpt>
      <trkpt lat="43.94592" lon="5.42118">
        <ele>499</ele>
        <time>2019-02-18T14:46:00+01:00</time>
      </trkpt>
      <trkpt lat="43.94591" lon="5.42122">
        <ele>499</ele>
        <time>2019-02-18T14:46:02+01:00</time>
      </trkpt>
      <trkpt lat="43.9459" lon="5.42123">
        <ele>499</ele>
        <time>2019-02-18T14:46:06+01:00</time>
      </trkpt>
      <trkpt lat="43.94593" lon="5.42133">
        <ele>499</ele>
        <time>2019-02-18T14:46:15+01:00</time>
      </trkpt>
      <trkpt lat="43.94593" lon="5.42136">
        <ele>500</ele>
        <time>2019-02-18T14:46:17+01:00</time>
      </trkpt>
      <trkpt lat="43.94594" lon="5.42138">
        <ele>500</ele>
        <time>2019-02-18T14:46:18+01:00</time>
      </trkpt>
      <trkpt lat="43.94595" lon="5.42146">
        <ele>500</ele>
        <time>2019-02-18T14:46:28+01:00</time>
      </trkpt>
      <trkpt lat="43.94595" lon="5.42148">
        <ele>500</ele>
        <time>2019-02-18T14:46:29+01:00</time>
      </trkpt>
      <trkpt lat="43.94596" lon="5.4215">
        <ele>501</ele>
        <time>2019-02-18T14:46:30+01:00</time>
      </trkpt>
      <trkpt lat="43.94601" lon="5.42166">
        <ele>502</ele>
        <time>2019-02-18T14:46:41+01:00</time>
      </trkpt>
      <trkpt lat="43.94609" lon="5.42182">
        <ele>504</ele>
        <time>2019-02-18T14:46:50+01:00</time>
      </trkpt>
      <trkpt lat="43.94615" lon="5.42192">
        <ele>505</ele>
        <time>2019-02-18T14:47:00+01:00</time>
      </trkpt>
      <trkpt lat="43.94617" lon="5.422">
        <ele>506</ele>
        <time>2019-02-18T14:47:08+01:00</time>
      </trkpt>
      <trkpt lat="43.94618" lon="5.42201">
        <ele>506</ele>
        <time>2019-02-18T14:47:09+01:00</time>
      </trkpt>
      <trkpt lat="43.9462" lon="5.42203">
        <ele>506</ele>
        <time>2019-02-18T14:47:10+01:00</time>
      </trkpt>
      <trkpt lat="43.94621" lon="5.42206">
        <ele>507</ele>
        <time>2019-02-18T14:47:11+01:00</time>
      </trkpt>
      <trkpt lat="43.94621" lon="5.42208">
        <ele>507</ele>
        <time>2019-02-18T14:47:12+01:00</time>
      </trkpt>
      <trkpt lat="43.94622" lon="5.42209">
        <ele>507</ele>
        <time>2019-02-18T14:47:13+01:00</time>
      </trkpt>
      <trkpt lat="43.94627" lon="5.42219">
        <ele>508</ele>
        <time>2019-02-18T14:47:22+01:00</time>
      </trkpt>
      <trkpt lat="43.94628" lon="5.42228">
        <ele>509</ele>
        <time>2019-02-18T14:47:32+01:00</time>
      </trkpt>
      <trkpt lat="43.94634" lon="5.42243">
        <ele>510</ele>
        <time>2019-02-18T14:47:42+01:00</time>
      </trkpt>
      <trkpt lat="43.94643" lon="5.42261">
        <ele>510</ele>
        <time>2019-02-18T14:47:53+01:00</time>
      </trkpt>
      <trkpt lat="43.94647" lon="5.42269">
        <ele>510</ele>
        <time>2019-02-18T14:48:01+01:00</time>
      </trkpt>
      <trkpt lat="43.94649" lon="5.42271">
        <ele>510</ele>
        <time>2019-02-18T14:48:02+01:00</time>
      </trkpt>
      <trkpt lat="43.94654" lon="5.42278">
        <ele>510</ele>
        <time>2019-02-18T14:48:11+01:00</time>
      </trkpt>
      <trkpt lat="43.94664" lon="5.42284">
        <ele>510</ele>
        <time>2019-02-18T14:48:21+01:00</time>
      </trkpt>
      <trkpt lat="43.94671" lon="5.42295">
        <ele>511</ele>
        <time>2019-02-18T14:48:31+01:00</time>
      </trkpt>
      <trkpt lat="43.94671" lon="5.42297">
        <ele>511</ele>
        <time>2019-02-18T14:48:33+01:00</time>
      </trkpt>
      <trkpt lat="43.94671" lon="5.42299">
        <ele>511</ele>
        <time>2019-02-18T14:48:34+01:00</time>
      </trkpt>
      <trkpt lat="43.9467" lon="5.42315">
        <ele>511</ele>
        <time>2019-02-18T14:48:44+01:00</time>
      </trkpt>
      <trkpt lat="43.94667" lon="5.42332">
        <ele>511</ele>
        <time>2019-02-18T14:48:56+01:00</time>
      </trkpt>
      <trkpt lat="43.94664" lon="5.42347">
        <ele>511</ele>
        <time>2019-02-18T14:49:08+01:00</time>
      </trkpt>
      <trkpt lat="43.94664" lon="5.42366">
        <ele>512</ele>
        <time>2019-02-18T14:49:21+01:00</time>
      </trkpt>
      <trkpt lat="43.94666" lon="5.42386">
        <ele>513</ele>
        <time>2019-02-18T14:49:32+01:00</time>
      </trkpt>
      <trkpt lat="43.94665" lon="5.42389">
        <ele>513</ele>
        <time>2019-02-18T14:49:37+01:00</time>
      </trkpt>
      <trkpt lat="43.94665" lon="5.42391">
        <ele>513</ele>
        <time>2019-02-18T14:49:38+01:00</time>
      </trkpt>
      <trkpt lat="43.94666" lon="5.42393">
        <ele>513</ele>
        <time>2019-02-18T14:49:39+01:00</time>
      </trkpt>
      <trkpt lat="43.94666" lon="5.42395">
        <ele>513</ele>
        <time>2019-02-18T14:49:40+01:00</time>
      </trkpt>
      <trkpt lat="43.94667" lon="5.42398">
        <ele>513</ele>
        <time>2019-02-18T14:49:41+01:00</time>
      </trkpt>
      <trkpt lat="43.94667" lon="5.424">
        <ele>513</ele>
        <time>2019-02-18T14:49:42+01:00</time>
      </trkpt>
      <trkpt lat="43.94666" lon="5.42408">
        <ele>513</ele>
        <time>2019-02-18T14:49:51+01:00</time>
      </trkpt>
      <trkpt lat="43.94666" lon="5.42426">
        <ele>513</ele>
        <time>2019-02-18T14:50:01+01:00</time>
      </trkpt>
      <trkpt lat="43.94665" lon="5.42429">
        <ele>513</ele>
        <time>2019-02-18T14:50:07+01:00</time>
      </trkpt>
      <trkpt lat="43.94665" lon="5.42431">
        <ele>513</ele>
        <time>2019-02-18T14:50:08+01:00</time>
      </trkpt>
      <trkpt lat="43.94665" lon="5.42433">
        <ele>513</ele>
        <time>2019-02-18T14:50:09+01:00</time>
      </trkpt>
      <trkpt lat="43.94665" lon="5.42436">
        <ele>513</ele>
        <time>2019-02-18T14:50:10+01:00</time>
      </trkpt>
      <trkpt lat="43.94666" lon="5.42438">
        <ele>513</ele>
        <time>2019-02-18T14:50:11+01:00</time>
      </trkpt>
      <trkpt lat="43.94666" lon="5.42446">
        <ele>513</ele>
        <time>2019-02-18T14:50:14+01:00</time>
      </trkpt>
      <trkpt lat="43.94665" lon="5.42447">
        <ele>513</ele>
        <time>2019-02-18T14:50:15+01:00</time>
      </trkpt>
      <trkpt lat="43.94663" lon="5.42451">
        <ele>512</ele>
        <time>2019-02-18T14:50:21+01:00</time>
      </trkpt>
      <trkpt lat="43.94663" lon="5.42453">
        <ele>512</ele>
        <time>2019-02-18T14:50:22+01:00</time>
      </trkpt>
      <trkpt lat="43.94661" lon="5.42461">
        <ele>512</ele>
        <time>2019-02-18T14:50:31+01:00</time>
      </trkpt>
      <trkpt lat="43.94661" lon="5.42461">
        <ele>512</ele>
        <time>2019-02-18T14:50:32+01:00</time>
      </trkpt>
      <trkpt lat="43.9466" lon="5.42462">
        <ele>512</ele>
        <time>2019-02-18T14:50:42+01:00</time>
      </trkpt>
      <trkpt lat="43.94658" lon="5.42463">
        <ele>512</ele>
        <time>2019-02-18T14:51:01+01:00</time>
      </trkpt>
      <trkpt lat="43.94657" lon="5.42458">
        <ele>512</ele>
        <time>2019-02-18T14:51:20+01:00</time>
      </trkpt>
      <trkpt lat="43.94656" lon="5.42466">
        <ele>511</ele>
        <time>2019-02-18T14:51:34+01:00</time>
      </trkpt>
      <trkpt lat="43.94658" lon="5.42468">
        <ele>511</ele>
        <time>2019-02-18T14:51:49+01:00</time>
      </trkpt>
      <trkpt lat="43.94658" lon="5.4247">
        <ele>511</ele>
        <time>2019-02-18T14:51:55+01:00</time>
      </trkpt>
      <trkpt lat="43.9466" lon="5.42473">
        <ele>512</ele>
        <time>2019-02-18T14:51:57+01:00</time>
      </trkpt>
      <trkpt lat="43.94661" lon="5.42475">
        <ele>512</ele>
        <time>2019-02-18T14:51:58+01:00</time>
      </trkpt>
      <trkpt lat="43.94662" lon="5.42478">
        <ele>512</ele>
        <time>2019-02-18T14:52:00+01:00</time>
      </trkpt>
      <trkpt lat="43.94662" lon="5.42488">
        <ele>512</ele>
        <time>2019-02-18T14:52:08+01:00</time>
      </trkpt>
      <trkpt lat="43.94662" lon="5.42497">
        <ele>512</ele>
        <time>2019-02-18T14:52:17+01:00</time>
      </trkpt>
      <trkpt lat="43.94662" lon="5.42503">
        <ele>512</ele>
        <time>2019-02-18T14:52:21+01:00</time>
      </trkpt>
      <trkpt lat="43.94662" lon="5.42505">
        <ele>512</ele>
        <time>2019-02-18T14:52:22+01:00</time>
      </trkpt>
      <trkpt lat="43.94661" lon="5.42507">
        <ele>512</ele>
        <time>2019-02-18T14:52:30+01:00</time>
      </trkpt>
      <trkpt lat="43.94659" lon="5.42512">
        <ele>511</ele>
        <time>2019-02-18T14:52:37+01:00</time>
      </trkpt>
      <trkpt lat="43.94658" lon="5.42515">
        <ele>511</ele>
        <time>2019-02-18T14:52:38+01:00</time>
      </trkpt>
      <trkpt lat="43.94657" lon="5.42521">
        <ele>511</ele>
        <time>2019-02-18T14:52:46+01:00</time>
      </trkpt>
      <trkpt lat="43.94651" lon="5.42519">
        <ele>511</ele>
        <time>2019-02-18T14:52:54+01:00</time>
      </trkpt>
      <trkpt lat="43.94649" lon="5.42518">
        <ele>511</ele>
        <time>2019-02-18T14:52:55+01:00</time>
      </trkpt>
      <trkpt lat="43.94648" lon="5.42518">
        <ele>511</ele>
        <time>2019-02-18T14:52:56+01:00</time>
      </trkpt>
      <trkpt lat="43.94643" lon="5.42517">
        <ele>510</ele>
        <time>2019-02-18T14:53:06+01:00</time>
      </trkpt>
      <trkpt lat="43.94641" lon="5.42516">
        <ele>510</ele>
        <time>2019-02-18T14:53:07+01:00</time>
      </trkpt>
      <trkpt lat="43.94636" lon="5.42515">
        <ele>510</ele>
        <time>2019-02-18T14:53:11+01:00</time>
      </trkpt>
      <trkpt lat="43.94633" lon="5.42515">
        <ele>510</ele>
        <time>2019-02-18T14:53:14+01:00</time>
      </trkpt>
      <trkpt lat="43.94631" lon="5.42514">
        <ele>510</ele>
        <time>2019-02-18T14:53:15+01:00</time>
      </trkpt>
      <trkpt lat="43.9463" lon="5.42514">
        <ele>510</ele>
        <time>2019-02-18T14:53:16+01:00</time>
      </trkpt>
      <trkpt lat="43.94628" lon="5.42512">
        <ele>510</ele>
        <time>2019-02-18T14:53:18+01:00</time>
      </trkpt>
      <trkpt lat="43.94627" lon="5.4251">
        <ele>510</ele>
        <time>2019-02-18T14:53:19+01:00</time>
      </trkpt>
      <trkpt lat="43.94626" lon="5.42509">
        <ele>510</ele>
        <time>2019-02-18T14:53:20+01:00</time>
      </trkpt>
      <trkpt lat="43.94624" lon="5.42508">
        <ele>510</ele>
        <time>2019-02-18T14:53:21+01:00</time>
      </trkpt>
      <trkpt lat="43.94622" lon="5.42506">
        <ele>510</ele>
        <time>2019-02-18T14:53:22+01:00</time>
      </trkpt>
      <trkpt lat="43.9462" lon="5.42505">
        <ele>510</ele>
        <time>2019-02-18T14:53:23+01:00</time>
      </trkpt>
      <trkpt lat="43.94619" lon="5.42503">
        <ele>510</ele>
        <time>2019-02-18T14:53:24+01:00</time>
      </trkpt>
      <trkpt lat="43.94618" lon="5.42502">
        <ele>510</ele>
        <time>2019-02-18T14:53:25+01:00</time>
      </trkpt>
      <trkpt lat="43.94618" lon="5.425">
        <ele>510</ele>
        <time>2019-02-18T14:53:26+01:00</time>
      </trkpt>
      <trkpt lat="43.94617" lon="5.425">
        <ele>510</ele>
        <time>2019-02-18T14:53:27+01:00</time>
      </trkpt>
      <trkpt lat="43.94616" lon="5.42499">
        <ele>510</ele>
        <time>2019-02-18T14:53:28+01:00</time>
      </trkpt>
      <trkpt lat="43.94616" lon="5.42498">
        <ele>510</ele>
        <time>2019-02-18T14:53:29+01:00</time>
      </trkpt>
      <trkpt lat="43.94614" lon="5.42486">
        <ele>510</ele>
        <time>2019-02-18T14:53:39+01:00</time>
      </trkpt>
      <trkpt lat="43.94614" lon="5.42485">
        <ele>510</ele>
        <time>2019-02-18T14:53:40+01:00</time>
      </trkpt>
      <trkpt lat="43.94607" lon="5.42466">
        <ele>508</ele>
        <time>2019-02-18T14:53:54+01:00</time>
      </trkpt>
      <trkpt lat="43.94595" lon="5.42448">
        <ele>506</ele>
        <time>2019-02-18T14:54:10+01:00</time>
      </trkpt>
      <trkpt lat="43.94582" lon="5.4243">
        <ele>505</ele>
        <time>2019-02-18T14:54:27+01:00</time>
      </trkpt>
      <trkpt lat="43.94568" lon="5.42413">
        <ele>503</ele>
        <time>2019-02-18T14:54:43+01:00</time>
      </trkpt>
      <trkpt lat="43.94561" lon="5.42387">
        <ele>502</ele>
        <time>2019-02-18T14:55:01+01:00</time>
      </trkpt>
      <trkpt lat="43.94554" lon="5.42361">
        <ele>501</ele>
        <time>2019-02-18T14:55:18+01:00</time>
      </trkpt>
      <trkpt lat="43.94553" lon="5.42357">
        <ele>500</ele>
        <time>2019-02-18T14:55:21+01:00</time>
      </trkpt>
      <trkpt lat="43.94553" lon="5.42356">
        <ele>500</ele>
        <time>2019-02-18T14:55:22+01:00</time>
      </trkpt>
      <trkpt lat="43.94552" lon="5.42354">
        <ele>500</ele>
        <time>2019-02-18T14:55:23+01:00</time>
      </trkpt>
      <trkpt lat="43.94553" lon="5.42343">
        <ele>500</ele>
        <time>2019-02-18T14:55:37+01:00</time>
      </trkpt>
      <trkpt lat="43.94555" lon="5.42342">
        <ele>500</ele>
        <time>2019-02-18T14:55:40+01:00</time>
      </trkpt>
      <trkpt lat="43.94553" lon="5.42333">
        <ele>500</ele>
        <time>2019-02-18T14:55:50+01:00</time>
      </trkpt>
      <trkpt lat="43.94552" lon="5.4233">
        <ele>499</ele>
        <time>2019-02-18T14:55:51+01:00</time>
      </trkpt>
      <trkpt lat="43.94551" lon="5.42328">
        <ele>499</ele>
        <time>2019-02-18T14:55:52+01:00</time>
      </trkpt>
      <trkpt lat="43.94549" lon="5.42325">
        <ele>499</ele>
        <time>2019-02-18T14:55:53+01:00</time>
      </trkpt>
      <trkpt lat="43.94548" lon="5.42323">
        <ele>499</ele>
        <time>2019-02-18T14:55:54+01:00</time>
      </trkpt>
      <trkpt lat="43.94546" lon="5.42321">
        <ele>499</ele>
        <time>2019-02-18T14:55:55+01:00</time>
      </trkpt>
      <trkpt lat="43.94544" lon="5.42318">
        <ele>498</ele>
        <time>2019-02-18T14:55:56+01:00</time>
      </trkpt>
      <trkpt lat="43.94541" lon="5.42314">
        <ele>498</ele>
        <time>2019-02-18T14:55:57+01:00</time>
      </trkpt>
      <trkpt lat="43.94524" lon="5.4228">
        <ele>495</ele>
        <time>2019-02-18T14:56:10+01:00</time>
      </trkpt>
      <trkpt lat="43.94515" lon="5.42259">
        <ele>493</ele>
        <time>2019-02-18T14:56:23+01:00</time>
      </trkpt>
      <trkpt lat="43.94511" lon="5.42245">
        <ele>492</ele>
        <time>2019-02-18T14:56:36+01:00</time>
      </trkpt>
      <trkpt lat="43.94503" lon="5.42226">
        <ele>491</ele>
        <time>2019-02-18T14:56:51+01:00</time>
      </trkpt>
      <trkpt lat="43.945" lon="5.42212">
        <ele>491</ele>
        <time>2019-02-18T14:57:04+01:00</time>
      </trkpt>
      <trkpt lat="43.94496" lon="5.42204">
        <ele>490</ele>
        <time>2019-02-18T14:57:14+01:00</time>
      </trkpt>
      <trkpt lat="43.94495" lon="5.42203">
        <ele>490</ele>
        <time>2019-02-18T14:57:15+01:00</time>
      </trkpt>
      <trkpt lat="43.94494" lon="5.42202">
        <ele>489</ele>
        <time>2019-02-18T14:57:16+01:00</time>
      </trkpt>
      <trkpt lat="43.94492" lon="5.42201">
        <ele>489</ele>
        <time>2019-02-18T14:57:17+01:00</time>
      </trkpt>
      <trkpt lat="43.94491" lon="5.422">
        <ele>489</ele>
        <time>2019-02-18T14:57:18+01:00</time>
      </trkpt>
      <trkpt lat="43.9449" lon="5.42199">
        <ele>489</ele>
        <time>2019-02-18T14:57:19+01:00</time>
      </trkpt>
      <trkpt lat="43.94475" lon="5.42182">
        <ele>486</ele>
        <time>2019-02-18T14:57:29+01:00</time>
      </trkpt>
      <trkpt lat="43.94453" lon="5.42164">
        <ele>483</ele>
        <time>2019-02-18T14:57:40+01:00</time>
      </trkpt>
      <trkpt lat="43.94447" lon="5.42164">
        <ele>482</ele>
        <time>2019-02-18T14:57:49+01:00</time>
      </trkpt>
      <trkpt lat="43.94446" lon="5.42164">
        <ele>482</ele>
        <time>2019-02-18T14:57:50+01:00</time>
      </trkpt>
      <trkpt lat="43.94438" lon="5.42181">
        <ele>481</ele>
        <time>2019-02-18T14:57:59+01:00</time>
      </trkpt>
      <trkpt lat="43.94444" lon="5.42194">
        <ele>482</ele>
        <time>2019-02-18T14:58:10+01:00</time>
      </trkpt>
      <trkpt lat="43.94443" lon="5.42203">
        <ele>482</ele>
        <time>2019-02-18T14:58:15+01:00</time>
      </trkpt>
      <trkpt lat="43.94443" lon="5.42204">
        <ele>482</ele>
        <time>2019-02-18T14:58:16+01:00</time>
      </trkpt>
      <trkpt lat="43.94437" lon="5.42222">
        <ele>481</ele>
        <time>2019-02-18T14:58:28+01:00</time>
      </trkpt>
      <trkpt lat="43.94435" lon="5.42235">
        <ele>481</ele>
        <time>2019-02-18T14:58:36+01:00</time>
      </trkpt>
      <trkpt lat="43.94433" lon="5.42237">
        <ele>481</ele>
        <time>2019-02-18T14:58:38+01:00</time>
      </trkpt>
      <trkpt lat="43.94433" lon="5.42238">
        <ele>481</ele>
        <time>2019-02-18T14:58:39+01:00</time>
      </trkpt>
      <trkpt lat="43.94433" lon="5.42239">
        <ele>481</ele>
        <time>2019-02-18T14:58:40+01:00</time>
      </trkpt>
      <trkpt lat="43.94433" lon="5.4224">
        <ele>481</ele>
        <time>2019-02-18T14:58:41+01:00</time>
      </trkpt>
      <trkpt lat="43.94432" lon="5.42241">
        <ele>481</ele>
        <time>2019-02-18T14:58:42+01:00</time>
      </trkpt>
      <trkpt lat="43.94432" lon="5.42245">
        <ele>481</ele>
        <time>2019-02-18T14:58:45+01:00</time>
      </trkpt>
      <trkpt lat="43.94432" lon="5.42247">
        <ele>481</ele>
        <time>2019-02-18T14:58:46+01:00</time>
      </trkpt>
      <trkpt lat="43.94431" lon="5.42248">
        <ele>481</ele>
        <time>2019-02-18T14:58:47+01:00</time>
      </trkpt>
      <trkpt lat="43.94431" lon="5.4225">
        <ele>480</ele>
        <time>2019-02-18T14:58:48+01:00</time>
      </trkpt>
      <trkpt lat="43.9443" lon="5.42252">
        <ele>480</ele>
        <time>2019-02-18T14:58:49+01:00</time>
      </trkpt>
      <trkpt lat="43.9443" lon="5.42254">
        <ele>480</ele>
        <time>2019-02-18T14:58:50+01:00</time>
      </trkpt>
      <trkpt lat="43.94429" lon="5.42255">
        <ele>480</ele>
        <time>2019-02-18T14:58:51+01:00</time>
      </trkpt>
      <trkpt lat="43.94428" lon="5.42257">
        <ele>480</ele>
        <time>2019-02-18T14:58:52+01:00</time>
      </trkpt>
      <trkpt lat="43.94428" lon="5.4226">
        <ele>480</ele>
        <time>2019-02-18T14:58:53+01:00</time>
      </trkpt>
      <trkpt lat="43.94428" lon="5.42261">
        <ele>480</ele>
        <time>2019-02-18T14:58:54+01:00</time>
      </trkpt>
      <trkpt lat="43.94427" lon="5.42272">
        <ele>480</ele>
        <time>2019-02-18T14:59:00+01:00</time>
      </trkpt>
      <trkpt lat="43.94427" lon="5.42274">
        <ele>480</ele>
        <time>2019-02-18T14:59:01+01:00</time>
      </trkpt>
      <trkpt lat="43.94425" lon="5.42282">
        <ele>480</ele>
        <time>2019-02-18T14:59:12+01:00</time>
      </trkpt>
      <trkpt lat="43.94423" lon="5.42295">
        <ele>480</ele>
        <time>2019-02-18T14:59:22+01:00</time>
      </trkpt>
      <trkpt lat="43.94422" lon="5.42305">
        <ele>480</ele>
        <time>2019-02-18T14:59:27+01:00</time>
      </trkpt>
      <trkpt lat="43.94422" lon="5.42307">
        <ele>480</ele>
        <time>2019-02-18T14:59:28+01:00</time>
      </trkpt>
      <trkpt lat="43.94422" lon="5.4231">
        <ele>480</ele>
        <time>2019-02-18T14:59:29+01:00</time>
      </trkpt>
      <trkpt lat="43.94423" lon="5.42325">
        <ele>479</ele>
        <time>2019-02-18T14:59:36+01:00</time>
      </trkpt>
      <trkpt lat="43.94423" lon="5.42326">
        <ele>479</ele>
        <time>2019-02-18T14:59:37+01:00</time>
      </trkpt>
      <trkpt lat="43.94422" lon="5.42328">
        <ele>479</ele>
        <time>2019-02-18T14:59:38+01:00</time>
      </trkpt>
      <trkpt lat="43.94418" lon="5.42342">
        <ele>478</ele>
        <time>2019-02-18T14:59:51+01:00</time>
      </trkpt>
      <trkpt lat="43.94415" lon="5.42348">
        <ele>477</ele>
        <time>2019-02-18T15:00:01+01:00</time>
      </trkpt>
      <trkpt lat="43.94415" lon="5.42366">
        <ele>476</ele>
        <time>2019-02-18T15:00:13+01:00</time>
      </trkpt>
      <trkpt lat="43.94413" lon="5.42385">
        <ele>475</ele>
        <time>2019-02-18T15:00:21+01:00</time>
      </trkpt>
      <trkpt lat="43.94413" lon="5.42397">
        <ele>476</ele>
        <time>2019-02-18T15:00:30+01:00</time>
      </trkpt>
      <trkpt lat="43.94411" lon="5.42403">
        <ele>476</ele>
        <time>2019-02-18T15:00:34+01:00</time>
      </trkpt>
      <trkpt lat="43.94411" lon="5.42407">
        <ele>476</ele>
        <time>2019-02-18T15:00:35+01:00</time>
      </trkpt>
      <trkpt lat="43.94411" lon="5.4241">
        <ele>476</ele>
        <time>2019-02-18T15:00:36+01:00</time>
      </trkpt>
      <trkpt lat="43.94409" lon="5.42412">
        <ele>476</ele>
        <time>2019-02-18T15:00:37+01:00</time>
      </trkpt>
      <trkpt lat="43.94408" lon="5.42414">
        <ele>476</ele>
        <time>2019-02-18T15:00:38+01:00</time>
      </trkpt>
      <trkpt lat="43.94405" lon="5.42415">
        <ele>476</ele>
        <time>2019-02-18T15:00:48+01:00</time>
      </trkpt>
      <trkpt lat="43.94402" lon="5.42414">
        <ele>475</ele>
        <time>2019-02-18T15:00:50+01:00</time>
      </trkpt>
      <trkpt lat="43.944" lon="5.42414">
        <ele>475</ele>
        <time>2019-02-18T15:00:51+01:00</time>
      </trkpt>
      <trkpt lat="43.94387" lon="5.42416">
        <ele>473</ele>
        <time>2019-02-18T15:01:02+01:00</time>
      </trkpt>
      <trkpt lat="43.94381" lon="5.4242">
        <ele>472</ele>
        <time>2019-02-18T15:01:08+01:00</time>
      </trkpt>
      <trkpt lat="43.94378" lon="5.42422">
        <ele>472</ele>
        <time>2019-02-18T15:01:10+01:00</time>
      </trkpt>
      <trkpt lat="43.94377" lon="5.42423">
        <ele>472</ele>
        <time>2019-02-18T15:01:11+01:00</time>
      </trkpt>
      <trkpt lat="43.9436" lon="5.42435">
        <ele>469</ele>
        <time>2019-02-18T15:01:24+01:00</time>
      </trkpt>
      <trkpt lat="43.94353" lon="5.42442">
        <ele>468</ele>
        <time>2019-02-18T15:01:30+01:00</time>
      </trkpt>
      <trkpt lat="43.94352" lon="5.42442">
        <ele>468</ele>
        <time>2019-02-18T15:01:31+01:00</time>
      </trkpt>
      <trkpt lat="43.9435" lon="5.42441">
        <ele>467</ele>
        <time>2019-02-18T15:01:43+01:00</time>
      </trkpt>
      <trkpt lat="43.94345" lon="5.42443">
        <ele>466</ele>
        <time>2019-02-18T15:01:53+01:00</time>
      </trkpt>
      <trkpt lat="43.94343" lon="5.42443">
        <ele>466</ele>
        <time>2019-02-18T15:01:54+01:00</time>
      </trkpt>
      <trkpt lat="43.94339" lon="5.42443">
        <ele>465</ele>
        <time>2019-02-18T15:01:56+01:00</time>
      </trkpt>
      <trkpt lat="43.94337" lon="5.42444">
        <ele>465</ele>
        <time>2019-02-18T15:01:57+01:00</time>
      </trkpt>
      <trkpt lat="43.94335" lon="5.42448">
        <ele>465</ele>
        <time>2019-02-18T15:01:59+01:00</time>
      </trkpt>
      <trkpt lat="43.9433" lon="5.4245">
        <ele>464</ele>
        <time>2019-02-18T15:02:09+01:00</time>
      </trkpt>
      <trkpt lat="43.94322" lon="5.42454">
        <ele>463</ele>
        <time>2019-02-18T15:02:20+01:00</time>
      </trkpt>
      <trkpt lat="43.94313" lon="5.42461">
        <ele>461</ele>
        <time>2019-02-18T15:02:32+01:00</time>
      </trkpt>
      <trkpt lat="43.94311" lon="5.42462">
        <ele>461</ele>
        <time>2019-02-18T15:02:34+01:00</time>
      </trkpt>
      <trkpt lat="43.94305" lon="5.42467">
        <ele>460</ele>
        <time>2019-02-18T15:02:38+01:00</time>
      </trkpt>
      <trkpt lat="43.94304" lon="5.42468">
        <ele>460</ele>
        <time>2019-02-18T15:02:39+01:00</time>
      </trkpt>
      <trkpt lat="43.94303" lon="5.4247">
        <ele>459</ele>
        <time>2019-02-18T15:02:40+01:00</time>
      </trkpt>
      <trkpt lat="43.94302" lon="5.42471">
        <ele>459</ele>
        <time>2019-02-18T15:02:41+01:00</time>
      </trkpt>
      <trkpt lat="43.94301" lon="5.42472">
        <ele>459</ele>
        <time>2019-02-18T15:02:42+01:00</time>
      </trkpt>
      <trkpt lat="43.94298" lon="5.42475">
        <ele>459</ele>
        <time>2019-02-18T15:02:44+01:00</time>
      </trkpt>
      <trkpt lat="43.94296" lon="5.42478">
        <ele>459</ele>
        <time>2019-02-18T15:02:45+01:00</time>
      </trkpt>
      <trkpt lat="43.94295" lon="5.4248">
        <ele>458</ele>
        <time>2019-02-18T15:02:46+01:00</time>
      </trkpt>
      <trkpt lat="43.94294" lon="5.42482">
        <ele>458</ele>
        <time>2019-02-18T15:02:47+01:00</time>
      </trkpt>
      <trkpt lat="43.94293" lon="5.42484">
        <ele>458</ele>
        <time>2019-02-18T15:02:48+01:00</time>
      </trkpt>
      <trkpt lat="43.94292" lon="5.42485">
        <ele>458</ele>
        <time>2019-02-18T15:02:49+01:00</time>
      </trkpt>
      <trkpt lat="43.9429" lon="5.42485">
        <ele>458</ele>
        <time>2019-02-18T15:02:50+01:00</time>
      </trkpt>
      <trkpt lat="43.94289" lon="5.42486">
        <ele>458</ele>
        <time>2019-02-18T15:02:51+01:00</time>
      </trkpt>
      <trkpt lat="43.94284" lon="5.4249">
        <ele>457</ele>
        <time>2019-02-18T15:02:55+01:00</time>
      </trkpt>
      <trkpt lat="43.94284" lon="5.42492">
        <ele>457</ele>
        <time>2019-02-18T15:02:56+01:00</time>
      </trkpt>
      <trkpt lat="43.94283" lon="5.42494">
        <ele>457</ele>
        <time>2019-02-18T15:02:57+01:00</time>
      </trkpt>
      <trkpt lat="43.94282" lon="5.42497">
        <ele>457</ele>
        <time>2019-02-18T15:03:00+01:00</time>
      </trkpt>
      <trkpt lat="43.9428" lon="5.42497">
        <ele>456</ele>
        <time>2019-02-18T15:03:01+01:00</time>
      </trkpt>
      <trkpt lat="43.94279" lon="5.42496">
        <ele>456</ele>
        <time>2019-02-18T15:03:02+01:00</time>
      </trkpt>
      <trkpt lat="43.94278" lon="5.42496">
        <ele>456</ele>
        <time>2019-02-18T15:03:03+01:00</time>
      </trkpt>
      <trkpt lat="43.94277" lon="5.42496">
        <ele>456</ele>
        <time>2019-02-18T15:03:04+01:00</time>
      </trkpt>
      <trkpt lat="43.94276" lon="5.42496">
        <ele>456</ele>
        <time>2019-02-18T15:03:05+01:00</time>
      </trkpt>
      <trkpt lat="43.94275" lon="5.42497">
        <ele>455</ele>
        <time>2019-02-18T15:03:06+01:00</time>
      </trkpt>
      <trkpt lat="43.94273" lon="5.42498">
        <ele>455</ele>
        <time>2019-02-18T15:03:07+01:00</time>
      </trkpt>
      <trkpt lat="43.94251" lon="5.4251">
        <ele>451</ele>
        <time>2019-02-18T15:03:18+01:00</time>
      </trkpt>
      <trkpt lat="43.9425" lon="5.42514">
        <ele>451</ele>
        <time>2019-02-18T15:03:23+01:00</time>
      </trkpt>
      <trkpt lat="43.94254" lon="5.42519">
        <ele>452</ele>
        <time>2019-02-18T15:03:34+01:00</time>
      </trkpt>
      <trkpt lat="43.94254" lon="5.42518">
        <ele>452</ele>
        <time>2019-02-18T15:03:36+01:00</time>
      </trkpt>
      <trkpt lat="43.94253" lon="5.42519">
        <ele>452</ele>
        <time>2019-02-18T15:03:37+01:00</time>
      </trkpt>
      <trkpt lat="43.94252" lon="5.4252">
        <ele>451</ele>
        <time>2019-02-18T15:03:38+01:00</time>
      </trkpt>
      <trkpt lat="43.9425" lon="5.42522">
        <ele>451</ele>
        <time>2019-02-18T15:03:44+01:00</time>
      </trkpt>
      <trkpt lat="43.9425" lon="5.42523">
        <ele>451</ele>
        <time>2019-02-18T15:03:45+01:00</time>
      </trkpt>
      <trkpt lat="43.94249" lon="5.42524">
        <ele>451</ele>
        <time>2019-02-18T15:03:46+01:00</time>
      </trkpt>
      <trkpt lat="43.94248" lon="5.42526">
        <ele>451</ele>
        <time>2019-02-18T15:03:47+01:00</time>
      </trkpt>
      <trkpt lat="43.94247" lon="5.42526">
        <ele>451</ele>
        <time>2019-02-18T15:03:48+01:00</time>
      </trkpt>
      <trkpt lat="43.94246" lon="5.42527">
        <ele>450</ele>
        <time>2019-02-18T15:03:49+01:00</time>
      </trkpt>
      <trkpt lat="43.94244" lon="5.42529">
        <ele>450</ele>
        <time>2019-02-18T15:03:50+01:00</time>
      </trkpt>
      <trkpt lat="43.94237" lon="5.42537">
        <ele>449</ele>
        <time>2019-02-18T15:03:59+01:00</time>
      </trkpt>
      <trkpt lat="43.94236" lon="5.42539">
        <ele>449</ele>
        <time>2019-02-18T15:04:00+01:00</time>
      </trkpt>
      <trkpt lat="43.94235" lon="5.4254">
        <ele>449</ele>
        <time>2019-02-18T15:04:01+01:00</time>
      </trkpt>
      <trkpt lat="43.94234" lon="5.42542">
        <ele>448</ele>
        <time>2019-02-18T15:04:02+01:00</time>
      </trkpt>
      <trkpt lat="43.94234" lon="5.42543">
        <ele>448</ele>
        <time>2019-02-18T15:04:03+01:00</time>
      </trkpt>
      <trkpt lat="43.94226" lon="5.42551">
        <ele>447</ele>
        <time>2019-02-18T15:04:15+01:00</time>
      </trkpt>
      <trkpt lat="43.94226" lon="5.4255">
        <ele>447</ele>
        <time>2019-02-18T15:04:19+01:00</time>
      </trkpt>
      <trkpt lat="43.94212" lon="5.42555">
        <ele>444</ele>
        <time>2019-02-18T15:04:30+01:00</time>
      </trkpt>
      <trkpt lat="43.94199" lon="5.42563">
        <ele>440</ele>
        <time>2019-02-18T15:04:42+01:00</time>
      </trkpt>
      <trkpt lat="43.94197" lon="5.42568">
        <ele>440</ele>
        <time>2019-02-18T15:04:50+01:00</time>
      </trkpt>
      <trkpt lat="43.94191" lon="5.42569">
        <ele>438</ele>
        <time>2019-02-18T15:04:59+01:00</time>
      </trkpt>
      <trkpt lat="43.94188" lon="5.42571">
        <ele>438</ele>
        <time>2019-02-18T15:05:02+01:00</time>
      </trkpt>
      <trkpt lat="43.94184" lon="5.42572">
        <ele>437</ele>
        <time>2019-02-18T15:05:06+01:00</time>
      </trkpt>
      <trkpt lat="43.94167" lon="5.42566">
        <ele>434</ele>
        <time>2019-02-18T15:05:23+01:00</time>
      </trkpt>
      <trkpt lat="43.94154" lon="5.42569">
        <ele>431</ele>
        <time>2019-02-18T15:05:37+01:00</time>
      </trkpt>
      <trkpt lat="43.94141" lon="5.42562">
        <ele>429</ele>
        <time>2019-02-18T15:05:52+01:00</time>
      </trkpt>
      <trkpt lat="43.94125" lon="5.42568">
        <ele>425</ele>
        <time>2019-02-18T15:06:07+01:00</time>
      </trkpt>
      <trkpt lat="43.94106" lon="5.42578">
        <ele>419</ele>
        <time>2019-02-18T15:06:27+01:00</time>
      </trkpt>
      <trkpt lat="43.94104" lon="5.42578">
        <ele>418</ele>
        <time>2019-02-18T15:06:29+01:00</time>
      </trkpt>
      <trkpt lat="43.94088" lon="5.42589">
        <ele>413</ele>
        <time>2019-02-18T15:06:46+01:00</time>
      </trkpt>
      <trkpt lat="43.94074" lon="5.42591">
        <ele>411</ele>
        <time>2019-02-18T15:07:02+01:00</time>
      </trkpt>
      <trkpt lat="43.94074" lon="5.42591">
        <ele>411</ele>
        <time>2019-02-18T15:07:03+01:00</time>
      </trkpt>
      <trkpt lat="43.94072" lon="5.42593">
        <ele>410</ele>
        <time>2019-02-18T15:07:08+01:00</time>
      </trkpt>
      <trkpt lat="43.94071" lon="5.42594">
        <ele>410</ele>
        <time>2019-02-18T15:07:09+01:00</time>
      </trkpt>
      <trkpt lat="43.94069" lon="5.42595">
        <ele>410</ele>
        <time>2019-02-18T15:07:10+01:00</time>
      </trkpt>
      <trkpt lat="43.94047" lon="5.42604">
        <ele>407</ele>
        <time>2019-02-18T15:07:21+01:00</time>
      </trkpt>
      <trkpt lat="43.94049" lon="5.42602">
        <ele>407</ele>
        <time>2019-02-18T15:07:30+01:00</time>
      </trkpt>
      <trkpt lat="43.94046" lon="5.42599">
        <ele>407</ele>
        <time>2019-02-18T15:07:36+01:00</time>
      </trkpt>
      <trkpt lat="43.94041" lon="5.42595">
        <ele>406</ele>
        <time>2019-02-18T15:07:43+01:00</time>
      </trkpt>
      <trkpt lat="43.94039" lon="5.42595">
        <ele>406</ele>
        <time>2019-02-18T15:07:44+01:00</time>
      </trkpt>
      <trkpt lat="43.94029" lon="5.42593">
        <ele>405</ele>
        <time>2019-02-18T15:07:52+01:00</time>
      </trkpt>
      <trkpt lat="43.94028" lon="5.42593">
        <ele>404</ele>
        <time>2019-02-18T15:07:53+01:00</time>
      </trkpt>
      <trkpt lat="43.94022" lon="5.42588">
        <ele>404</ele>
        <time>2019-02-18T15:08:06+01:00</time>
      </trkpt>
      <trkpt lat="43.94021" lon="5.4259">
        <ele>404</ele>
        <time>2019-02-18T15:08:29+01:00</time>
      </trkpt>
      <trkpt lat="43.9402" lon="5.42592">
        <ele>404</ele>
        <time>2019-02-18T15:08:34+01:00</time>
      </trkpt>
      <trkpt lat="43.94021" lon="5.42591">
        <ele>404</ele>
        <time>2019-02-18T15:08:38+01:00</time>
      </trkpt>
      <trkpt lat="43.94019" lon="5.42583">
        <ele>404</ele>
        <time>2019-02-18T15:08:48+01:00</time>
      </trkpt>
      <trkpt lat="43.9402" lon="5.42586">
        <ele>404</ele>
        <time>2019-02-18T15:09:02+01:00</time>
      </trkpt>
      <trkpt lat="43.94021" lon="5.42587">
        <ele>404</ele>
        <time>2019-02-18T15:09:12+01:00</time>
      </trkpt>
      <trkpt lat="43.94021" lon="5.42588">
        <ele>404</ele>
        <time>2019-02-18T15:09:15+01:00</time>
      </trkpt>
      <trkpt lat="43.94021" lon="5.42594">
        <ele>404</ele>
        <time>2019-02-18T15:09:22+01:00</time>
      </trkpt>
      <trkpt lat="43.94013" lon="5.42594">
        <ele>403</ele>
        <time>2019-02-18T15:09:35+01:00</time>
      </trkpt>
      <trkpt lat="43.94003" lon="5.4258">
        <ele>403</ele>
        <time>2019-02-18T15:09:50+01:00</time>
      </trkpt>
      <trkpt lat="43.93999" lon="5.4256">
        <ele>404</ele>
        <time>2019-02-18T15:10:06+01:00</time>
      </trkpt>
      <trkpt lat="43.93999" lon="5.42559">
        <ele>404</ele>
        <time>2019-02-18T15:10:07+01:00</time>
      </trkpt>
      <trkpt lat="43.93994" lon="5.4254">
        <ele>404</ele>
        <time>2019-02-18T15:10:20+01:00</time>
      </trkpt>
      <trkpt lat="43.93994" lon="5.42534">
        <ele>404</ele>
        <time>2019-02-18T15:10:30+01:00</time>
      </trkpt>
      <trkpt lat="43.93997" lon="5.42527">
        <ele>405</ele>
        <time>2019-02-18T15:10:38+01:00</time>
      </trkpt>
      <trkpt lat="43.93992" lon="5.42515">
        <ele>404</ele>
        <time>2019-02-18T15:10:42+01:00</time>
      </trkpt>
      <trkpt lat="43.93992" lon="5.42513">
        <ele>404</ele>
        <time>2019-02-18T15:10:43+01:00</time>
      </trkpt>
      <trkpt lat="43.93992" lon="5.42505">
        <ele>403</ele>
        <time>2019-02-18T15:10:52+01:00</time>
      </trkpt>
      <trkpt lat="43.93991" lon="5.42507">
        <ele>403</ele>
        <time>2019-02-18T15:11:04+01:00</time>
      </trkpt>
      <trkpt lat="43.9399" lon="5.42506">
        <ele>403</ele>
        <time>2019-02-18T15:11:08+01:00</time>
      </trkpt>
      <trkpt lat="43.9399" lon="5.42504">
        <ele>403</ele>
        <time>2019-02-18T15:11:09+01:00</time>
      </trkpt>
      <trkpt lat="43.9399" lon="5.42502">
        <ele>403</ele>
        <time>2019-02-18T15:11:10+01:00</time>
      </trkpt>
      <trkpt lat="43.93989" lon="5.425">
        <ele>403</ele>
        <time>2019-02-18T15:11:11+01:00</time>
      </trkpt>
      <trkpt lat="43.93989" lon="5.42498">
        <ele>403</ele>
        <time>2019-02-18T15:11:12+01:00</time>
      </trkpt>
      <trkpt lat="43.93988" lon="5.42495">
        <ele>403</ele>
        <time>2019-02-18T15:11:13+01:00</time>
      </trkpt>
      <trkpt lat="43.93988" lon="5.42494">
        <ele>402</ele>
        <time>2019-02-18T15:11:14+01:00</time>
      </trkpt>
      <trkpt lat="43.93988" lon="5.42492">
        <ele>402</ele>
        <time>2019-02-18T15:11:15+01:00</time>
      </trkpt>
      <trkpt lat="43.93982" lon="5.42477">
        <ele>401</ele>
        <time>2019-02-18T15:11:24+01:00</time>
      </trkpt>
      <trkpt lat="43.93984" lon="5.42476">
        <ele>401</ele>
        <time>2019-02-18T15:11:25+01:00</time>
      </trkpt>
      <trkpt lat="43.93996" lon="5.42486">
        <ele>403</ele>
        <time>2019-02-18T15:11:38+01:00</time>
      </trkpt>
      <trkpt lat="43.94007" lon="5.42491">
        <ele>404</ele>
        <time>2019-02-18T15:11:50+01:00</time>
      </trkpt>
      <trkpt lat="43.94018" lon="5.4249">
        <ele>406</ele>
        <time>2019-02-18T15:12:05+01:00</time>
      </trkpt>
      <trkpt lat="43.9402" lon="5.42489">
        <ele>406</ele>
        <time>2019-02-18T15:12:13+01:00</time>
      </trkpt>
      <trkpt lat="43.94022" lon="5.42489">
        <ele>406</ele>
        <time>2019-02-18T15:12:30+01:00</time>
      </trkpt>
      <trkpt lat="43.94025" lon="5.42486">
        <ele>407</ele>
        <time>2019-02-18T15:12:45+01:00</time>
      </trkpt>
      <trkpt lat="43.94024" lon="5.42489">
        <ele>407</ele>
        <time>2019-02-18T15:12:55+01:00</time>
      </trkpt>
      <trkpt lat="43.94028" lon="5.42491">
        <ele>407</ele>
        <time>2019-02-18T15:12:59+01:00</time>
      </trkpt>
      <trkpt lat="43.94029" lon="5.42492">
        <ele>407</ele>
        <time>2019-02-18T15:13:00+01:00</time>
      </trkpt>
      <trkpt lat="43.9403" lon="5.42493">
        <ele>407</ele>
        <time>2019-02-18T15:13:01+01:00</time>
      </trkpt>
      <trkpt lat="43.94039" lon="5.42495">
        <ele>408</ele>
        <time>2019-02-18T15:13:15+01:00</time>
      </trkpt>
      <trkpt lat="43.94047" lon="5.42485">
        <ele>409</ele>
        <time>2019-02-18T15:13:30+01:00</time>
      </trkpt>
      <trkpt lat="43.94048" lon="5.42483">
        <ele>409</ele>
        <time>2019-02-18T15:13:44+01:00</time>
      </trkpt>
      <trkpt lat="43.94051" lon="5.42484">
        <ele>409</ele>
        <time>2019-02-18T15:13:56+01:00</time>
      </trkpt>
      <trkpt lat="43.94054" lon="5.42485">
        <ele>409</ele>
        <time>2019-02-18T15:14:09+01:00</time>
      </trkpt>
      <trkpt lat="43.94055" lon="5.42489">
        <ele>410</ele>
        <time>2019-02-18T15:14:17+01:00</time>
      </trkpt>
      <trkpt lat="43.94055" lon="5.42491">
        <ele>410</ele>
        <time>2019-02-18T15:14:18+01:00</time>
      </trkpt>
      <trkpt lat="43.94056" lon="5.42495">
        <ele>410</ele>
        <time>2019-02-18T15:14:21+01:00</time>
      </trkpt>
      <trkpt lat="43.9406" lon="5.42492">
        <ele>411</ele>
        <time>2019-02-18T15:14:33+01:00</time>
      </trkpt>
      <trkpt lat="43.94061" lon="5.42489">
        <ele>411</ele>
        <time>2019-02-18T15:14:39+01:00</time>
      </trkpt>
      <trkpt lat="43.94062" lon="5.42491">
        <ele>411</ele>
        <time>2019-02-18T15:14:53+01:00</time>
      </trkpt>
      <trkpt lat="43.94058" lon="5.42495">
        <ele>410</ele>
        <time>2019-02-18T15:15:08+01:00</time>
      </trkpt>
      <trkpt lat="43.94057" lon="5.42496">
        <ele>410</ele>
        <time>2019-02-18T15:15:09+01:00</time>
      </trkpt>
      <trkpt lat="43.94051" lon="5.42494">
        <ele>409</ele>
        <time>2019-02-18T15:15:23+01:00</time>
      </trkpt>
      <trkpt lat="43.94051" lon="5.42495">
        <ele>409</ele>
        <time>2019-02-18T15:15:39+01:00</time>
      </trkpt>
      <trkpt lat="43.94053" lon="5.42494">
        <ele>410</ele>
        <time>2019-02-18T15:16:01+01:00</time>
      </trkpt>
      <trkpt lat="43.94045" lon="5.42492">
        <ele>409</ele>
        <time>2019-02-18T15:16:15+01:00</time>
      </trkpt>
      <trkpt lat="43.94036" lon="5.42493">
        <ele>408</ele>
        <time>2019-02-18T15:16:33+01:00</time>
      </trkpt>
      <trkpt lat="43.94025" lon="5.42489">
        <ele>407</ele>
        <time>2019-02-18T15:16:48+01:00</time>
      </trkpt>
      <trkpt lat="43.94019" lon="5.42487">
        <ele>406</ele>
        <time>2019-02-18T15:17:03+01:00</time>
      </trkpt>
      <trkpt lat="43.94014" lon="5.42491">
        <ele>405</ele>
        <time>2019-02-18T15:17:10+01:00</time>
      </trkpt>
      <trkpt lat="43.94013" lon="5.42502">
        <ele>405</ele>
        <time>2019-02-18T15:17:25+01:00</time>
      </trkpt>
      <trkpt lat="43.94011" lon="5.42493">
        <ele>405</ele>
        <time>2019-02-18T15:17:41+01:00</time>
      </trkpt>
      <trkpt lat="43.94008" lon="5.42493">
        <ele>405</ele>
        <time>2019-02-18T15:17:58+01:00</time>
      </trkpt>
      <trkpt lat="43.93998" lon="5.42489">
        <ele>403</ele>
        <time>2019-02-18T15:18:14+01:00</time>
      </trkpt>
      <trkpt lat="43.93986" lon="5.42485">
        <ele>402</ele>
        <time>2019-02-18T15:18:32+01:00</time>
      </trkpt>
      <trkpt lat="43.93987" lon="5.42487">
        <ele>402</ele>
        <time>2019-02-18T15:18:59+01:00</time>
      </trkpt>
      <trkpt lat="43.93984" lon="5.42479">
        <ele>401</ele>
        <time>2019-02-18T15:19:31+01:00</time>
      </trkpt>
      <trkpt lat="43.93976" lon="5.42463">
        <ele>400</ele>
        <time>2019-02-18T15:19:48+01:00</time>
      </trkpt>
      <trkpt lat="43.93974" lon="5.42458">
        <ele>399</ele>
        <time>2019-02-18T15:19:52+01:00</time>
      </trkpt>
      <trkpt lat="43.93965" lon="5.42437">
        <ele>397</ele>
        <time>2019-02-18T15:20:08+01:00</time>
      </trkpt>
      <trkpt lat="43.93961" lon="5.42417">
        <ele>395</ele>
        <time>2019-02-18T15:20:24+01:00</time>
      </trkpt>
      <trkpt lat="43.93948" lon="5.42402">
        <ele>393</ele>
        <time>2019-02-18T15:20:41+01:00</time>
      </trkpt>
      <trkpt lat="43.93941" lon="5.42395">
        <ele>392</ele>
        <time>2019-02-18T15:20:52+01:00</time>
      </trkpt>
      <trkpt lat="43.93937" lon="5.42392">
        <ele>392</ele>
        <time>2019-02-18T15:20:55+01:00</time>
      </trkpt>
      <trkpt lat="43.93935" lon="5.4239">
        <ele>391</ele>
        <time>2019-02-18T15:20:56+01:00</time>
      </trkpt>
      <trkpt lat="43.93934" lon="5.42388">
        <ele>391</ele>
        <time>2019-02-18T15:20:57+01:00</time>
      </trkpt>
      <trkpt lat="43.93922" lon="5.4238">
        <ele>390</ele>
        <time>2019-02-18T15:21:07+01:00</time>
      </trkpt>
      <trkpt lat="43.93924" lon="5.42372">
        <ele>389</ele>
        <time>2019-02-18T15:21:18+01:00</time>
      </trkpt>
      <trkpt lat="43.93925" lon="5.42359">
        <ele>388</ele>
        <time>2019-02-18T15:21:29+01:00</time>
      </trkpt>
      <trkpt lat="43.9391" lon="5.42335">
        <ele>383</ele>
        <time>2019-02-18T15:21:40+01:00</time>
      </trkpt>
      <trkpt lat="43.9391" lon="5.42324">
        <ele>381</ele>
        <time>2019-02-18T15:21:51+01:00</time>
      </trkpt>
      <trkpt lat="43.93911" lon="5.42319">
        <ele>381</ele>
        <time>2019-02-18T15:22:05+01:00</time>
      </trkpt>
      <trkpt lat="43.93906" lon="5.42309">
        <ele>380</ele>
        <time>2019-02-18T15:22:14+01:00</time>
      </trkpt>
      <trkpt lat="43.93905" lon="5.42309">
        <ele>379</ele>
        <time>2019-02-18T15:22:15+01:00</time>
      </trkpt>
      <trkpt lat="43.93894" lon="5.42298">
        <ele>378</ele>
        <time>2019-02-18T15:22:24+01:00</time>
      </trkpt>
      <trkpt lat="43.93886" lon="5.42285">
        <ele>375</ele>
        <time>2019-02-18T15:22:35+01:00</time>
      </trkpt>
      <trkpt lat="43.93882" lon="5.42277">
        <ele>374</ele>
        <time>2019-02-18T15:22:46+01:00</time>
      </trkpt>
      <trkpt lat="43.93881" lon="5.42267">
        <ele>374</ele>
        <time>2019-02-18T15:22:56+01:00</time>
      </trkpt>
      <trkpt lat="43.9388" lon="5.42266">
        <ele>374</ele>
        <time>2019-02-18T15:22:57+01:00</time>
      </trkpt>
      <trkpt lat="43.93878" lon="5.42264">
        <ele>374</ele>
        <time>2019-02-18T15:22:58+01:00</time>
      </trkpt>
      <trkpt lat="43.93875" lon="5.42261">
        <ele>373</ele>
        <time>2019-02-18T15:23:00+01:00</time>
      </trkpt>
      <trkpt lat="43.93874" lon="5.42259">
        <ele>373</ele>
        <time>2019-02-18T15:23:01+01:00</time>
      </trkpt>
      <trkpt lat="43.9387" lon="5.42244">
        <ele>373</ele>
        <time>2019-02-18T15:23:12+01:00</time>
      </trkpt>
      <trkpt lat="43.93868" lon="5.42242">
        <ele>372</ele>
        <time>2019-02-18T15:23:14+01:00</time>
      </trkpt>
      <trkpt lat="43.93866" lon="5.42241">
        <ele>372</ele>
        <time>2019-02-18T15:23:15+01:00</time>
      </trkpt>
      <trkpt lat="43.93861" lon="5.42243">
        <ele>371</ele>
        <time>2019-02-18T15:23:26+01:00</time>
      </trkpt>
      <trkpt lat="43.93857" lon="5.42248">
        <ele>371</ele>
        <time>2019-02-18T15:23:37+01:00</time>
      </trkpt>
      <trkpt lat="43.93855" lon="5.42251">
        <ele>370</ele>
        <time>2019-02-18T15:23:38+01:00</time>
      </trkpt>
      <trkpt lat="43.93853" lon="5.42254">
        <ele>370</ele>
        <time>2019-02-18T15:23:40+01:00</time>
      </trkpt>
      <trkpt lat="43.93852" lon="5.42256">
        <ele>370</ele>
        <time>2019-02-18T15:23:41+01:00</time>
      </trkpt>
      <trkpt lat="43.9385" lon="5.42257">
        <ele>370</ele>
        <time>2019-02-18T15:23:42+01:00</time>
      </trkpt>
      <trkpt lat="43.93849" lon="5.42258">
        <ele>370</ele>
        <time>2019-02-18T15:23:43+01:00</time>
      </trkpt>
      <trkpt lat="43.93847" lon="5.42259">
        <ele>369</ele>
        <time>2019-02-18T15:23:44+01:00</time>
      </trkpt>
      <trkpt lat="43.93845" lon="5.4226">
        <ele>369</ele>
        <time>2019-02-18T15:23:45+01:00</time>
      </trkpt>
      <trkpt lat="43.93844" lon="5.42262">
        <ele>369</ele>
        <time>2019-02-18T15:23:46+01:00</time>
      </trkpt>
      <trkpt lat="43.93838" lon="5.42262">
        <ele>368</ele>
        <time>2019-02-18T15:23:56+01:00</time>
      </trkpt>
      <trkpt lat="43.93824" lon="5.42269">
        <ele>366</ele>
        <time>2019-02-18T15:24:09+01:00</time>
      </trkpt>
      <trkpt lat="43.93822" lon="5.4227">
        <ele>366</ele>
        <time>2019-02-18T15:24:10+01:00</time>
      </trkpt>
      <trkpt lat="43.93821" lon="5.42272">
        <ele>365</ele>
        <time>2019-02-18T15:24:11+01:00</time>
      </trkpt>
      <trkpt lat="43.93821" lon="5.42274">
        <ele>365</ele>
        <time>2019-02-18T15:24:12+01:00</time>
      </trkpt>
      <trkpt lat="43.93808" lon="5.42288">
        <ele>364</ele>
        <time>2019-02-18T15:24:27+01:00</time>
      </trkpt>
      <trkpt lat="43.93794" lon="5.42308">
        <ele>363</ele>
        <time>2019-02-18T15:24:40+01:00</time>
      </trkpt>
      <trkpt lat="43.93779" lon="5.42328">
        <ele>363</ele>
        <time>2019-02-18T15:24:53+01:00</time>
      </trkpt>
      <trkpt lat="43.93777" lon="5.42331">
        <ele>363</ele>
        <time>2019-02-18T15:24:55+01:00</time>
      </trkpt>
      <trkpt lat="43.93775" lon="5.42331">
        <ele>362</ele>
        <time>2019-02-18T15:24:56+01:00</time>
      </trkpt>
      <trkpt lat="43.93773" lon="5.42331">
        <ele>362</ele>
        <time>2019-02-18T15:24:57+01:00</time>
      </trkpt>
      <trkpt lat="43.93771" lon="5.42331">
        <ele>362</ele>
        <time>2019-02-18T15:24:58+01:00</time>
      </trkpt>
      <trkpt lat="43.9377" lon="5.42331">
        <ele>362</ele>
        <time>2019-02-18T15:24:59+01:00</time>
      </trkpt>
      <trkpt lat="43.93769" lon="5.4233">
        <ele>362</ele>
        <time>2019-02-18T15:25:00+01:00</time>
      </trkpt>
      <trkpt lat="43.93769" lon="5.4233">
        <ele>362</ele>
        <time>2019-02-18T15:25:03+01:00</time>
      </trkpt>
      <trkpt lat="43.93769" lon="5.42331">
        <ele>362</ele>
        <time>2019-02-18T15:25:04+01:00</time>
      </trkpt>
      <trkpt lat="43.93768" lon="5.42333">
        <ele>362</ele>
        <time>2019-02-18T15:25:06+01:00</time>
      </trkpt>
      <trkpt lat="43.93765" lon="5.42333">
        <ele>362</ele>
        <time>2019-02-18T15:25:20+01:00</time>
      </trkpt>
      <trkpt lat="43.93762" lon="5.42335">
        <ele>362</ele>
        <time>2019-02-18T15:25:24+01:00</time>
      </trkpt>
      <trkpt lat="43.9376" lon="5.42336">
        <ele>362</ele>
        <time>2019-02-18T15:25:25+01:00</time>
      </trkpt>
      <trkpt lat="43.93759" lon="5.42337">
        <ele>362</ele>
        <time>2019-02-18T15:25:26+01:00</time>
      </trkpt>
      <trkpt lat="43.93758" lon="5.42338">
        <ele>362</ele>
        <time>2019-02-18T15:25:27+01:00</time>
      </trkpt>
      <trkpt lat="43.93757" lon="5.4234">
        <ele>362</ele>
        <time>2019-02-18T15:25:28+01:00</time>
      </trkpt>
      <trkpt lat="43.93754" lon="5.42345">
        <ele>363</ele>
        <time>2019-02-18T15:25:32+01:00</time>
      </trkpt>
      <trkpt lat="43.93747" lon="5.42356">
        <ele>366</ele>
        <time>2019-02-18T15:25:48+01:00</time>
      </trkpt>
      <trkpt lat="43.93744" lon="5.42358">
        <ele>367</ele>
        <time>2019-02-18T15:26:01+01:00</time>
      </trkpt>
      <trkpt lat="43.93743" lon="5.42359">
        <ele>367</ele>
        <time>2019-02-18T15:26:02+01:00</time>
      </trkpt>
      <trkpt lat="43.93742" lon="5.4236">
        <ele>368</ele>
        <time>2019-02-18T15:26:03+01:00</time>
      </trkpt>
      <trkpt lat="43.93739" lon="5.42365">
        <ele>368</ele>
        <time>2019-02-18T15:26:10+01:00</time>
      </trkpt>
      <trkpt lat="43.93734" lon="5.42371">
        <ele>369</ele>
        <time>2019-02-18T15:26:19+01:00</time>
      </trkpt>
      <trkpt lat="43.9372" lon="5.42384">
        <ele>370</ele>
        <time>2019-02-18T15:26:35+01:00</time>
      </trkpt>
      <trkpt lat="43.93708" lon="5.42397">
        <ele>369</ele>
        <time>2019-02-18T15:26:45+01:00</time>
      </trkpt>
      <trkpt lat="43.93693" lon="5.42412">
        <ele>366</ele>
        <time>2019-02-18T15:26:57+01:00</time>
      </trkpt>
      <trkpt lat="43.93692" lon="5.42412">
        <ele>366</ele>
        <time>2019-02-18T15:26:58+01:00</time>
      </trkpt>
      <trkpt lat="43.93688" lon="5.42418">
        <ele>365</ele>
        <time>2019-02-18T15:27:11+01:00</time>
      </trkpt>
      <trkpt lat="43.93691" lon="5.42424">
        <ele>364</ele>
        <time>2019-02-18T15:27:21+01:00</time>
      </trkpt>
      <trkpt lat="43.93703" lon="5.42435">
        <ele>364</ele>
        <time>2019-02-18T15:27:33+01:00</time>
      </trkpt>
      <trkpt lat="43.93708" lon="5.42441">
        <ele>363</ele>
        <time>2019-02-18T15:27:47+01:00</time>
      </trkpt>
      <trkpt lat="43.93714" lon="5.42457">
        <ele>362</ele>
        <time>2019-02-18T15:27:58+01:00</time>
      </trkpt>
      <trkpt lat="43.93715" lon="5.42459">
        <ele>362</ele>
        <time>2019-02-18T15:27:59+01:00</time>
      </trkpt>
      <trkpt lat="43.93734" lon="5.42477">
        <ele>362</ele>
        <time>2019-02-18T15:28:12+01:00</time>
      </trkpt>
      <trkpt lat="43.93755" lon="5.42501">
        <ele>363</ele>
        <time>2019-02-18T15:28:24+01:00</time>
      </trkpt>
      <trkpt lat="43.93764" lon="5.42513">
        <ele>364</ele>
        <time>2019-02-18T15:28:34+01:00</time>
      </trkpt>
      <trkpt lat="43.93765" lon="5.42514">
        <ele>364</ele>
        <time>2019-02-18T15:28:35+01:00</time>
      </trkpt>
      <trkpt lat="43.93765" lon="5.42516">
        <ele>364</ele>
        <time>2019-02-18T15:28:36+01:00</time>
      </trkpt>
      <trkpt lat="43.93766" lon="5.42518">
        <ele>364</ele>
        <time>2019-02-18T15:28:37+01:00</time>
      </trkpt>
      <trkpt lat="43.93767" lon="5.4252">
        <ele>364</ele>
        <time>2019-02-18T15:28:38+01:00</time>
      </trkpt>
      <trkpt lat="43.93768" lon="5.42521">
        <ele>364</ele>
        <time>2019-02-18T15:28:39+01:00</time>
      </trkpt>
      <trkpt lat="43.93769" lon="5.42523">
        <ele>364</ele>
        <time>2019-02-18T15:28:40+01:00</time>
      </trkpt>
      <trkpt lat="43.9377" lon="5.42525">
        <ele>364</ele>
        <time>2019-02-18T15:28:41+01:00</time>
      </trkpt>
      <trkpt lat="43.93771" lon="5.42527">
        <ele>364</ele>
        <time>2019-02-18T15:28:42+01:00</time>
      </trkpt>
      <trkpt lat="43.93771" lon="5.42529">
        <ele>364</ele>
        <time>2019-02-18T15:28:43+01:00</time>
      </trkpt>
      <trkpt lat="43.93771" lon="5.4253">
        <ele>364</ele>
        <time>2019-02-18T15:28:44+01:00</time>
      </trkpt>
      <trkpt lat="43.93773" lon="5.4255">
        <ele>363</ele>
        <time>2019-02-18T15:28:56+01:00</time>
      </trkpt>
      <trkpt lat="43.9377" lon="5.42565">
        <ele>361</ele>
        <time>2019-02-18T15:29:11+01:00</time>
      </trkpt>
      <trkpt lat="43.93768" lon="5.42591">
        <ele>359</ele>
        <time>2019-02-18T15:29:24+01:00</time>
      </trkpt>
      <trkpt lat="43.93767" lon="5.42599">
        <ele>359</ele>
        <time>2019-02-18T15:29:33+01:00</time>
      </trkpt>
      <trkpt lat="43.93767" lon="5.42601">
        <ele>358</ele>
        <time>2019-02-18T15:29:34+01:00</time>
      </trkpt>
      <trkpt lat="43.93767" lon="5.42603">
        <ele>358</ele>
        <time>2019-02-18T15:29:35+01:00</time>
      </trkpt>
      <trkpt lat="43.93767" lon="5.42605">
        <ele>358</ele>
        <time>2019-02-18T15:29:36+01:00</time>
      </trkpt>
      <trkpt lat="43.93766" lon="5.42607">
        <ele>358</ele>
        <time>2019-02-18T15:29:37+01:00</time>
      </trkpt>
      <trkpt lat="43.93766" lon="5.42609">
        <ele>358</ele>
        <time>2019-02-18T15:29:38+01:00</time>
      </trkpt>
      <trkpt lat="43.93766" lon="5.42615">
        <ele>358</ele>
        <time>2019-02-18T15:29:46+01:00</time>
      </trkpt>
      <trkpt lat="43.93764" lon="5.42618">
        <ele>358</ele>
        <time>2019-02-18T15:29:52+01:00</time>
      </trkpt>
      <trkpt lat="43.93764" lon="5.4262">
        <ele>357</ele>
        <time>2019-02-18T15:29:53+01:00</time>
      </trkpt>
      <trkpt lat="43.93763" lon="5.4263">
        <ele>357</ele>
        <time>2019-02-18T15:30:01+01:00</time>
      </trkpt>
      <trkpt lat="43.93762" lon="5.42633">
        <ele>357</ele>
        <time>2019-02-18T15:30:02+01:00</time>
      </trkpt>
      <trkpt lat="43.93763" lon="5.42635">
        <ele>357</ele>
        <time>2019-02-18T15:30:03+01:00</time>
      </trkpt>
      <trkpt lat="43.93763" lon="5.42638">
        <ele>357</ele>
        <time>2019-02-18T15:30:04+01:00</time>
      </trkpt>
      <trkpt lat="43.93762" lon="5.42639">
        <ele>357</ele>
        <time>2019-02-18T15:30:05+01:00</time>
      </trkpt>
      <trkpt lat="43.93763" lon="5.42648">
        <ele>358</ele>
        <time>2019-02-18T15:30:11+01:00</time>
      </trkpt>
      <trkpt lat="43.93763" lon="5.4265">
        <ele>358</ele>
        <time>2019-02-18T15:30:12+01:00</time>
      </trkpt>
      <trkpt lat="43.9376" lon="5.42659">
        <ele>358</ele>
        <time>2019-02-18T15:30:23+01:00</time>
      </trkpt>
      <trkpt lat="43.93755" lon="5.4266">
        <ele>357</ele>
        <time>2019-02-18T15:30:30+01:00</time>
      </trkpt>
      <trkpt lat="43.93754" lon="5.4266">
        <ele>357</ele>
        <time>2019-02-18T15:30:31+01:00</time>
      </trkpt>
      <trkpt lat="43.9375" lon="5.42661">
        <ele>356</ele>
        <time>2019-02-18T15:30:41+01:00</time>
      </trkpt>
      <trkpt lat="43.93748" lon="5.4266">
        <ele>356</ele>
        <time>2019-02-18T15:30:48+01:00</time>
      </trkpt>
      <trkpt lat="43.93747" lon="5.42661">
        <ele>356</ele>
        <time>2019-02-18T15:30:49+01:00</time>
      </trkpt>
      <trkpt lat="43.93742" lon="5.42665">
        <ele>355</ele>
        <time>2019-02-18T15:30:59+01:00</time>
      </trkpt>
      <trkpt lat="43.93738" lon="5.42671">
        <ele>354</ele>
        <time>2019-02-18T15:31:10+01:00</time>
      </trkpt>
      <trkpt lat="43.93737" lon="5.42672">
        <ele>354</ele>
        <time>2019-02-18T15:31:11+01:00</time>
      </trkpt>
      <trkpt lat="43.93736" lon="5.42673">
        <ele>354</ele>
        <time>2019-02-18T15:31:12+01:00</time>
      </trkpt>
      <trkpt lat="43.93732" lon="5.42678">
        <ele>353</ele>
        <time>2019-02-18T15:31:25+01:00</time>
      </trkpt>
      <trkpt lat="43.9373" lon="5.42678">
        <ele>353</ele>
        <time>2019-02-18T15:31:26+01:00</time>
      </trkpt>
      <trkpt lat="43.93726" lon="5.42681">
        <ele>352</ele>
        <time>2019-02-18T15:31:30+01:00</time>
      </trkpt>
      <trkpt lat="43.93723" lon="5.42682">
        <ele>352</ele>
        <time>2019-02-18T15:31:32+01:00</time>
      </trkpt>
      <trkpt lat="43.93722" lon="5.42683">
        <ele>351</ele>
        <time>2019-02-18T15:31:33+01:00</time>
      </trkpt>
      <trkpt lat="43.93719" lon="5.42685">
        <ele>351</ele>
        <time>2019-02-18T15:31:36+01:00</time>
      </trkpt>
      <trkpt lat="43.93718" lon="5.42685">
        <ele>351</ele>
        <time>2019-02-18T15:31:37+01:00</time>
      </trkpt>
      <trkpt lat="43.93711" lon="5.42687">
        <ele>350</ele>
        <time>2019-02-18T15:31:48+01:00</time>
      </trkpt>
      <trkpt lat="43.9371" lon="5.42689">
        <ele>350</ele>
        <time>2019-02-18T15:31:49+01:00</time>
      </trkpt>
      <trkpt lat="43.93709" lon="5.4269">
        <ele>350</ele>
        <time>2019-02-18T15:31:50+01:00</time>
      </trkpt>
      <trkpt lat="43.93707" lon="5.42691">
        <ele>349</ele>
        <time>2019-02-18T15:32:03+01:00</time>
      </trkpt>
      <trkpt lat="43.93705" lon="5.42687">
        <ele>349</ele>
        <time>2019-02-18T15:32:20+01:00</time>
      </trkpt>
      <trkpt lat="43.93702" lon="5.42687">
        <ele>349</ele>
        <time>2019-02-18T15:32:42+01:00</time>
      </trkpt>
      <trkpt lat="43.93701" lon="5.42685">
        <ele>349</ele>
        <time>2019-02-18T15:33:12+01:00</time>
      </trkpt>
      <trkpt lat="43.93704" lon="5.42685">
        <ele>349</ele>
        <time>2019-02-18T15:33:40+01:00</time>
      </trkpt>
      <trkpt lat="43.93711" lon="5.42682">
        <ele>350</ele>
        <time>2019-02-18T15:34:04+01:00</time>
      </trkpt>
      <trkpt lat="43.93713" lon="5.42684">
        <ele>350</ele>
        <time>2019-02-18T15:34:19+01:00</time>
      </trkpt>
      <trkpt lat="43.93709" lon="5.42675">
        <ele>350</ele>
        <time>2019-02-18T15:34:31+01:00</time>
      </trkpt>
      <trkpt lat="43.9369" lon="5.42663">
        <ele>347</ele>
        <time>2019-02-18T15:34:49+01:00</time>
      </trkpt>
      <trkpt lat="43.93692" lon="5.42642">
        <ele>348</ele>
        <time>2019-02-18T15:35:07+01:00</time>
      </trkpt>
      <trkpt lat="43.93694" lon="5.42631">
        <ele>349</ele>
        <time>2019-02-18T15:35:26+01:00</time>
      </trkpt>
      <trkpt lat="43.93695" lon="5.42621">
        <ele>350</ele>
        <time>2019-02-18T15:35:33+01:00</time>
      </trkpt>
      <trkpt lat="43.93696" lon="5.42628">
        <ele>349</ele>
        <time>2019-02-18T15:35:47+01:00</time>
      </trkpt>
      <trkpt lat="43.93696" lon="5.42641">
        <ele>349</ele>
        <time>2019-02-18T15:36:01+01:00</time>
      </trkpt>
      <trkpt lat="43.9369" lon="5.42662">
        <ele>347</ele>
        <time>2019-02-18T15:36:19+01:00</time>
      </trkpt>
      <trkpt lat="43.93689" lon="5.42665">
        <ele>347</ele>
        <time>2019-02-18T15:36:36+01:00</time>
      </trkpt>
      <trkpt lat="43.93702" lon="5.4268">
        <ele>349</ele>
        <time>2019-02-18T15:36:54+01:00</time>
      </trkpt>
      <trkpt lat="43.93713" lon="5.42695">
        <ele>350</ele>
        <time>2019-02-18T15:37:13+01:00</time>
      </trkpt>
      <trkpt lat="43.93719" lon="5.42717">
        <ele>351</ele>
        <time>2019-02-18T15:37:30+01:00</time>
      </trkpt>
      <trkpt lat="43.93726" lon="5.42725">
        <ele>352</ele>
        <time>2019-02-18T15:37:45+01:00</time>
      </trkpt>
      <trkpt lat="43.93734" lon="5.42728">
        <ele>354</ele>
        <time>2019-02-18T15:37:59+01:00</time>
      </trkpt>
      <trkpt lat="43.93741" lon="5.42737">
        <ele>355</ele>
        <time>2019-02-18T15:38:13+01:00</time>
      </trkpt>
      <trkpt lat="43.93747" lon="5.42755">
        <ele>356</ele>
        <time>2019-02-18T15:38:32+01:00</time>
      </trkpt>
      <trkpt lat="43.93749" lon="5.42765">
        <ele>357</ele>
        <time>2019-02-18T15:38:45+01:00</time>
      </trkpt>
      <trkpt lat="43.9375" lon="5.42769">
        <ele>357</ele>
        <time>2019-02-18T15:38:49+01:00</time>
      </trkpt>
      <trkpt lat="43.9375" lon="5.42771">
        <ele>357</ele>
        <time>2019-02-18T15:38:50+01:00</time>
      </trkpt>
      <trkpt lat="43.93751" lon="5.42775">
        <ele>357</ele>
        <time>2019-02-18T15:38:54+01:00</time>
      </trkpt>
      <trkpt lat="43.93752" lon="5.42777">
        <ele>357</ele>
        <time>2019-02-18T15:38:55+01:00</time>
      </trkpt>
      <trkpt lat="43.93753" lon="5.42781">
        <ele>357</ele>
        <time>2019-02-18T15:38:59+01:00</time>
      </trkpt>
      <trkpt lat="43.93753" lon="5.42782">
        <ele>358</ele>
        <time>2019-02-18T15:39:00+01:00</time>
      </trkpt>
      <trkpt lat="43.93756" lon="5.42792">
        <ele>358</ele>
        <time>2019-02-18T15:39:09+01:00</time>
      </trkpt>
      <trkpt lat="43.93759" lon="5.42804">
        <ele>359</ele>
        <time>2019-02-18T15:39:18+01:00</time>
      </trkpt>
      <trkpt lat="43.93759" lon="5.42805">
        <ele>359</ele>
        <time>2019-02-18T15:39:19+01:00</time>
      </trkpt>
      <trkpt lat="43.9376" lon="5.42806">
        <ele>359</ele>
        <time>2019-02-18T15:39:20+01:00</time>
      </trkpt>
      <trkpt lat="43.9376" lon="5.42808">
        <ele>359</ele>
        <time>2019-02-18T15:39:21+01:00</time>
      </trkpt>
      <trkpt lat="43.93761" lon="5.42812">
        <ele>359</ele>
        <time>2019-02-18T15:39:25+01:00</time>
      </trkpt>
      <trkpt lat="43.93761" lon="5.42814">
        <ele>359</ele>
        <time>2019-02-18T15:39:26+01:00</time>
      </trkpt>
      <trkpt lat="43.93761" lon="5.42816">
        <ele>359</ele>
        <time>2019-02-18T15:39:27+01:00</time>
      </trkpt>
      <trkpt lat="43.93762" lon="5.4282">
        <ele>359</ele>
        <time>2019-02-18T15:39:31+01:00</time>
      </trkpt>
      <trkpt lat="43.93763" lon="5.42822">
        <ele>359</ele>
        <time>2019-02-18T15:39:32+01:00</time>
      </trkpt>
      <trkpt lat="43.93768" lon="5.42832">
        <ele>360</ele>
        <time>2019-02-18T15:39:41+01:00</time>
      </trkpt>
      <trkpt lat="43.9377" lon="5.42833">
        <ele>360</ele>
        <time>2019-02-18T15:39:43+01:00</time>
      </trkpt>
      <trkpt lat="43.93771" lon="5.42835">
        <ele>360</ele>
        <time>2019-02-18T15:39:44+01:00</time>
      </trkpt>
      <trkpt lat="43.93772" lon="5.42836">
        <ele>360</ele>
        <time>2019-02-18T15:39:45+01:00</time>
      </trkpt>
      <trkpt lat="43.93778" lon="5.42846">
        <ele>361</ele>
        <time>2019-02-18T15:39:56+01:00</time>
      </trkpt>
      <trkpt lat="43.93785" lon="5.4286">
        <ele>364</ele>
        <time>2019-02-18T15:40:10+01:00</time>
      </trkpt>
      <trkpt lat="43.93792" lon="5.42871">
        <ele>365</ele>
        <time>2019-02-18T15:40:22+01:00</time>
      </trkpt>
      <trkpt lat="43.93793" lon="5.42872">
        <ele>366</ele>
        <time>2019-02-18T15:40:24+01:00</time>
      </trkpt>
      <trkpt lat="43.93794" lon="5.42874">
        <ele>366</ele>
        <time>2019-02-18T15:40:25+01:00</time>
      </trkpt>
      <trkpt lat="43.93795" lon="5.42875">
        <ele>366</ele>
        <time>2019-02-18T15:40:26+01:00</time>
      </trkpt>
      <trkpt lat="43.938" lon="5.42882">
        <ele>367</ele>
        <time>2019-02-18T15:40:34+01:00</time>
      </trkpt>
      <trkpt lat="43.93805" lon="5.42889">
        <ele>368</ele>
        <time>2019-02-18T15:40:42+01:00</time>
      </trkpt>
      <trkpt lat="43.93812" lon="5.42899">
        <ele>370</ele>
        <time>2019-02-18T15:40:51+01:00</time>
      </trkpt>
      <trkpt lat="43.93813" lon="5.42901">
        <ele>370</ele>
        <time>2019-02-18T15:40:52+01:00</time>
      </trkpt>
      <trkpt lat="43.93817" lon="5.42904">
        <ele>371</ele>
        <time>2019-02-18T15:40:57+01:00</time>
      </trkpt>
      <trkpt lat="43.93818" lon="5.42906">
        <ele>371</ele>
        <time>2019-02-18T15:40:58+01:00</time>
      </trkpt>
      <trkpt lat="43.93819" lon="5.42908">
        <ele>371</ele>
        <time>2019-02-18T15:40:59+01:00</time>
      </trkpt>
      <trkpt lat="43.93824" lon="5.42915">
        <ele>372</ele>
        <time>2019-02-18T15:41:08+01:00</time>
      </trkpt>
      <trkpt lat="43.93824" lon="5.42917">
        <ele>372</ele>
        <time>2019-02-18T15:41:11+01:00</time>
      </trkpt>
      <trkpt lat="43.93826" lon="5.42918">
        <ele>372</ele>
        <time>2019-02-18T15:41:12+01:00</time>
      </trkpt>
      <trkpt lat="43.93828" lon="5.4292">
        <ele>372</ele>
        <time>2019-02-18T15:41:13+01:00</time>
      </trkpt>
      <trkpt lat="43.93835" lon="5.42928">
        <ele>374</ele>
        <time>2019-02-18T15:41:21+01:00</time>
      </trkpt>
      <trkpt lat="43.93836" lon="5.4293">
        <ele>374</ele>
        <time>2019-02-18T15:41:22+01:00</time>
      </trkpt>
      <trkpt lat="43.93843" lon="5.42936">
        <ele>375</ele>
        <time>2019-02-18T15:41:30+01:00</time>
      </trkpt>
      <trkpt lat="43.9385" lon="5.42943">
        <ele>376</ele>
        <time>2019-02-18T15:41:39+01:00</time>
      </trkpt>
      <trkpt lat="43.93853" lon="5.42955">
        <ele>377</ele>
        <time>2019-02-18T15:41:49+01:00</time>
      </trkpt>
      <trkpt lat="43.93859" lon="5.42967">
        <ele>378</ele>
        <time>2019-02-18T15:42:00+01:00</time>
      </trkpt>
      <trkpt lat="43.93867" lon="5.42974">
        <ele>379</ele>
        <time>2019-02-18T15:42:10+01:00</time>
      </trkpt>
      <trkpt lat="43.93868" lon="5.42975">
        <ele>379</ele>
        <time>2019-02-18T15:42:12+01:00</time>
      </trkpt>
      <trkpt lat="43.93869" lon="5.42976">
        <ele>379</ele>
        <time>2019-02-18T15:42:13+01:00</time>
      </trkpt>
      <trkpt lat="43.93871" lon="5.42985">
        <ele>379</ele>
        <time>2019-02-18T15:42:24+01:00</time>
      </trkpt>
      <trkpt lat="43.93873" lon="5.42984">
        <ele>379</ele>
        <time>2019-02-18T15:42:41+01:00</time>
      </trkpt>
      <trkpt lat="43.93872" lon="5.42985">
        <ele>379</ele>
        <time>2019-02-18T15:42:59+01:00</time>
      </trkpt>
    </trkseg>
  </trk>
</gpx>